[[{"header":{"parameterUnit":"m.s-1","parameterCategory":1,"la1":30.6,"la2":28.766,"lo1":-90.7593,"lo2":-88.6598,"dy":0.0162,"dx":0.0183,"nx":116,"ny":114,"refTime":"2024-04-20T00:00:00:Z","depth":0,"parameterNumber":2,"parameterNumberName":"U-component_of_WINDS"},"data":[0.0,0.0,0.0,0.0,0.0,0.0,0.0,0.0,0.0,0.0,0.0,0.0,0.0,0.0,0.0,0.0,0.0,0.0,0.0,0.0,0.0,0.0,0.0,0.0,0.0,0.0,0.0,0.0,0.0,0.0,0.0,0.0,0.0,0.0,0.0,0.0,0.0,0.0,0.0,0.0,0.0,0.0,0.0,0.0,0.0,0.0,0.0,0.0,0.0,0.0,0.0,0.0,0.0,0.0,0.0,0.0,0.0,0.0,0.0,0.0,0.0,0.0,0.0,0.0,0.0,0.0,0.0,0.0,0.0,0.0,0.0,0.0,0.0,0.0,0.0,0.0,0.0,0.0,0.0,0.0,0.0,0.0,0.0,0.0,0.0,0.0,0.0,0.0,0.0,0.0,0.0,0.0,0.0,0.0,0.0,0.0,0.0,0.0,0.0,0.0,0.0,0.0,0.0,0.0,0.0,0.0,0.0,0.0,0.0,0.0,0.0,0.0,0.0,0.0,0.0,0.0,0.0,0.0,0.0,0.0,0.0,0.0,0.0,0.0,0.0,0.0,0.0,0.0,0.0,0.0,0.0,0.0,0.0,0.0,0.0,0.0,0.0,0.0,0.0,0.0,0.0,0.0,0.0,0.0,0.0,0.0,0.0,0.0,0.0,0.0,0.0,0.0,0.0,0.0,0.0,0.0,0.0,0.0,0.0,0.0,0.0,0.0,0.0,0.0,0.0,0.0,0.0,0.0,0.0,0.0,0.0,0.0,0.0,0.0,0.0,0.0,0.0,0.0,0.0,0.0,0.0,0.0,0.0,0.0,0.0,0.0,0.0,0.0,0.0,0.0,0.0,0.0,0.0,0.0,0.0,0.0,0.0,0.0,0.0,0.0,0.0,0.0,0.0,0.0,0.0,0.0,0.0,0.0,0.0,0.0,0.0,0.0,0.0,0.0,0.0,0.0,0.0,0.0,0.0,0.0,0.0,0.0,0.0,0.0,0.0,0.0,0.0,0.0,0.0,0.0,0.0,0.0,0.0,0.0,0.0,0.0,0.0,0.0,0.0,0.0,0.0,0.0,0.0,0.0,0.0,0.0,0.0,0.0,0.0,0.0,0.0,0.0,0.0,0.0,0.0,0.0,0.0,0.0,0.0,0.0,0.0,0.0,0.0,0.0,0.0,0.0,0.0,0.0,0.0,0.0,0.0,0.0,0.0,0.0,0.0,0.0,0.0,0.0,0.0,0.0,0.0,0.0,0.0,0.0,0.0,0.0,0.0,0.0,0.0,0.0,0.0,0.0,0.0,0.0,0.0,0.0,0.0,0.0,0.0,0.0,0.0,0.0,0.0,0.0,0.0,0.0,0.0,0.0,0.0,0.0,0.0,0.0,0.0,0.0,0.0,0.0,0.0,0.0,0.0,0.0,0.0,0.0,0.0,0.0,0.0,0.0,0.0,0.0,0.0,0.0,0.0,0.0,0.0,0.0,0.0,0.0,0.0,0.0,0.0,0.0,0.0,0.0,0.0,0.0,0.0,0.0,0.0,0.0,0.0,0.0,0.0,0.0,0.0,0.0,0.0,0.0,0.0,0.0,0.0,0.0,0.0,0.0,0.0,0.0,0.0,0.0,0.0,0.0,0.0,0.0,0.0,0.0,0.0,0.0,0.0,0.0,0.0,0.0,0.0,0.0,0.0,0.0,0.0,0.0,0.0,0.0,0.0,0.0,0.0,0.0,0.0,0.0,0.0,0.0,0.0,0.0,0.0,0.0,0.0,0.0,0.0,0.0,0.0,0.0,0.0,0.0,0.0,0.0,0.0,0.0,0.0,0.0,0.0,0.0,0.0,0.0,0.0,0.0,0.0,0.0,0.0,0.0,0.0,0.0,0.0,0.0,0.0,0.0,0.0,0.0,0.0,0.0,0.0,0.0,0.0,0.0,0.0,0.0,0.0,0.0,0.0,0.0,0.0,0.0,0.0,0.0,0.0,0.0,0.0,0.0,0.0,0.0,0.0,0.0,0.0,0.0,0.0,0.0,0.0,0.0,0.0,0.0,0.0,0.0,0.0,0.0,0.0,0.0,0.0,0.0,0.0,0.0,0.0,0.0,0.0,0.0,0.0,0.0,0.0,0.0,0.0,0.0,0.0,0.0,0.0,0.0,0.0,0.0,0.0,0.0,0.0,0.0,0.0,0.0,0.0,0.0,0.0,0.0,0.0,0.0,0.0,0.0,0.0,0.0,0.0,0.0,0.0,0.0,0.0,0.0,0.0,0.0,0.0,0.0,0.0,0.0,0.0,0.0,0.0,0.0,0.0,0.0,0.0,0.0,0.0,0.0,0.0,0.0,0.0,0.0,0.0,0.0,0.0,0.0,0.0,0.0,0.0,0.0,0.0,0.0,0.0,0.0,0.0,0.0,0.0,0.0,0.0,0.0,0.0,0.0,0.0,0.0,0.0,0.0,0.0,0.0,0.0,0.0,0.0,0.0,0.0,0.0,0.0,0.0,0.0,0.0,0.0,0.0,0.0,0.0,0.0,0.0,0.0,0.0,0.0,0.0,0.0,0.0,0.0,0.0,0.0,0.0,0.0,0.0,0.0,0.0,0.0,0.0,0.0,0.0,0.0,0.0,0.0,0.0,0.0,0.0,0.0,0.0,0.0,0.0,0.0,0.0,0.0,0.0,0.0,0.0,0.0,0.0,0.0,0.0,0.0,0.0,0.0,0.0,0.0,0.0,0.0,0.0,0.0,0.0,0.0,0.0,0.0,0.0,0.0,0.0,0.0,0.0,0.0,0.0,0.0,0.0,0.0,0.0,0.0,0.0,0.0,0.0,0.0,0.0,0.0,0.0,0.0,0.0,0.0,0.0,0.0,0.0,0.0,0.0,0.0,0.0,0.0,0.0,0.0,0.0,0.0,0.0,0.0,0.0,0.0,0.0,0.0,0.0,0.0,0.0,0.0,0.0,0.0,0.0,0.0,0.0,0.0,0.0,0.0,0.0,0.0,0.0,0.0,0.0,0.0,0.0,0.0,0.0,0.0,0.0,0.0,0.0,0.0,0.0,0.0,0.0,0.0,0.0,0.0,0.0,0.0,0.0,0.0,0.0,0.0,0.0,0.0,0.0,0.0,0.0,0.0,0.0,0.0,0.0,0.0,0.0,0.0,0.0,0.0,0.0,0.0,0.0,0.0,0.0,0.0,0.0,0.0,0.0,0.0,0.0,0.0,0.0,0.0,0.0,0.0,0.0,0.0,0.0,0.0,0.0,0.0,0.0,0.0,0.0,0.0,0.0,0.0,0.0,0.0,0.0,0.0,0.0,0.0,0.0,0.0,0.0,0.0,0.0,0.0,0.0,0.0,0.0,0.0,0.0,0.0,0.0,0.0,0.0,0.0,0.0,0.0,0.0,0.0,0.0,0.0,0.0,0.0,0.0,0.0,0.0,0.0,0.0,0.0,0.0,0.0,0.0,0.0,0.0,0.0,0.0,0.0,0.0,0.0,0.0,0.0,0.0,0.0,0.0,0.0,0.0,0.0,0.0,0.0,0.0,0.0,0.0,0.0,0.0,0.0,0.0,0.0,0.0,0.0,0.0,0.0,0.0,0.0,0.0,0.0,0.0,0.0,0.0,0.0,0.0,0.0,0.0,0.0,0.0,0.0,0.0,0.0,0.0,0.0,0.0,0.0,0.0,0.0,0.0,0.0,0.0,0.0,0.0,0.0,0.0,0.0,0.0,0.0,0.0,0.0,0.0,0.0,0.0,0.0,0.0,0.0,0.0,0.0,0.0,0.0,0.0,0.0,0.0,0.0,0.0,0.0,0.0,0.0,0.0,0.0,0.0,0.0,0.0,0.0,0.0,0.0,0.0,0.0,0.0,0.0,0.0,0.0,0.0,0.0,0.0,0.0,0.0,0.0,0.0,0.0,0.0,0.0,0.0,0.0,0.0,0.0,0.0,0.0,0.0,0.0,0.0,0.0,0.0,0.0,0.0,0.0,0.0,0.0,0.0,0.0,0.0,0.0,0.0,0.0,0.0,0.0,0.0,0.0,0.0,0.0,0.0,0.0,0.0,0.0,0.0,0.0,0.0,0.0,0.0,0.0,0.0,0.0,0.0,0.0,0.0,0.0,0.0,0.0,0.0,0.0,0.0,0.0,0.0,0.0,0.0,0.0,0.0,0.0,0.0,0.0,0.0,0.0,0.0,0.0,0.0,0.0,0.0,0.0,0.0,0.0,0.0,0.0,0.0,0.0,0.0,0.0,0.0,0.0,0.0,0.0,0.0,0.0,0.0,0.0,0.0,0.0,0.0,0.0,0.0,0.0,0.0,0.0,0.0,0.0,0.0,0.0,0.0,0.0,0.0,0.0,0.0,0.0,0.0,0.0,0.0,0.0,0.0,0.0,0.0,0.0,0.0,0.0,0.0,0.0,0.0,0.0,0.0,0.0,0.0,0.0,0.0,0.0,0.0,0.0,0.0,0.0,0.0,0.0,0.0,0.0,0.0,0.0,0.0,0.0,0.0,0.0,0.0,0.0,0.0,0.0,0.0,0.0,0.0,0.0,0.0,0.0,0.0,0.0,0.0,0.0,0.0,0.0,0.0,0.0,0.0,0.0,0.0,0.0,0.0,0.0,0.0,0.0,0.0,0.0,0.0,0.0,0.0,0.0,0.0,0.0,0.0,0.0,0.0,0.0,0.0,0.0,0.0,0.0,0.0,0.0,0.0,0.0,0.0,0.0,0.0,0.0,0.0,0.0,0.0,0.0,0.0,0.0,0.0,0.0,0.0,0.0,0.0,0.0,0.0,0.0,0.0,0.0,0.0,0.0,0.0,0.0,0.0,0.0,0.0,0.0,0.0,0.0,0.0,0.0,0.0,0.0,0.0,0.0,0.0,0.0,0.0,0.0,0.0,0.0,0.0,0.0,0.0,0.0,0.0,0.0,0.0,0.0,0.0,0.0,0.0,0.0,0.0,0.0,0.0,0.0,0.0,0.0,0.0,0.0,0.0,0.0,0.0,0.0,0.0,0.0,0.0,0.0,0.0,0.0,0.0,0.0,0.0,0.0,0.0,0.0,0.0,0.0,0.0,0.0,0.0,0.0,0.0,0.0,0.0,0.0,0.0,0.0,0.0,0.0,0.0,0.0,0.0,0.0,0.0,0.0,0.0,0.0,0.0,0.0,0.0,0.0,0.0,0.0,0.0,0.0,0.0,0.0,0.0,0.0,0.0,0.0,0.0,0.0,0.0,0.0,0.0,0.0,0.0,0.0,0.0,0.0,0.0,0.0,0.0,0.0,0.0,0.0,0.0,0.0,0.0,0.0,0.0,0.0,0.0,0.0,0.0,0.0,0.0,0.0,0.0,0.0,0.0,0.0,0.0,0.0,0.0,0.0,0.0,0.0,0.0,0.0,0.0,0.0,0.0,0.0,0.0,0.0,0.0,0.0,0.0,0.0,0.0,0.0,0.0,0.0,0.0,0.0,0.0,0.0,0.0,0.0,0.0,0.0,0.0,0.0,0.0,0.0,0.0,0.0,0.0,0.0,0.0,0.0,0.0,0.0,0.0,0.0,0.0,0.0,0.0,0.0,0.0,0.0,0.0,0.0,0.0,0.0,0.0,0.0,0.0,0.0,0.0,0.0,0.0,0.0,0.0,0.0,0.0,0.0,0.0,0.0,0.0,0.0,0.0,0.0,0.0,0.0,0.0,0.0,0.0,0.0,0.0,0.0,0.0,0.0,0.0,0.0,0.0,0.0,0.0,0.0,0.0,0.0,0.0,0.0,0.0,0.0,0.0,0.0,0.0,0.0,0.0,0.0,0.0,0.0,0.0,0.0,0.0,0.0,0.0,0.0,0.0,0.0,0.0,0.0,0.0,0.0,0.0,0.0,0.0,0.0,0.0,0.0,0.0,0.0,0.0,0.0,0.0,0.0,0.0,0.0,0.0,0.0,0.0,0.0,0.0,0.0,0.0,0.0,0.0,0.0,0.0,0.0,0.0,0.0,0.0,0.0,0.0,0.0,0.0,0.0,0.0,0.0,0.0,0.0,0.0,0.0,0.0,0.0,0.0,0.0,0.0,0.0,0.0,0.0,0.0,0.0,0.0,0.0,0.0,4.2322,0.0,0.0,0.0,0.0,0.0,0.0,0.0,0.0,0.0,0.0,0.0,0.0,0.0,0.0,0.0,0.0,0.0,0.0,0.0,0.0,0.0,0.0,0.0,0.0,3.3128,3.3406,3.2065,3.2733,3.3083,3.2636,0.0,0.0,0.0,0.0,0.0,3.4535,3.6627,3.7716,3.7716,3.9801,4.1197,4.1939,4.1931,4.1248,4.0138,0.0,0.0,0.0,0.0,0.0,0.0,0.0,0.0,0.0,0.0,0.0,0.0,0.0,0.0,0.0,0.0,0.0,0.0,0.0,0.0,0.0,0.0,0.0,0.0,0.0,0.0,0.0,0.0,0.0,0.0,0.0,0.0,0.0,0.0,0.0,0.0,0.0,0.0,0.0,0.0,0.0,0.0,0.0,0.0,0.0,0.0,0.0,0.0,0.0,0.0,0.0,0.0,0.0,0.0,0.0,0.0,0.0,0.0,0.0,0.0,0.0,0.0,0.0,0.0,0.0,0.0,0.0,0.0,0.0,0.0,0.0,4.3054,0.0,0.0,0.0,0.0,0.0,0.0,0.0,0.0,0.0,0.0,0.0,0.0,0.0,0.0,0.0,0.0,0.0,0.0,0.0,0.0,0.0,3.27,3.3414,3.4289,3.4523,3.3803,3.44,3.4517,3.3789,3.3743,0.0,0.0,0.0,3.4994,3.515,3.7566,3.8947,3.9199,4.2455,4.4782,4.6198,4.6352,4.4909,4.2193,4.2225,0.0,0.0,0.0,0.0,0.0,0.0,0.0,0.0,0.0,0.0,0.0,0.0,0.0,0.0,0.0,0.0,0.0,0.0,0.0,0.0,0.0,0.0,0.0,0.0,0.0,0.0,0.0,0.0,0.0,0.0,0.0,0.0,0.0,0.0,0.0,0.0,0.0,0.0,0.0,0.0,0.0,0.0,0.0,0.0,0.0,0.0,0.0,0.0,0.0,0.0,0.0,0.0,0.0,0.0,0.0,0.0,0.0,0.0,0.0,0.0,0.0,0.0,0.0,5.3312,5.3319,5.33,5.3858,5.3327,5.1812,4.898,4.695,4.5583,0.0,0.0,0.0,0.0,0.0,0.0,0.0,0.0,0.0,0.0,0.0,0.0,0.0,0.0,0.0,0.0,0.0,0.0,0.0,0.0,3.4294,3.435,3.5104,3.5609,3.5477,3.5593,3.5593,3.5469,3.5469,3.546,3.5474,3.625,3.7026,3.7763,3.9626,4.1305,4.2791,4.5338,4.7017,4.7817,4.8566,4.8625,4.7951,4.5204,0.0,0.0,0.0,0.0,0.0,0.0,0.0,0.0,0.0,0.0,0.0,0.0,0.0,0.0,0.0,0.0,0.0,0.0,0.0,0.0,0.0,0.0,0.0,0.0,0.0,0.0,0.0,0.0,0.0,0.0,0.0,0.0,0.0,0.0,0.0,0.0,0.0,0.0,0.0,0.0,0.0,0.0,0.0,3.8123,3.9083,0.0,0.0,0.0,0.0,0.0,0.0,0.0,0.0,0.0,0.0,0.0,0.0,0.0,5.1764,5.2091,5.4285,5.548,5.5709,5.6498,5.6809,5.6722,5.6063,5.566,5.5436,5.4971,0.0,4.9058,4.8217,0.0,0.0,0.0,0.0,0.0,0.0,0.0,0.0,0.0,0.0,0.0,0.0,0.0,0.0,0.0,0.0,0.0,0.0,0.0,0.0,0.0,3.783,3.8423,3.7899,3.9198,3.942,3.7957,3.8345,3.819,3.724,3.7541,3.8365,3.9743,4.1429,4.4316,4.8385,4.9853,5.12,5.2374,5.2738,5.2807,5.2579,5.0708,4.8715,4.674,4.5131,0.0,0.0,0.0,0.0,0.0,0.0,0.0,0.0,0.0,0.0,0.0,0.0,0.0,0.0,0.0,0.0,0.0,0.0,0.0,0.0,0.0,0.0,0.0,0.0,0.0,0.0,0.0,0.0,0.0,0.0,0.0,0.0,0.0,0.0,0.0,0.0,0.0,0.0,0.0,3.8123,4.0145,4.0519,4.1429,4.1984,0.0,0.0,0.0,0.0,0.0,0.0,0.0,0.0,0.0,5.3011,5.4156,5.5405,5.678,5.7935,5.8894,5.9754,6.0142,6.0538,6.0937,6.0553,6.0324,6.0326,6.0326,5.8972,5.6462,5.2801,5.0248,4.8647,0.0,0.0,0.0,0.0,4.8135,4.8793,0.0,0.0,0.0,0.0,0.0,0.0,0.0,0.0,0.0,0.0,0.0,0.0,3.9267,4.0809,4.1668,4.1451,4.3195,4.3492,4.1557,4.1647,4.1207,3.9951,3.9913,4.0621,4.2156,4.4666,4.8406,5.3412,5.4419,5.5588,5.6921,5.6875,5.6803,5.6665,5.6053,5.3427,4.935,4.7843,4.6101,0.0,0.0,0.0,0.0,0.0,0.0,0.0,0.0,0.0,0.0,0.0,0.0,0.0,0.0,0.0,0.0,0.0,0.0,0.0,0.0,0.0,0.0,0.0,0.0,0.0,0.0,0.0,0.0,0.0,0.0,0.0,0.0,0.0,0.0,0.0,0.0,0.0,0.0,4.0496,4.2084,4.2119,4.3833,4.4579,0.0,0.0,0.0,0.0,0.0,0.0,5.16,5.2481,5.4255,5.7235,5.7982,5.9167,6.1041,6.1686,6.2626,6.38,6.3783,6.4056,6.4638,6.4386,6.4268,6.4226,6.4226,6.3681,6.2403,5.7041,5.3889,5.2429,5.1785,5.1145,5.0665,5.1283,5.2073,5.2746,0.0,0.0,0.0,0.0,0.0,0.0,0.0,0.0,0.0,0.0,0.0,4.0121,4.1828,4.3439,4.5015,4.6563,4.6844,4.6854,4.6738,4.5272,4.437,4.4292,4.4214,4.4653,4.5622,5.041,5.4168,5.6767,5.8396,5.9547,6.025,6.025,6.0223,6.0141,6.0102,5.7707,5.3467,5.0264,4.8791,4.8224,0.0,0.0,0.0,0.0,0.0,0.0,0.0,0.0,0.0,0.0,0.0,0.0,0.0,0.0,0.0,0.0,0.0,0.0,0.0,0.0,0.0,0.0,0.0,0.0,0.0,0.0,0.0,0.0,0.0,0.0,0.0,0.0,0.0,0.0,0.0,0.0,0.0,0.0,0.0,4.4813,4.703,0.0,0.0,0.0,0.0,4.9698,5.1367,5.3424,5.595,5.6853,5.8103,5.9866,6.2206,6.3495,6.3596,6.6006,6.727,6.7348,6.7289,6.7248,6.7183,6.6267,6.5897,6.5897,6.5897,6.5388,6.4224,6.0094,5.7737,5.6541,5.4185,5.3202,5.3108,5.3147,5.3762,5.4589,0.0,0.0,0.0,0.0,0.0,3.472,3.5592,3.6939,3.7889,3.785,4.0325,4.2477,4.3633,4.6651,4.8817,4.9367,5.0894,5.1087,4.9413,4.8274,4.7439,4.6947,4.6407,4.751,5.0524,5.3398,5.6592,6.0133,6.1275,6.2464,6.3705,6.3705,6.3676,6.3579,6.3083,6.1678,5.9417,5.5489,5.259,5.0329,4.7667,4.5498,0.0,0.0,0.0,0.0,0.0,0.0,0.0,0.0,0.0,0.0,0.0,0.0,0.0,0.0,0.0,0.0,0.0,0.0,0.0,0.0,0.0,0.0,0.0,0.0,0.0,0.0,0.0,0.0,0.0,0.0,0.0,0.0,0.0,0.0,0.0,0.0,0.0,4.9685,5.1654,0.0,5.125,5.2684,5.3797,5.4081,5.6193,5.8364,6.0358,6.1227,6.2663,6.4924,6.5791,6.6475,6.6961,6.8413,6.9087,6.9038,6.8976,6.8953,6.8892,6.801,6.76,6.76,6.76,6.7422,6.6923,6.501,6.2656,6.0201,5.8837,5.8258,5.8199,5.8199,5.876,5.9436,0.0,0.0,0.0,0.0,0.0,3.4768,3.596,3.7385,3.8598,3.943,4.2299,4.4873,4.6496,4.9898,5.228,5.2761,5.4045,5.4079,5.2308,5.0681,4.9567,4.9097,4.9097,5.1202,5.5605,5.7373,5.9979,6.3537,6.4353,6.5446,6.6736,6.6736,6.6705,6.6674,6.607,6.5161,6.384,6.0692,5.712,5.3312,5.0696,4.8618,4.6844,0.0,0.0,0.0,0.0,0.0,0.0,0.0,0.0,0.0,0.0,0.0,0.0,0.0,0.0,0.0,0.0,0.0,0.0,0.0,0.0,0.0,0.0,0.0,0.0,0.0,0.0,0.0,0.0,0.0,0.0,0.0,0.0,0.0,0.0,0.0,5.1499,5.3229,5.5453,5.6368,5.521,5.6641,5.7865,5.8453,6.0319,6.2277,6.424,6.4854,6.6179,6.8413,6.8723,6.9185,6.9949,7.0799,7.1178,7.1056,7.103,7.103,7.0992,7.0375,7.0117,7.0117,7.0182,7.0002,6.9602,6.913,6.7268,6.4523,6.3168,6.259,6.2506,6.2506,6.2852,6.3315,0.0,0.0,0.0,0.0,0.0,3.4908,3.6704,3.7743,3.9215,4.1698,4.4318,4.727,5.0499,5.3128,5.5322,5.6973,5.6291,5.573,5.5669,5.2564,5.076,5.0948,5.2607,5.5843,6.0737,6.2465,6.4523,6.6949,6.7752,6.8533,6.9311,6.9311,6.9311,6.9311,6.9137,6.8188,6.6592,6.5513,6.2254,5.746,5.3168,5.1385,5.0871,0.0,0.0,0.0,0.0,0.0,0.0,0.0,0.0,0.0,0.0,0.0,0.0,0.0,0.0,0.0,0.0,0.0,0.0,0.0,0.0,0.0,0.0,0.0,0.0,0.0,0.0,0.0,0.0,0.0,0.0,0.0,0.0,0.0,4.8879,5.2559,5.519,5.5307,5.8265,5.967,5.7986,5.9322,6.0992,6.2626,6.3518,6.5092,6.756,6.7755,6.847,7.0071,7.0915,7.1695,7.2495,7.3382,7.3755,7.3597,7.3542,7.3514,7.3486,7.3428,7.336,7.336,7.3486,7.2996,7.2131,7.2217,7.1283,6.9552,6.6987,6.5897,6.5793,6.5793,6.5793,6.5767,0.0,0.0,0.0,3.2954,3.3766,3.4908,3.6704,3.8225,3.9851,4.1738,4.5824,4.9605,5.2318,5.5941,5.8572,5.9523,5.9369,5.8667,5.7353,5.4724,5.3491,5.4194,5.7059,6.0392,6.4096,6.5255,6.7293,7.0337,7.0566,7.1139,7.1947,7.1947,7.1947,7.1909,7.1197,7.0629,7.0057,6.7863,6.6155,6.4405,5.8912,5.5578,5.3556,0.0,0.0,0.0,0.0,0.0,0.0,0.0,0.0,0.0,0.0,0.0,0.0,0.0,0.0,0.0,0.0,0.0,0.0,0.0,0.0,0.0,0.0,0.0,0.0,0.0,0.0,0.0,0.0,0.0,0.0,0.0,0.0,5.231,5.3234,5.5374,5.7741,6.0255,6.1857,6.2859,6.3014,6.4023,6.5092,6.6144,6.7578,6.8975,7.0212,7.0887,7.1672,7.266,7.3446,7.3974,7.4152,7.5655,7.636,7.6236,7.6148,7.6079,7.6079,7.5372,7.4758,7.4243,7.4282,7.385,7.314,7.3005,7.2736,7.2045,6.9629,6.8244,6.7653,6.7626,6.7543,6.7515,0.0,0.0,0.0,3.2982,3.4036,3.545,3.7224,3.864,4.0486,4.3192,4.7349,5.1257,5.4454,5.7912,6.0301,6.1019,6.0724,5.9817,5.8054,5.6269,5.5974,5.7569,6.061,6.374,6.7025,6.8258,7.0139,7.275,7.275,7.3327,7.4514,7.4514,7.4476,7.4404,7.3873,7.3417,7.2887,7.1024,7.0038,6.9279,6.4799,6.1039,5.7764,5.4188,5.1739,5.0011,4.8143,4.6449,4.4978,4.3865,0.0,0.0,0.0,0.0,0.0,0.0,0.0,0.0,0.0,0.0,0.0,0.0,0.0,0.0,0.0,0.0,0.0,0.0,0.0,0.0,0.0,0.0,0.0,0.0,5.3963,5.7067,5.8985,6.0099,6.1546,6.3922,6.5231,6.6126,6.6611,6.7425,6.8259,6.9051,7.0367,7.1661,7.2747,7.3287,7.4088,7.522,7.5682,7.6079,7.6342,7.7343,7.7784,7.7731,7.763,7.7598,7.7495,7.6963,7.6465,0.0,7.6108,7.5871,7.5403,7.4988,7.4643,0.0,0.0,0.0,0.0,0.0,7.0264,7.0264,0.0,0.0,0.0,3.3141,3.4515,3.6161,3.7924,3.9004,4.1119,4.5295,4.8831,5.255,5.6614,5.9268,6.1057,6.1753,6.113,5.9944,5.8233,5.7634,5.8426,6.0851,6.3493,6.6451,6.9757,7.1363,7.2974,7.4587,7.4587,7.5354,7.6693,7.6693,7.6656,7.6579,7.6541,7.6045,7.5245,7.4409,7.3535,7.2508,7.0156,6.6698,6.2515,5.8509,5.5893,5.4116,5.1852,4.9534,4.7379,4.5686,0.0,0.0,0.0,0.0,0.0,0.0,0.0,0.0,0.0,0.0,0.0,0.0,0.0,0.0,0.0,0.0,0.0,0.0,0.0,0.0,0.0,0.0,0.0,0.0,5.7845,6.1686,6.5041,6.5678,6.5989,6.6591,6.8064,6.9033,6.9071,6.9941,7.0789,7.1588,7.253,7.3664,7.5092,0.0,0.0,0.0,0.0,7.8113,7.8754,7.8977,7.8999,7.8875,7.8875,7.8769,7.8662,7.8662,7.8547,7.8394,7.8501,7.8386,7.8084,7.7423,7.6657,7.5775,7.3991,7.3277,7.3226,7.3051,7.3046,7.3079,0.0,0.0,3.3234,3.3877,3.4853,3.61,3.7861,3.9419,4.1914,4.6133,5.0202,5.4066,5.7574,6.0175,6.1912,6.2615,6.1983,6.0797,5.8939,5.9932,6.1391,6.3169,6.6331,6.9569,7.296,7.4027,7.536,7.6998,7.6998,7.7189,7.7455,7.7455,7.7455,7.7455,7.7338,7.7222,7.6954,7.6156,7.5398,7.4486,7.2698,6.9391,6.5179,6.1749,5.9794,5.8597,5.6175,5.5007,5.4295,5.1959,5.0205,4.8677,4.7069,0.0,0.0,0.0,0.0,0.0,0.0,0.0,0.0,0.0,0.0,0.0,0.0,0.0,0.0,0.0,0.0,0.0,0.0,0.0,0.0,5.8101,6.1109,6.4096,6.7521,6.9099,6.9524,6.8411,6.9104,6.9949,7.0575,7.2042,7.3253,7.414,7.5646,7.6635,7.6927,7.7516,7.7959,7.8192,7.96,8.0376,8.0361,8.1771,8.2391,8.2326,0.0,0.0,8.2222,8.211,8.1345,8.0116,8.0155,7.9424,7.8267,7.7969,7.7816,7.7356,7.4357,7.3559,7.3992,7.3308,7.3046,7.3012,0.0,3.2659,3.3234,3.407,3.4969,3.6138,3.7848,3.9532,4.1971,4.5736,4.9874,5.3574,5.6433,5.8948,6.0589,6.0924,6.0637,6.0342,6.0256,6.2178,6.4432,6.6878,6.9807,7.2583,7.5095,7.6008,7.7074,7.8292,7.8749,7.9127,7.9505,7.9923,8.0072,8.0068,8.003,7.995,7.987,7.866,7.7944,7.7414,7.5245,7.3155,7.0801,6.6307,6.4019,6.2915,6.0531,5.9112,5.7967,5.5556,5.3924,5.2533,5.0495,4.8163,4.5988,0.0,0.0,0.0,0.0,0.0,0.0,0.0,0.0,0.0,0.0,0.0,0.0,0.0,0.0,4.9493,5.2421,0.0,5.7381,6.1134,6.4213,6.7054,6.9563,7.1695,7.2558,7.1332,7.1888,7.2712,7.3575,7.481,7.5709,7.6106,7.7218,7.8246,7.9031,7.939,7.9939,8.0754,8.1666,8.2127,8.1949,8.2828,8.3175,8.3066,8.3028,8.2951,8.295,8.291,8.2414,8.1652,8.1729,8.1041,7.9891,7.905,7.8706,7.8476,7.6407,7.5867,7.6174,7.5685,7.5535,7.5424,0.0,0.0,3.3299,3.4289,3.5072,3.6138,3.7822,3.9475,4.1793,4.5127,4.8966,5.2265,5.4562,5.6851,5.8311,5.853,5.893,5.9892,6.1599,6.4133,6.7034,7.0418,7.2813,7.4942,7.6768,7.7528,7.8326,7.9315,8.0037,8.0756,8.1507,8.2152,8.245,8.2399,8.245,8.245,8.2285,8.1008,8.041,8.0068,7.7973,7.6986,7.6272,7.1443,6.8707,6.7151,6.447,6.2483,6.0738,5.8367,5.6816,5.5517,5.3541,5.166,4.9928,4.8335,4.6744,0.0,0.0,0.0,0.0,0.0,0.0,0.0,0.0,0.0,4.9027,5.0712,5.1865,5.3519,5.6631,5.8811,6.1134,6.4226,6.7354,7.0019,7.1888,7.3819,7.5,7.4885,7.5143,7.5644,7.6338,7.7313,7.7911,7.8006,7.8653,7.9637,8.1068,8.1109,8.1688,8.2989,8.333,8.3483,8.3487,8.3716,8.3792,8.3786,8.3786,8.3669,8.3472,8.3472,8.3282,8.2977,8.2947,8.2529,8.1766,8.0507,8.0009,7.9933,7.9208,7.8899,7.8741,7.8211,7.8022,7.7908,0.0,0.0,0.0,3.5084,3.543,3.6084,3.7694,3.9336,4.166,4.5074,4.834,5.1075,5.2881,5.4535,5.5853,5.6709,5.869,6.0646,6.2351,6.5441,6.8713,7.1977,7.3835,7.5921,7.831,7.8462,7.9258,8.0851,8.0965,8.1458,8.2292,8.2368,8.2444,8.2399,8.2444,8.2444,8.2361,8.2216,8.1767,8.1132,8.0824,7.9882,7.8443,7.6956,7.4485,7.1294,6.741,6.546,6.4343,6.1869,5.9529,5.7581,5.7275,5.5568,5.3368,5.1798,0.0,4.8591,4.7055,4.6125,4.597,4.7404,4.7921,4.8619,0.0,0.0,5.332,5.4907,5.6588,5.8523,6.1057,6.3505,6.6036,6.8675,7.0619,7.2685,7.5204,7.5571,7.6447,7.8769,7.7793,7.7006,7.716,7.8404,7.9531,8.0289,8.1068,8.1841,8.2722,8.276,8.2798,8.2834,8.3638,8.4362,8.4957,8.5889,8.6694,8.7333,8.7416,8.7034,8.6188,8.6309,8.5469,8.3898,8.3255,8.2913,8.276,8.2567,8.2492,8.2493,8.2376,8.1957,8.1079,7.8825,7.8022,7.7984,0.0,0.0,0.0,3.5091,3.5412,3.5989,3.7594,3.8827,4.0766,4.4113,4.6969,4.9338,5.099,5.2612,5.3982,5.4818,5.7612,6.0431,6.3123,6.7199,7.0951,7.432,7.6062,7.769,7.9204,7.9778,8.039,8.111,8.2058,8.274,8.3081,8.3612,8.4105,8.4522,8.4067,8.4105,8.4484,8.3498,8.3025,8.2775,8.219,8.1626,8.0877,7.8887,7.6986,7.4827,7.019,6.8054,0.0,0.0,6.2433,6.1287,5.9797,5.8004,5.5998,5.3909,5.2512,0.0,5.0356,4.9823,0.0,0.0,5.2017,5.3619,5.4146,5.5711,5.7526,5.9204,6.0496,6.205,6.4537,6.6357,6.8115,0.0,7.2234,7.4235,7.5716,7.7124,7.8371,7.9309,7.9267,7.9148,7.9215,8.0116,8.0886,8.1267,8.1958,8.268,8.3478,8.3974,8.4386,8.4796,8.5761,8.6328,8.6539,8.697,8.7351,8.7597,8.768,8.7224,8.6305,8.6387,8.5747,8.4572,8.3777,8.3478,8.3443,8.298,8.283,8.2912,8.2792,8.2642,8.2263,8.0736,7.9895,7.9398,0.0,0.0,0.0,3.4717,3.5177,3.5891,3.7529,3.8452,4.0062,4.315,4.546,4.7517,4.9402,5.0719,5.1972,5.3328,5.6261,5.9602,6.3209,6.7695,7.1741,7.5107,7.703,7.8428,7.9298,8.022,8.0908,8.1362,8.2619,8.3453,8.3907,8.4597,8.5356,8.6076,8.5507,8.5697,8.6379,8.5166,8.4575,8.4442,8.374,8.3209,8.2656,8.0249,7.8428,7.6536,7.152,6.9271,0.0,0.0,6.3685,6.3188,6.1343,5.9855,5.8309,5.6038,5.4572,5.3608,5.3261,0.0,0.0,5.3841,5.6056,5.8063,5.7884,5.9419,6.1381,6.3137,6.3935,6.5077,6.7477,6.8971,7.036,7.19,7.4158,7.6071,7.7085,7.8492,7.9577,7.9856,7.9934,8.0125,8.0392,8.1156,8.1804,8.2301,8.2939,8.365,8.4486,8.5279,8.5994,8.6594,8.7293,8.7673,8.7809,8.7855,8.7961,8.8047,8.8132,8.7677,8.6796,8.653,8.6168,8.5709,8.4866,8.4529,8.45,8.3739,8.3396,8.3475,8.3396,8.3244,8.3097,8.2567,8.1843,8.1041,0.0,0.0,0.0,0.0,3.4779,3.5851,3.7483,3.8384,3.9795,4.2307,4.3952,4.5836,4.8359,4.8753,4.9792,5.2341,5.4828,5.806,6.226,6.6332,7.0077,7.3443,7.5815,7.7425,7.8338,7.9123,8.033,8.1953,8.2132,8.3049,8.4675,8.4854,8.5356,8.6114,8.6076,8.6568,8.7364,8.7326,8.6796,8.6038,8.6,8.5014,8.343,8.1849,7.9195,7.57,7.0722,0.0,6.7349,6.4135,6.247,6.1781,6.1747,6.125,0.0,5.8566,5.6462,5.4803,0.0,0.0,5.6231,5.8604,5.9888,6.1003,6.2606,6.3668,6.4821,6.6441,6.6907,6.7675,6.991,7.1835,7.3676,7.5302,7.693,7.8616,8.0471,7.9702,7.9589,8.1385,7.9888,7.9035,0.0,8.079,8.1972,8.3697,8.4524,8.5265,8.5962,8.6936,8.7429,8.7364,8.7364,8.7781,8.8539,8.872,8.9099,8.9714,8.9859,8.9441,8.8501,8.7668,8.7399,8.7557,8.6709,8.6285,8.6176,8.5418,8.5029,8.4937,8.4937,8.4486,8.3887,8.3849,8.3316,8.2631,0.0,0.0,0.0,0.0,0.0,3.5785,3.7394,3.8347,3.9756,4.2139,4.4838,0.0,0.0,0.0,0.0,0.0,5.38,5.6759,6.032,6.4935,6.8973,7.2289,7.4771,7.6731,7.8163,7.9039,8.033,8.199,8.2567,8.3435,8.4579,8.4579,8.5129,8.5933,8.5933,8.6473,8.7364,8.6796,8.6729,8.6936,8.5835,8.5379,8.5113,8.2395,7.9619,7.6577,0.0,0.0,6.6701,6.5168,6.3733,6.2585,6.2574,6.1697,6.0402,5.8765,5.7734,5.7332,0.0,0.0,6.0172,6.1467,6.328,6.4862,6.5379,6.6154,6.7003,6.8242,6.8472,6.8931,7.031,7.2026,7.3712,7.5365,7.7016,7.8856,8.0965,8.0965,8.0886,8.1254,8.0752,0.0,0.0,0.0,0.0,8.3595,8.4954,8.6038,8.6728,8.7609,8.8052,8.7953,8.8432,8.8898,8.9163,8.9163,8.9276,8.9541,8.9011,8.8633,8.8281,8.7462,8.7084,8.7133,8.6322,8.6294,8.671,8.541,8.5272,8.5811,8.5144,8.481,8.4638,8.4594,8.4436,8.4012,0.0,0.0,0.0,0.0,0.0,0.0,0.0,0.0,0.0,0.0,0.0,0.0,0.0,0.0,0.0,0.0,0.0,5.5378,5.8971,6.2409,6.5913,6.9524,7.1438,7.3244,7.4899,7.6074,7.7664,7.9623,8.0801,8.198,8.3111,8.3764,8.4579,8.5469,8.5772,8.6625,8.7781,8.6909,8.6729,8.6943,8.5272,8.455,8.422,8.0918,7.8331,0.0,7.1536,6.8356,6.6017,6.4996,6.4106,6.3444,6.3165,6.2017,6.0657,6.025,5.9716,5.9656,0.0,6.2861,6.3942,6.5282,6.7056,6.8438,6.8373,6.8993,6.9675,7.0037,6.9846,6.9884,7.086,7.1893,7.3347,7.5608,7.7103,7.8865,8.1611,8.1685,8.1641,8.1995,8.1577,8.1539,0.0,0.0,0.0,8.3953,8.5536,8.6663,8.7095,8.8142,8.8734,8.8631,8.9159,8.9574,8.9876,8.9574,8.9371,8.928,8.879,8.8527,8.8527,8.8013,8.7773,8.7758,8.6631,8.6644,8.7336,8.546,8.5258,8.6062,8.5212,8.4871,8.4961,8.4961,8.4954,8.4803,0.0,0.0,0.0,0.0,0.0,0.0,0.0,0.0,0.0,0.0,0.0,0.0,0.0,0.0,0.0,0.0,0.0,0.0,5.788,5.8907,6.1205,6.5271,6.6244,6.7438,6.9053,7.0743,7.277,7.5211,7.7043,7.8746,8.0365,8.2131,8.3435,8.441,8.5242,8.6625,8.816,8.7402,8.6691,8.5994,8.4285,8.2694,8.0994,7.7837,7.5623,7.3747,7.0457,6.7752,6.5454,6.3844,6.3844,6.4408,6.3578,6.231,6.1435,6.3099,6.2497,6.2117,6.5991,6.6987,6.7546,6.99,7.0982,7.1443,7.1443,7.2088,7.2392,7.1662,7.0858,7.0476,0.0,0.0,7.2788,7.615,7.7303,7.9094,8.2645,8.2091,8.1989,0.0,0.0,0.0,0.0,0.0,0.0,8.4816,0.0,8.7171,8.7273,8.8683,8.9499,8.9484,8.9484,8.9861,9.0744,8.9861,8.9356,8.9249,8.9211,8.9173,8.9173,8.9173,8.9249,8.9265,8.7674,8.7424,8.8092,8.5659,8.522,8.5933,8.5128,8.4901,8.5014,8.5014,8.5106,8.512,0.0,0.0,0.0,0.0,0.0,0.0,0.0,0.0,0.0,0.0,0.0,0.0,0.0,0.0,0.0,0.0,0.0,0.0,5.4221,5.6394,5.8911,6.1769,6.3873,6.5711,6.7363,6.9015,7.078,7.2658,7.4394,7.5709,7.6761,7.8558,7.9604,7.9962,8.149,8.249,8.3006,8.2778,8.2975,8.3335,8.1748,8.0877,8.0309,7.837,7.6229,7.3858,7.1236,6.9106,0.0,0.0,0.0,0.0,0.0,6.5191,6.5433,6.5893,6.6584,6.7678,6.9795,7.0348,7.0777,7.2505,7.2659,7.2392,7.2392,7.1977,7.1444,7.068,6.9908,6.9251,0.0,0.0,0.0,7.6006,7.8178,0.0,8.474,8.5068,0.0,8.5478,0.0,8.3814,8.4079,8.4079,0.0,0.0,8.6479,8.7877,8.9702,9.0034,9.0453,9.0944,9.0944,9.1057,9.1283,9.0418,9.0004,8.9949,8.9348,8.9047,8.9047,8.9047,8.9047,8.9009,8.8049,8.8119,8.879,8.6944,8.6757,8.7544,8.6748,8.653,8.6568,8.672,8.6758,8.6805,0.0,0.0,0.0,0.0,0.0,0.0,0.0,0.0,0.0,0.0,0.0,0.0,0.0,0.0,0.0,0.0,0.0,0.0,0.0,5.3887,5.5798,5.824,5.9703,6.128,6.2932,6.4209,6.5861,6.7926,6.9579,7.1193,7.2823,7.4561,7.5638,7.623,7.7937,7.8971,7.9481,7.9481,7.9832,0.0,0.0,7.7608,7.6921,7.573,7.4193,7.2422,0.0,0.0,0.0,0.0,0.0,6.8062,6.8321,6.8244,6.8263,6.9666,0.0,7.0828,7.3105,7.3684,7.3953,7.5171,7.4828,7.3991,7.3231,7.2434,7.1407,6.9921,6.8998,0.0,6.7973,6.9251,0.0,0.0,0.0,0.0,8.4939,8.5886,8.618,0.0,8.6133,0.0,8.5772,8.5734,8.6177,0.0,8.7763,8.8631,8.9959,9.0641,9.1132,9.147,9.1507,9.1507,9.1507,9.1357,9.0944,9.0193,8.9743,8.933,8.8992,8.8992,8.8992,8.8954,0.0,8.8296,8.9006,8.7264,8.7238,8.8013,8.7221,8.6984,8.7046,8.7231,8.7268,8.7268,0.0,0.0,0.0,0.0,0.0,0.0,0.0,0.0,0.0,0.0,4.1666,4.231,0.0,0.0,0.0,0.0,0.0,0.0,0.0,0.0,5.2656,5.4943,5.52,5.5986,5.7413,5.8464,6.0041,6.2294,6.4096,6.6165,6.8429,7.0352,7.1761,7.2645,7.4351,7.5607,7.6411,7.6524,7.661,7.6617,7.5361,7.3911,7.2406,0.0,0.0,0.0,0.0,0.0,0.0,0.0,7.0575,7.0363,7.1904,7.1482,7.0923,7.3705,7.3518,7.3028,7.5932,7.6576,7.665,7.7486,7.6872,7.569,7.3985,7.2888,7.1484,6.9046,0.0,6.7463,6.7522,6.8384,7.0451,7.4751,0.0,8.039,8.4513,8.5839,8.6625,8.7311,8.7447,8.7447,8.7386,8.7386,8.7928,8.9409,8.9641,8.9646,8.97,9.0926,9.1695,9.1808,9.1808,9.1808,9.1808,9.2409,9.1996,9.0531,9.0306,8.9818,8.9142,8.9029,8.8992,8.8954,8.8278,0.0,8.8879,8.7435,8.736,8.8073,8.7304,8.7131,8.7231,8.7374,8.7436,8.7473,0.0,0.0,0.0,0.0,0.0,0.0,0.0,0.0,0.0,0.0,4.1151,4.118,0.0,0.0,0.0,0.0,0.0,0.0,0.0,0.0,0.0,5.2461,5.3245,5.3733,5.4033,5.6211,5.7525,5.7976,6.098,6.267,6.3197,6.6442,6.803,6.8258,7.0116,7.1066,7.1256,7.2016,7.2016,7.1593,7.2731,7.1884,6.9922,0.0,0.0,0.0,0.0,0.0,0.0,0.0,7.2548,7.3744,7.4675,7.5183,7.5535,7.6043,7.6425,7.696,7.806,7.7827,7.7445,7.8196,7.7244,7.569,7.4103,7.2016,0.0,0.0,6.615,6.5612,6.5709,6.7977,7.1217,7.5475,7.8698,8.2089,8.616,8.7336,8.8116,0.0,0.0,0.0,0.0,0.0,0.0,0.0,0.0,9.2185,9.226,9.2391,9.2822,9.3535,9.3573,9.3573,9.3573,9.2972,9.2559,9.2258,9.0869,9.0156,8.9968,8.9292,8.8992,8.8992,8.8841,0.0,8.8992,8.8691,8.8691,8.8804,8.8759,8.8797,8.8839,8.9098,8.9163,8.9175,0.0,0.0,0.0,0.0,0.0,0.0,0.0,3.8495,3.9482,4.1518,4.1666,4.1782,4.2209,4.2446,4.3267,0.0,0.0,0.0,0.0,0.0,0.0,0.0,0.0,0.0,5.317,5.4371,0.0,0.0,0.0,5.9363,6.0678,0.0,0.0,6.4707,6.6101,6.6969,6.7387,6.8367,6.8818,6.9036,6.987,6.9251,0.0,0.0,0.0,0.0,0.0,0.0,0.0,0.0,7.2977,7.5365,7.702,7.7447,7.7604,7.8752,7.9094,7.9282,8.0368,8.0363,8.006,7.9898,7.8344,7.6035,7.3155,0.0,0.0,0.0,6.4572,6.4756,6.5276,6.7588,0.0,7.5019,7.8055,8.1414,8.575,8.7109,0.0,8.9167,8.9356,0.0,0.0,0.0,0.0,0.0,0.0,9.2316,9.2786,9.318,9.3573,9.3986,9.3986,9.3986,9.3986,9.3573,9.316,9.2709,9.147,9.0644,9.0193,8.9367,8.8992,8.8992,8.8992,0.0,8.8992,8.8992,8.8992,8.8992,8.9081,8.9102,8.9122,8.9318,8.9438,8.9527,0.0,0.0,0.0,0.0,0.0,0.0,3.8209,3.8629,3.9692,4.2299,4.2456,4.2573,4.3441,4.2799,4.2967,0.0,0.0,0.0,0.0,0.0,0.0,0.0,0.0,0.0,0.0,0.0,0.0,0.0,0.0,0.0,0.0,0.0,0.0,0.0,0.0,0.0,6.4799,6.5737,6.6564,0.0,0.0,0.0,0.0,0.0,0.0,0.0,0.0,0.0,0.0,0.0,7.2409,7.4992,7.7638,7.8366,7.8598,8.0578,8.0801,8.0722,8.2027,8.2399,8.2127,8.13,7.9215,7.6297,7.2244,6.9241,0.0,0.0,6.3253,6.4229,6.5222,6.7229,7.0179,0.0,7.6994,7.9941,8.4805,8.6241,8.7324,0.0,8.9905,0.0,8.9721,0.0,0.0,0.0,0.0,0.0,9.2934,9.361,9.3986,9.3986,9.3986,9.3986,9.3986,9.3986,9.3648,9.2972,9.2146,9.132,9.0456,8.963,8.9142,8.8992,8.9179,0.0,0.0,8.9179,8.9142,8.8992,8.8992,8.9047,8.9102,8.9136,8.928,8.9423,0.0,0.0,0.0,0.0,0.0,0.0,3.7338,3.8267,3.9916,4.333,4.2844,4.2548,4.3491,4.3403,4.301,0.0,0.0,0.0,0.0,0.0,0.0,0.0,0.0,0.0,0.0,0.0,0.0,0.0,0.0,0.0,0.0,0.0,0.0,0.0,0.0,0.0,0.0,6.49,0.0,0.0,0.0,0.0,0.0,0.0,0.0,0.0,0.0,0.0,0.0,0.0,0.0,7.1625,7.4847,7.7299,7.9171,8.0083,0.0,0.0,8.2178,8.2309,8.2036,8.1256,7.9128,7.6171,7.2205,0.0,0.0,6.2315,6.2315,6.3413,6.5108,6.6739,0.0,0.0,0.0,7.8424,8.3956,8.5323,8.6341,8.777,0.0,0.0,9.1264,9.1996,0.0,0.0,0.0,0.0,9.3873,9.3948,9.3986,9.3986,9.3986,9.3986,9.3986,9.3986,9.3948,9.3873,9.3009,9.2183,9.1357,9.0494,8.9705,8.9029,8.978,0.0,0.0,8.978,8.9667,8.8992,8.8992,8.9064,8.9189,8.9189,8.928,8.9423,0.0,0.0,0.0,0.0,0.0,0.0,3.7909,3.8213,3.9467,4.3346,4.336,4.3188,4.3479,4.3504,4.3062,4.2093,0.0,0.0,0.0,0.0,0.0,0.0,0.0,0.0,0.0,0.0,0.0,5.1405,0.0,0.0,0.0,0.0,0.0,0.0,0.0,0.0,0.0,0.0,0.0,0.0,0.0,0.0,0.0,0.0,0.0,0.0,0.0,0.0,0.0,0.0,0.0,0.0,7.1331,7.3399,0.0,0.0,8.0002,8.0984,8.2671,8.3453,8.3528,8.221,7.9172,7.546,7.1484,0.0,6.3518,6.1306,6.1526,6.2633,6.4344,6.6001,6.8684,7.3457,0.0,0.0,8.1695,8.3493,8.5009,8.6937,8.8972,0.0,0.0,0.0,9.2859,0.0,0.0,0.0,9.3986,9.3986,9.3986,9.3986,9.3986,9.3986,9.3986,9.3986,9.3986,9.3986,9.3122,9.2521,9.2183,9.1357,9.0794,9.0531,9.0832,0.0,0.0,9.0081,8.9761,8.9157,8.9157,8.9119,8.9227,8.928,8.928,8.9318,0.0,0.0,0.0,0.0,0.0,3.4633,3.7717,3.8042,3.9183,4.2661,4.3133,4.3188,4.3202,4.2926,4.2473,4.1743,4.1668,0.0,0.0,0.0,0.0,0.0,0.0,0.0,0.0,0.0,4.9415,5.0804,5.1168,0.0,0.0,0.0,0.0,0.0,0.0,0.0,0.0,0.0,0.0,0.0,0.0,0.0,0.0,0.0,0.0,0.0,0.0,0.0,0.0,0.0,0.0,0.0,0.0,0.0,0.0,0.0,7.8787,8.0304,8.264,8.3688,8.3756,8.2361,7.8793,7.4667,0.0,0.0,6.2154,6.0695,6.0867,6.186,6.3809,6.5375,6.7719,7.201,7.3493,7.5589,7.9961,8.199,8.371,8.5461,0.0,8.9348,0.0,0.0,0.0,0.0,0.0,0.0,9.3986,9.3986,9.3986,9.3986,9.3986,9.3986,9.3986,9.3986,9.3986,9.3986,9.3385,9.2822,9.2333,9.1996,9.1582,9.1132,9.162,0.0,0.0,9.0494,8.9986,8.9119,8.9173,8.9227,8.9227,8.9371,8.9371,8.9371,0.0,0.0,0.0,0.0,0.0,0.0,3.6039,3.7679,3.9288,4.1182,4.1897,4.227,4.2389,4.1576,4.099,4.0941,4.0917,0.0,0.0,0.0,0.0,0.0,0.0,0.0,0.0,0.0,4.7425,4.8251,4.9114,4.9972,5.0892,5.2604,0.0,0.0,0.0,0.0,0.0,0.0,0.0,0.0,0.0,0.0,0.0,0.0,0.0,0.0,0.0,0.0,0.0,0.0,0.0,0.0,0.0,6.8097,6.9191,7.3941,7.7036,7.9429,8.1854,8.2399,8.2074,8.1293,7.7879,7.3673,0.0,0.0,6.2154,6.0608,6.0352,6.1172,6.3732,6.484,6.7025,7.2002,7.3419,7.5284,7.9253,8.1203,8.2473,0.0,0.0,8.7404,8.906,9.2147,9.3986,0.0,0.0,0.0,9.3986,9.3986,9.3986,9.3986,9.3986,9.3986,9.3986,9.3986,9.3986,9.3986,9.3986,9.3122,9.1545,9.2333,9.177,0.0,0.0,0.0,0.0,9.1132,9.0494,8.8992,8.9157,8.9318,8.9423,8.9423,8.9438,8.9692,0.0,0.0,0.0,0.0,0.0,0.0,3.6073,3.7281,3.8555,4.0347,4.1174,4.1829,4.242,4.1116,4.0419,4.1,4.039,0.0,0.0,0.0,0.0,0.0,0.0,0.0,0.0,0.0,4.6786,4.8176,4.8476,4.9333,5.0816,5.1398,5.281,5.4829,0.0,0.0,0.0,0.0,0.0,0.0,0.0,0.0,0.0,0.0,0.0,0.0,0.0,0.0,0.0,0.0,0.0,0.0,0.0,0.0,0.0,6.897,7.2482,7.6082,7.7912,7.8704,7.8652,7.729,7.3722,6.9778,6.6923,6.3041,5.9977,5.956,5.9502,6.0265,6.2795,6.4367,6.6739,7.1096,7.3074,7.5247,0.0,0.0,0.0,8.4782,8.7931,9.0625,0.0,0.0,9.3347,0.0,0.0,0.0,9.3986,9.3986,9.3986,9.3986,9.3986,9.3986,9.3986,9.3986,9.3986,9.3986,9.3986,9.3385,9.2333,9.3197,9.2972,0.0,0.0,0.0,0.0,9.162,9.0926,8.9984,8.9437,8.928,8.9423,8.9489,8.9527,8.9513,0.0,0.0,0.0,0.0,0.0,0.0,3.5234,3.6423,3.749,3.8613,3.9411,4.0186,4.1064,3.9819,3.9353,4.0503,3.9722,0.0,0.0,0.0,0.0,0.0,0.0,0.0,4.4759,4.4796,4.5923,4.8176,4.8176,4.922,5.1206,5.16,5.2522,5.3823,5.4186,0.0,0.0,0.0,0.0,0.0,0.0,0.0,5.7504,0.0,0.0,0.0,0.0,0.0,0.0,0.0,0.0,0.0,0.0,0.0,0.0,0.0,6.8578,7.198,7.444,7.5856,7.6196,7.4524,7.137,6.8028,6.5313,0.0,5.8863,5.87,5.888,5.9769,6.1895,6.4222,6.6897,7.0375,0.0,0.0,0.0,0.0,0.0,8.5361,0.0,0.0,0.0,9.2934,0.0,0.0,0.0,0.0,9.3986,9.3986,9.3986,9.3986,9.3986,9.3986,9.3927,9.3986,9.3986,9.3986,9.3986,9.3535,9.2747,9.361,9.3498,0.0,0.0,0.0,0.0,9.1808,9.1038,9.0323,8.9512,8.928,8.9423,8.9541,8.9541,8.9616,0.0,0.0,0.0,0.0,0.0,0.0,0.0,3.5262,3.631,3.6403,3.7053,3.787,3.8728,3.7907,3.7995,3.958,3.8841,0.0,0.0,0.0,0.0,0.0,0.0,0.0,4.3182,4.3257,4.4834,4.8025,4.8101,4.9377,5.1818,5.2704,5.2768,5.2258,5.3036,5.3051,0.0,0.0,0.0,0.0,5.6943,5.7122,0.0,0.0,0.0,0.0,0.0,0.0,0.0,0.0,0.0,0.0,0.0,0.0,0.0,0.0,0.0,0.0,0.0,7.3413,7.4257,7.2545,7.0223,6.7521,6.4381,0.0,0.0,5.8012,5.8498,5.954,6.1285,6.4229,6.724,0.0,0.0,0.0,0.0,8.0068,0.0,0.0,0.0,0.0,0.0,0.0,0.0,0.0,0.0,0.0,9.3986,9.3986,9.3986,9.3927,9.3986,9.3927,9.3709,9.3927,9.3948,9.3911,9.3948,9.3498,9.2671,9.3573,9.3498,0.0,0.0,0.0,0.0,9.1845,9.1019,9.0193,8.9495,8.9227,8.9423,8.9541,8.9642,8.9855,0.0,0.0,0.0,0.0,0.0,0.0,0.0,0.0,0.0,0.0,3.7183,3.7737,3.7962,3.7148,3.7204,0.0,0.0,0.0,0.0,0.0,0.0,0.0,0.0,0.0,4.228,4.2956,4.4336,4.6422,4.7003,4.8581,5.1049,5.1306,5.1676,5.222,5.2462,5.2541,0.0,0.0,0.0,0.0,5.4537,5.4868,0.0,0.0,0.0,0.0,5.8179,5.9019,0.0,0.0,0.0,0.0,0.0,0.0,0.0,0.0,6.3284,6.5126,6.5322,0.0,6.9208,6.7431,6.5105,6.2704,0.0,0.0,0.0,0.0,0.0,5.9081,6.1934,6.4083,6.6455,0.0,0.0,0.0,7.7244,0.0,0.0,0.0,0.0,0.0,0.0,0.0,0.0,0.0,0.0,9.3747,9.3625,9.3625,9.3563,9.3401,9.3563,9.3747,9.3927,9.3986,9.3648,9.3009,9.3685,9.3197,9.1808,9.331,9.3498,0.0,0.0,0.0,9.3573,9.2108,9.1357,9.1057,8.9611,8.9211,8.9423,8.9475,8.9591,8.9779,0.0,0.0,0.0,0.0,0.0,0.0,0.0,0.0,0.0,0.0,3.6281,3.6532,3.6566,3.608,3.6426,0.0,0.0,0.0,0.0,0.0,0.0,0.0,0.0,4.0816,4.1954,4.2495,4.4165,4.7015,4.7429,4.9122,5.1946,5.1977,5.2046,5.2083,5.145,5.1415,5.1906,0.0,0.0,0.0,5.3276,0.0,0.0,0.0,0.0,0.0,5.7373,5.8174,0.0,5.9288,5.9773,6.0127,0.0,0.0,0.0,0.0,6.1094,6.2657,6.2106,6.4642,6.7049,6.5658,6.3749,6.1802,6.0504,0.0,0.0,0.0,0.0,0.0,6.1713,0.0,0.0,0.0,0.0,0.0,0.0,0.0,0.0,0.0,0.0,0.0,0.0,0.0,0.0,0.0,0.0,9.3563,9.3501,9.3501,9.3438,9.3338,9.3438,9.3563,9.3649,9.3747,9.3297,9.2473,9.3455,9.3192,9.1992,9.3385,9.3723,0.0,0.0,0.0,9.3272,9.1582,9.0907,9.0794,8.948,8.9157,8.9318,8.9371,8.9489,8.9692,0.0,0.0,0.0,0.0,0.0,0.0,0.0,0.0,0.0,0.0,0.0,0.0,0.0,0.0,0.0,0.0,0.0,0.0,0.0,0.0,0.0,0.0,3.9626,4.0365,4.198,4.207,4.4003,4.7947,4.8239,4.9935,5.2924,5.3214,5.2875,5.1946,5.0476,5.0251,5.0978,5.1026,0.0,0.0,5.2526,0.0,0.0,0.0,0.0,0.0,0.0,0.0,0.0,5.8827,5.9235,5.9473,5.9134,0.0,0.0,0.0,0.0,0.0,6.061,6.328,6.5839,6.5023,6.3541,6.2089,6.1211,0.0,0.0,0.0,0.0,0.0,0.0,0.0,0.0,0.0,0.0,0.0,7.9838,8.3336,0.0,0.0,0.0,0.0,0.0,0.0,0.0,0.0,0.0,9.3438,9.3438,9.3438,9.3438,9.3438,9.3438,9.3375,9.3146,9.3375,9.3053,9.2194,9.3176,9.3237,9.2451,9.3492,9.3927,9.3889,0.0,0.0,9.2538,9.0962,9.0249,9.0061,8.933,8.9102,8.9227,8.9371,8.9438,8.9591,0.0,0.0,0.0,0.0,0.0,0.0,0.0,0.0,0.0,0.0,0.0,0.0,0.0,0.0,0.0,0.0,0.0,0.0,0.0,0.0,0.0,3.98,3.9674,4.0353,4.2058,4.2083,4.3502,4.6372,4.7674,4.9303,5.1322,5.2591,5.2849,5.2076,5.0505,4.991,5.0058,4.9543,4.9746,5.0545,5.1457,0.0,0.0,0.0,0.0,0.0,0.0,0.0,0.0,5.7251,5.8274,5.9242,5.7819,0.0,0.0,0.0,0.0,0.0,6.0493,6.1633,6.2514,6.2317,6.0988,5.9534,5.8678,0.0,0.0,0.0,0.0,0.0,0.0,0.0,0.0,0.0,0.0,0.0,0.0,0.0,0.0,0.0,0.0,9.1,9.0322,0.0,0.0,0.0,0.0,9.3211,9.3054,9.3054,9.3054,9.3054,9.3054,9.3054,9.3054,9.3375,9.3053,9.2194,9.309,9.3115,9.2292,9.3152,9.3563,9.3563,0.0,9.2965,9.218,9.1425,9.0659,8.9984,8.9273,8.9157,8.9371,8.9227,8.9438,8.9741,0.0,0.0,0.0,0.0,0.0,0.0,0.0,0.0,0.0,0.0,0.0,0.0,0.0,0.0,0.0,0.0,0.0,0.0,0.0,0.0,3.944,3.9829,4.0184,4.113,4.2812,4.285,4.4572,4.7994,4.9135,5.0576,5.2165,5.1957,5.1983,5.213,4.9561,4.8937,4.9868,4.9201,4.9365,5.0165,0.0,0.0,0.0,0.0,0.0,0.0,0.0,0.0,0.0,0.0,5.7104,5.8011,5.7242,0.0,0.0,0.0,0.0,0.0,5.8558,5.9523,6.052,6.0992,6.048,5.9852,5.9873,0.0,0.0,0.0,0.0,0.0,0.0,0.0,0.0,0.0,0.0,0.0,0.0,0.0,0.0,0.0,0.0,9.0659,9.0558,9.2268,0.0,0.0,0.0,0.0,9.2988,9.2988,9.2988,9.2988,9.2988,9.2988,9.2988,9.3119,9.2801,9.1944,9.2865,9.2953,9.2231,9.309,9.3563,9.355,0.0,9.1956,9.1568,9.0413,8.9722,8.9404,8.9142,8.9102,8.9211,8.9211,8.928,8.9438,0.0,0.0,0.0,0.0,0.0,0.0,0.0,0.0,0.0,0.0,0.0,0.0,0.0,0.0,0.0,0.0,0.0,0.0,0.0,3.8175,3.8988,3.9586,4.0518,4.2006,4.4058,4.407,4.5919,4.9692,5.087,5.2278,5.3795,5.192,5.1343,5.1827,4.8843,4.8294,4.9576,4.91,4.9365,5.0089,0.0,0.0,0.0,0.0,0.0,0.0,0.0,0.0,0.0,0.0,0.0,0.0,0.0,0.0,0.0,5.6428,5.6758,5.7319,5.7466,5.8395,5.9498,6.015,0.0,6.0179,0.0,0.0,0.0,0.0,0.0,0.0,0.0,0.0,0.0,0.0,0.0,0.0,0.0,0.0,0.0,0.0,0.0,0.0,0.0,9.2417,9.3211,9.3146,9.3054,9.2988,9.2988,9.2988,9.2988,9.2988,9.2988,9.2988,9.2988,9.2988,9.2653,9.2022,9.2784,9.2875,9.2405,9.3077,9.3438,9.3451,9.1833,9.1087,9.0909,8.9548,8.8953,8.8879,8.8936,8.8992,8.9047,8.9211,8.9211,8.9157,0.0,0.0,0.0,0.0,0.0,0.0,0.0,0.0,0.0,0.0,0.0,0.0,0.0,0.0,0.0,0.0,0.0,0.0,0.0,3.787,3.8743,3.871,4.0284,4.2669,4.5836,4.5833,4.7089,4.9701,5.2015,5.3912,5.5385,5.301,5.1569,5.0847,4.9155,4.8521,4.8699,4.8834,4.9365,5.0089,5.0274,0.0,0.0,0.0,0.0,0.0,0.0,0.0,0.0,0.0,0.0,0.0,0.0,0.0,5.8204,5.8127,5.8165,5.8357,5.9127,5.935,5.9418,5.9494,0.0,0.0,0.0,0.0,0.0,0.0,0.0,0.0,0.0,0.0,0.0,0.0,0.0,0.0,0.0,0.0,0.0,0.0,0.0,0.0,0.0,9.2689,9.3146,9.3054,9.2988,9.2988,9.2988,9.2988,9.2988,9.2988,9.2988,9.2988,9.2988,9.2988,9.2951,9.2914,9.2951,9.2951,9.2979,9.3016,9.3054,9.3016,9.2087,9.1232,9.0488,8.9783,8.9085,8.8554,8.8708,8.8879,8.9047,8.9318,8.9265,8.9047,0.0,0.0,0.0,0.0,0.0,0.0,0.0,0.0,0.0,0.0,0.0,0.0,0.0,0.0,0.0,0.0,0.0,0.0,0.0,3.6616,3.7659,3.8537,4.0223,4.2432,4.5179,4.6248,4.8456,5.1939,5.38,5.501,5.5535,5.2108,5.0365,5.0011,4.737,4.711,4.864,4.8251,4.8542,4.9353,5.0021,5.0183,0.0,0.0,0.0,0.0,0.0,0.0,0.0,0.0,5.4259,5.5395,5.5245,5.5878,5.6588,5.6092,5.6302,5.6742,5.7049,5.7866,5.8846,5.9881,0.0,0.0,0.0,0.0,0.0,0.0,0.0,0.0,0.0,0.0,0.0,0.0,0.0,0.0,0.0,0.0,0.0,0.0,0.0,0.0,0.0,9.2598,9.3054,9.2988,9.2988,9.2988,9.2988,9.2988,9.2988,9.2988,9.2988,9.2988,9.2988,9.2988,9.2988,9.2988,9.2988,9.3054,9.3082,9.3054,9.2756,9.23,9.1381,9.0526,8.9833,8.9075,8.8735,8.8708,8.8823,8.8936,8.8992,8.9102,8.9102,8.8992,0.0,0.0,0.0,0.0,0.0,0.0,0.0,0.0,0.0,0.0,0.0,0.0,0.0,0.0,0.0,0.0,0.0,0.0,3.5057,3.5818,3.6841,3.8137,3.98,4.1793,4.4233,4.6458,4.9303,5.286,5.4709,5.5463,5.516,5.1651,4.9868,4.9588,4.7133,4.7023,4.8666,4.8479,4.8542,4.8872,4.9639,4.9572,0.0,0.0,0.0,0.0,0.0,0.0,0.0,0.0,5.3067,5.4126,5.4398,5.5052,5.5703,5.5686,5.5857,5.6143,5.639,5.7052,5.8092,5.9754,0.0,0.0,0.0,0.0,0.0,0.0,0.0,0.0,0.0,0.0,0.0,0.0,0.0,0.0,0.0,8.8324,0.0,0.0,0.0,0.0,9.2022,9.2653,9.2988,9.2988,9.2988,9.2988,9.2988,9.2988,9.2988,9.2988,9.2988,9.2988,9.2988,9.2988,9.2988,9.2988,9.2728,9.2793,9.3146,9.2756,9.2347,9.1843,9.0637,8.9856,8.9386,8.8567,8.8414,8.8708,8.8936,8.8992,8.8992,8.8992,8.8992,8.8992,0.0,0.0,0.0,0.0,0.0,0.0,0.0,0.0,3.5623,3.5623,3.5547,0.0,0.0,0.0,0.0,0.0,0.0,0.0,3.4927,3.5704,3.6535,3.7279,3.8901,4.0915,4.3337,4.6638,4.9476,5.1935,5.4343,5.5093,5.4334,5.1977,5.0387,4.9566,4.8964,4.864,4.8662,4.967,4.9581,4.8834,4.9029,4.9075,4.8991,0.0,0.0,0.0,0.0,0.0,0.0,0.0,5.3123,5.3626,5.6165,5.6357,5.6011,5.7712,5.7574,5.7075,5.7848,5.744,5.7172,5.8897,0.0,0.0,0.0,0.0,0.0,0.0,0.0,0.0,0.0,0.0,0.0,0.0,0.0,0.0,8.813,8.8878,8.9607,9.0424,9.1205,9.2059,9.2914,9.2988,9.2988,9.2988,9.2988,9.2988,9.2988,9.2988,9.2988,9.2988,9.2988,9.2988,9.2988,9.2988,9.2988,9.2988,9.2096,9.2133,9.2951,9.2096,9.1688,9.1576,8.9979,8.931,8.9236,8.8418,8.8269,8.8495,8.8879,8.8992,8.8992,8.8992,8.8992,8.8992,0.0,0.0,0.0,0.0,0.0,0.0,0.0,0.0,3.5608,3.5608,3.5547,0.0,0.0,0.0,0.0,0.0,0.0,0.0,3.4964,3.5154,3.5889,3.7241,3.8818,4.054,4.2382,4.6757,5.0515,5.3658,5.4268,5.3928,5.2634,5.0274,4.9051,4.8881,4.8121,4.7757,4.7806,4.8783,4.8656,4.7922,4.9289,4.9453,4.8996,0.0,0.0,0.0,0.0,0.0,0.0,0.0,0.0,0.0,5.3874,5.4528,5.5006,5.6186,5.5874,5.5308,5.613,5.6098,0.0,5.9278,0.0,0.0,0.0,0.0,0.0,0.0,0.0,0.0,0.0,0.0,0.0,0.0,0.0,0.0,8.8926,8.925,8.9793,9.1167,9.1539,9.2059,9.2914,9.2988,9.2988,9.2988,9.2988,9.2988,9.2988,9.2988,9.2988,9.2988,9.2988,9.2988,9.2988,9.2393,9.2096,9.2096,9.1242,9.1279,9.2059,9.1242,9.0536,8.9979,8.9496,8.8976,8.8418,8.8282,8.8293,8.8414,8.8592,8.865,8.865,8.865,8.865,8.865,0.0,0.0,0.0,0.0,0.0,0.0,0.0,0.0,3.5643,3.5643,3.5584,3.5534,0.0,0.0,0.0,0.0,0.0,0.0,0.0,3.4907,3.5584,3.7241,3.8432,4.0466,4.3407,4.7297,5.0183,5.1931,5.284,5.2498,5.098,4.9897,4.9457,4.9485,4.9353,4.8954,4.8439,4.9022,4.8529,4.7517,4.8669,4.8998,4.8884,0.0,0.0,0.0,0.0,0.0,0.0,0.0,0.0,0.0,5.2372,5.3217,5.4084,5.4929,5.5001,5.5071,5.6213,5.6422,0.0,0.0,6.3009,0.0,0.0,0.0,0.0,0.0,0.0,0.0,0.0,0.0,0.0,0.0,0.0,0.0,0.0,8.941,9.0127,9.1093,9.1502,9.2059,9.2914,9.2691,9.2616,9.2951,9.2691,9.2468,9.2468,9.2171,9.2022,9.2022,9.2022,9.2022,9.2022,9.1502,9.1205,9.1205,9.0424,9.0276,9.0722,9.0239,8.9756,8.9273,8.8938,8.853,8.8084,8.8232,8.8293,8.8293,8.8473,8.8495,8.8495,8.8495,8.8495,8.8495,0.0,0.0,3.5706,3.5784,0.0,0.0,0.0,0.0,3.5704,3.5704,3.5659,3.5572,0.0,0.0,0.0,0.0,0.0,0.0,0.0,3.4886,3.5618,3.7241,3.8221,4.0966,4.5735,4.7972,4.8759,4.8101,5.0397,5.081,4.9415,5.0169,5.0711,5.0937,5.1654,5.1215,4.9879,4.9841,4.8932,4.7555,4.7656,4.8175,4.8808,4.8009,0.0,0.0,0.0,0.0,0.0,0.0,0.0,0.0,5.1612,5.2406,5.3238,5.4005,5.4748,5.5729,5.7225,0.0,0.0,0.0,0.0,0.0,0.0,0.0,0.0,0.0,0.0,0.0,0.0,0.0,0.0,0.0,0.0,0.0,0.0,8.9459,9.0424,9.0499,9.1205,9.2022,9.2802,9.2245,9.2096,9.2839,9.2133,9.1688,9.1576,9.0907,9.0499,9.0499,9.0499,9.0499,9.0499,9.0424,9.0387,9.0387,8.957,8.9198,8.9198,8.9198,8.9198,8.9161,8.8418,8.8084,8.8084,8.8232,8.8293,8.8293,8.8414,8.8473,8.8473,8.8473,8.8473,8.8473,0.0,0.0,3.5008,3.5668,0.0,0.0,0.0,0.0,0.0,0.0,0.0,0.0,0.0,0.0,0.0,0.0,0.0,0.0,0.0,3.5473,3.6222,3.7241,4.0478,4.3632,4.6636,4.7266,4.7484,4.7325,4.8377,4.8783,4.8566,4.8135,4.8993,5.09,5.0505,5.0147,4.9797,4.9208,4.8742,4.8401,4.8453,4.8972,4.9644,4.8872,4.9087,0.0,0.0,0.0,0.0,0.0,0.0,0.0,5.2112,5.2372,5.2384,5.3836,5.4411,5.4748,5.5619,5.7232,0.0,0.0,0.0,0.0,0.0,0.0,0.0,0.0,0.0,0.0,0.0,0.0,0.0,0.0,8.722,8.8517,8.9001,8.9347,8.9793,9.0424,9.1205,9.1762,9.1948,9.2431,9.2505,9.2022,9.1799,9.1428,9.0796,9.0573,9.0499,9.0499,9.0499,9.0499,9.0499,8.9867,8.957,8.9533,8.8716,8.8344,8.8344,8.8344,8.8344,8.8344,8.8158,8.8084,8.8084,8.8146,8.8146,8.8146,8.8208,8.8208,8.8208,8.8208,8.8208,8.8208,0.0,0.0,0.0,0.0,0.0,0.0,0.0,0.0,0.0,0.0,0.0,0.0,0.0,0.0,0.0,0.0,0.0,0.0,0.0,0.0,3.6939,3.8931,4.1769,4.4083,4.5772,4.6243,4.6271,4.5867,4.6252,4.6882,4.773,4.7778,4.8871,5.084,5.0929,5.0307,4.9201,4.8775,4.8412,4.806,4.806,4.8643,4.934,4.8504,4.8479,4.8871,4.8414,0.0,0.0,0.0,0.0,0.0,0.0,0.0,5.1913,5.2724,5.3527,5.4522,5.6064,0.0,0.0,6.6061,0.0,0.0,0.0,0.0,0.0,0.0,0.0,0.0,0.0,8.4325,8.5751,8.5914,8.7273,8.8381,8.8704,8.905,8.9459,8.9867,9.0313,9.0833,9.165,9.139,9.1353,9.1688,9.0982,9.0387,8.9942,8.957,8.9347,8.9347,8.9347,8.9347,8.9347,8.8938,8.8716,8.8716,8.8307,8.8084,8.8084,8.8084,8.8084,8.8084,8.8084,8.8084,8.8084,8.8084,8.8084,8.8084,8.8084,8.8084,8.8084,8.8084,8.8084,8.8084,0.0,0.0,0.0,0.0,0.0,0.0,0.0,0.0,0.0,0.0,0.0,0.0,0.0,0.0,0.0,0.0,0.0,0.0,0.0,0.0,0.0,4.054,4.222,4.3444,4.4271,4.503,4.5105,4.4524,4.4508,4.5553,0.0,0.0,4.939,5.1011,5.1669,5.0778,4.8758,4.8445,4.7969,4.7378,4.7264,4.782,4.8669,0.0,0.0,0.0,4.7707,4.8226,4.8973,4.972,0.0,0.0,0.0,0.0,5.1438,5.128,5.2577,5.4511,5.6491,0.0,6.3634,6.985,7.3495,0.0,7.6827,7.7485,7.859,8.1055,8.1543,8.1843,8.2623,8.4666,8.6124,8.5893,8.7213,8.8232,8.8084,8.8678,8.9087,8.9087,8.9198,8.983,9.1167,9.0202,8.9979,9.1205,9.0053,8.9236,8.9087,8.8455,8.8084,8.8084,8.8084,8.8084,8.8021,8.8021,8.8021,8.8021,8.8021,8.8021,8.8021,8.8084,8.801,8.7861,8.801,8.801,8.7898,8.8047,8.8084,8.8084,8.8084,8.8084,8.8084,8.8084,8.8084,8.8084,0.0,0.0,0.0,0.0,0.0,0.0,0.0,0.0,0.0,0.0,3.5496,3.543,0.0,3.5293,3.5277,3.5229,3.5145,3.5092,3.5092,0.0,0.0,3.9712,4.1343,4.2634,4.3444,4.3691,4.4082,4.4685,4.4096,0.0,0.0,0.0,0.0,5.1737,0.0,5.0522,4.9466,4.8094,4.7491,4.734,4.662,4.7327,0.0,0.0,0.0,0.0,0.0,0.0,0.0,4.9641,4.9959,0.0,0.0,0.0,5.0403,5.0304,5.2044,5.4051,5.4258,0.0,6.6598,0.0,7.4319,7.6036,0.0,0.0,7.859,0.0,8.144,8.1837,8.3372,8.4872,8.5856,8.5834,8.7092,8.8146,8.8084,8.8195,8.827,8.827,8.8864,8.9384,8.9607,9.0053,9.0127,8.9644,8.9421,8.9013,8.8307,8.8158,8.8084,8.8084,8.8084,8.8021,8.7794,8.7794,8.773,8.7563,8.773,8.7794,8.7895,8.8021,8.7675,8.7007,8.775,8.7675,8.7044,8.7787,8.8084,8.8084,8.8084,8.8084,8.8084,8.8084,8.8084,8.8084,0.0,0.0,0.0,0.0,0.0,0.0,0.0,0.0,0.0,0.0,0.0,3.5374,3.5277,3.5261,3.5245,3.519,3.5162,3.5529,3.6388,3.6972,3.8228,4.0287,4.1029,4.1769,4.2543,4.2686,4.3152,4.3981,4.3731,0.0,0.0,4.9905,5.0779,0.0,0.0,0.0,0.0,0.0,0.0,4.8098,4.7719,4.8313,0.0,0.0,0.0,0.0,0.0,0.0,0.0,0.0,0.0,4.9933,4.9933,0.0,0.0,0.0,5.1874,5.3898,5.7472,6.2402,6.7654,0.0,7.4041,7.5333,7.7426,7.8203,7.9003,8.087,8.1601,8.2369,8.3919,8.5073,8.5887,8.6311,8.7365,8.8084,8.8084,8.8084,8.8084,8.8084,8.8418,8.8727,8.9108,8.9071,8.897,8.9016,8.8572,8.8164,8.7794,8.7794,8.7794,8.7794,8.7794,8.773,8.7628,8.7628,8.7563,8.7497,8.7563,8.7628,8.7665,8.7858,8.7799,8.7527,8.7935,8.7861,8.7564,8.7935,8.8084,8.8084,8.8084,8.8084,8.8084,8.8084,8.8084,8.8084,0.0,0.0,0.0,0.0,0.0,0.0,0.0,0.0,0.0,0.0,0.0,3.5369,3.5207,0.0,0.0,0.0,3.5179,3.5643,3.6748,3.7141,3.8115,3.9995,4.0414,4.0829,4.1379,4.1431,4.2008,4.3062,4.3416,0.0,5.0816,5.1073,5.2278,0.0,5.2628,0.0,0.0,0.0,0.0,0.0,0.0,0.0,0.0,0.0,0.0,0.0,0.0,0.0,0.0,0.0,0.0,0.0,0.0,0.0,0.0,0.0,0.0,5.3997,0.0,0.0,6.7083,7.1363,7.3004,7.4226,0.0,0.0,7.9089,0.0,8.1681,8.2705,8.4249,8.5031,8.5715,8.6635,8.7279,8.7799,8.8047,8.8021,8.8021,8.8084,8.8021,8.8181,8.8646,8.81,8.7924,8.8421,8.7867,8.7497,8.7497,8.7497,8.7497,8.7497,8.7497,8.7497,8.7431,8.7365,8.7365,8.7365,8.7431,8.7431,8.7431,8.7665,8.7895,8.8021,8.8084,8.7973,8.7787,8.801,8.8084,8.8084,8.8084,8.8084,8.8084,8.8084,8.8084,8.8084,0.0,0.0,0.0,0.0,0.0,0.0,0.0,0.0,0.0,0.0,0.0,3.5369,3.5207,3.519,3.519,3.519,3.5145,3.5095,3.504,3.6439,3.736,3.7505,3.8945,0.0,3.9752,3.9801,4.0578,4.2159,4.3064,4.6016,5.0816,5.1607,5.3677,5.6726,5.5131,5.3088,5.0786,0.0,0.0,0.0,0.0,0.0,0.0,0.0,0.0,0.0,0.0,0.0,0.0,0.0,0.0,0.0,0.0,0.0,0.0,0.0,0.0,0.0,0.0,6.2071,6.4554,6.9434,7.1231,7.265,0.0,0.0,7.8364,8.045,8.1587,8.2648,8.4168,8.4406,8.4963,8.6561,8.6734,8.7005,8.7973,8.7958,8.7895,8.8084,8.7958,8.7831,8.7868,8.7665,8.7497,8.7571,8.7534,8.7497,8.7497,8.7497,8.7497,8.7497,8.7497,8.7431,8.7305,8.7132,8.6995,8.6995,8.7237,8.7305,8.7305,8.7665,8.7794,8.7831,8.8021,8.7638,8.6932,8.775,8.8084,8.8084,8.8084,8.8084,8.8084,8.8084,8.8084,8.8084,0.0,0.0,0.0,0.0,0.0,0.0,0.0,0.0,0.0,0.0,0.0,0.0,0.0,3.519,3.5212,3.5196,3.511,3.5267,3.5761,3.6765,3.7575,3.8137,3.9165,3.9924,4.0416,3.9927,4.0741,4.2912,4.2711,4.5423,5.0816,5.108,5.3037,5.6161,5.5061,5.4145,5.3331,5.202,0.0,0.0,0.0,0.0,0.0,0.0,0.0,0.0,0.0,0.0,0.0,0.0,0.0,0.0,0.0,0.0,0.0,0.0,0.0,0.0,0.0,0.0,6.414,6.7969,6.9828,7.1462,7.4137,7.6542,7.8416,7.9056,8.1177,8.2979,8.3358,8.3975,8.4866,8.6437,8.6671,8.6868,8.7618,8.7628,8.7628,8.773,8.7628,8.76,8.7505,8.7402,8.7335,8.72,8.72,8.72,8.72,8.72,8.72,8.72,8.72,8.7132,8.71,8.7031,8.6995,8.6995,8.7064,8.71,8.7169,8.7468,8.7563,8.7628,8.7958,8.7898,8.7638,8.7973,8.8084,8.8084,8.8084,8.8084,8.8084,8.8084,8.8084,8.8084,0.0,0.0,0.0,0.0,0.0,3.5509,3.5483,3.5495,3.5479,0.0,0.0,0.0,0.0,0.0,3.5179,3.5127,3.5057,3.5248,3.5799,3.6783,3.7612,3.8137,3.9142,3.99,4.0478,3.9902,4.0691,4.2923,4.266,4.5067,4.9958,5.0854,5.2698,5.5371,5.5131,5.5233,0.0,0.0,0.0,5.2815,0.0,0.0,5.2115,0.0,0.0,0.0,0.0,0.0,0.0,0.0,0.0,0.0,0.0,0.0,0.0,0.0,0.0,0.0,5.8239,0.0,0.0,6.6687,6.8141,6.9544,7.2993,7.5618,7.7436,7.8183,8.0691,8.2713,8.2557,8.3284,8.4471,8.6212,8.6222,8.6343,8.7349,8.7431,8.7357,8.7128,8.7025,8.6885,8.6495,8.6427,8.647,8.6591,8.6591,0.0,8.6995,8.6995,8.6995,8.6995,8.6995,8.6995,8.6995,8.6995,8.6995,8.6995,8.6995,8.6995,8.6995,8.7365,8.7497,8.7497,8.7958,8.8084,8.8084,8.8021,8.8021,8.8021,8.8021,8.8021,8.8021,8.8084,8.8084,8.8084,0.0,0.0,3.552,3.5522,3.5534,3.5559,3.556,3.5534,3.5532,3.5451,0.0,0.0,0.0,0.0,0.0,3.5058,3.5058,3.504,3.4984,3.6474,3.7354,3.7354,3.8785,3.9602,3.9639,3.9639,4.0403,4.2029,4.2881,4.4984,4.8251,0.0,5.2887,5.4543,5.5529,5.6398,5.7088,0.0,5.5971,5.582,0.0,5.3745,5.3905,0.0,0.0,0.0,5.4711,5.415,0.0,0.0,0.0,0.0,0.0,0.0,0.0,0.0,0.0,0.0,0.0,0.0,0.0,0.0,6.5966,6.6812,7.2283,7.4163,7.5351,7.77,8.0134,8.1784,8.1704,8.2311,8.3584,8.5835,8.5382,8.5419,8.7239,8.7328,8.7003,8.6389,8.6119,8.5758,8.4948,8.4742,8.4903,8.571,8.5747,8.6114,8.6885,8.6921,8.6921,8.6921,8.6958,8.6958,8.6958,8.6995,8.6995,8.6995,8.6995,8.6995,8.6995,8.7365,8.746,8.746,8.7884,8.801,8.801,8.7858,8.7831,8.7794,8.7794,8.7794,8.7794,8.8021,8.8084,8.8084,0.0,3.5493,3.5699,3.629,3.6353,3.6353,3.6367,3.6353,3.6325,0.0,0.0,0.0,0.0,0.0,0.0,3.6768,3.6767,3.6747,3.6689,3.7688,3.825,3.825,3.9157,3.9951,4.0553,4.0503,4.1267,4.2956,4.3182,4.4984,4.8213,0.0,0.0,0.0,5.4829,5.5832,5.7149,5.5806,0.0,0.0,5.542,5.5117,0.0,0.0,0.0,0.0,0.0,5.5852,0.0,0.0,5.3921,5.2263,0.0,0.0,0.0,0.0,0.0,0.0,5.6295,0.0,0.0,0.0,0.0,0.0,6.7067,6.9755,7.2466,7.4338,7.6661,7.8812,8.0318,8.1316,8.2375,8.3962,8.4036,8.4506,8.6029,8.5772,8.5447,8.5882,8.5404,8.4933,8.4676,8.4609,8.4682,0.0,8.4939,8.5013,8.527,8.527,8.527,8.527,8.582,8.6114,8.6114,8.6701,8.6995,8.6995,8.6995,8.6995,8.6995,8.6611,8.6487,8.6451,8.6121,8.599,8.6252,8.7539,8.7958,8.7794,8.7794,8.7794,8.7794,8.773,8.7794,8.7895,3.593,3.6007,3.6276,3.7084,3.7238,3.7238,3.7238,3.7224,3.7194,0.0,0.0,0.0,0.0,0.0,0.0,3.7527,3.7791,3.7788,3.7368,3.8121,3.872,3.8977,3.975,4.0528,4.1355,4.1304,4.198,4.3294,4.3294,0.0,0.0,0.0,0.0,0.0,5.3459,5.4458,0.0,0.0,0.0,0.0,5.7257,0.0,0.0,5.8178,5.8484,0.0,0.0,0.0,5.8274,5.8241,5.6368,0.0,0.0,0.0,0.0,0.0,0.0,0.0,0.0,0.0,0.0,0.0,0.0,0.0,6.5523,6.7592,6.985,7.2266,7.4661,7.681,7.8352,7.9349,8.0284,8.1259,8.1443,8.2426,8.4939,8.4609,8.4278,8.4756,8.4389,8.3985,8.3618,8.3581,8.3728,8.4058,8.4095,8.4242,8.4572,8.4609,8.4609,8.4609,8.5049,8.5306,8.5306,8.5747,8.6004,8.6004,8.6004,8.6004,8.6004,8.5728,8.5611,8.5574,8.5254,8.516,8.536,8.6486,8.692,8.6831,8.7164,8.7312,8.7349,8.7683,8.7794,8.7958,0.0,3.6776,3.7123,3.8007,3.8161,3.8161,3.8277,3.8232,3.8201,0.0,0.0,0.0,0.0,0.0,0.0,0.0,3.8626,3.8601,3.778,3.8282,3.8991,3.9712,4.0428,4.1191,4.1954,4.2066,4.2543,0.0,0.0,0.0,0.0,0.0,0.0,0.0,5.1954,5.2845,0.0,0.0,0.0,5.8627,5.9235,6.0144,0.0,0.0,6.2146,0.0,6.3084,6.2703,6.1761,6.0823,5.8351,0.0,0.0,0.0,0.0,0.0,5.3758,0.0,0.0,0.0,0.0,0.0,0.0,0.0,6.5459,6.6457,6.7418,7.0665,7.3124,7.4903,7.5948,7.6744,7.7408,7.799,7.8112,7.9617,8.3618,8.3581,8.3177,8.3287,8.3287,8.2994,8.226,8.2186,8.248,8.3214,8.3287,8.3581,8.4315,8.4315,8.4315,8.4315,8.4425,8.4462,8.4462,8.4572,8.4609,8.4609,8.4609,8.4609,8.4609,8.4698,8.4727,8.4727,8.4811,8.4838,8.4901,8.5027,8.5238,8.546,8.6201,8.646,8.6571,8.7439,8.7761,8.7824,3.6661,3.7276,3.8007,3.8892,3.9016,3.9192,3.9922,3.995,4.013,4.0784,4.0825,0.0,0.0,0.0,0.0,0.0,4.101,4.0609,4.0352,3.9792,3.9797,4.0615,4.0729,4.1191,4.1954,4.2693,4.3144,0.0,0.0,0.0,0.0,0.0,0.0,0.0,5.1865,5.2756,0.0,0.0,0.0,5.9282,5.8857,0.0,6.2749,6.2899,6.3389,6.399,6.4616,6.4308,6.3368,0.0,5.9673,5.7464,0.0,0.0,0.0,0.0,0.0,0.0,0.0,0.0,0.0,0.0,0.0,0.0,6.1032,6.2576,6.4672,6.7345,6.8269,6.9806,7.3774,7.4069,7.3901,7.4574,7.5212,7.7047,8.1122,8.1562,8.1709,8.237,8.2443,8.237,8.2223,8.2186,8.226,8.2406,8.2443,8.248,8.2663,8.2663,8.2663,8.2663,8.3324,8.3654,8.3654,8.4278,8.4609,8.4609,8.4609,8.4609,8.4572,8.3948,8.375,8.3807,8.3245,8.3076,8.3288,8.3386,8.4164,8.5423,8.5571,8.5645,8.5645,8.5667,8.5805,8.593,3.7324,3.8016,3.9016,4.0315,4.0499,4.0751,4.1596,4.1642,4.1742,4.2144,4.2488,0.0,0.0,0.0,0.0,0.0,0.0,0.0,0.0,0.0,4.1329,4.2121,4.2081,4.2618,4.382,4.3895,4.4083,0.0,0.0,0.0,0.0,0.0,0.0,0.0,0.0,0.0,0.0,0.0,5.751,6.0151,6.0602,0.0,6.5003,6.5003,6.5492,6.6203,6.6448,6.5945,6.4806,6.2582,6.0964,0.0,0.0,5.5572,5.5461,0.0,5.5278,5.5912,0.0,0.0,0.0,5.8769,0.0,0.0,0.0,6.0987,6.2634,6.5607,6.6197,6.7252,7.0827,7.0827,7.0643,7.1745,7.2239,7.3523,7.635,7.8148,7.9617,8.0865,8.0975,8.0975,8.0975,8.0975,8.0975,8.0975,8.0975,8.0975,8.0975,8.0975,8.1195,8.1599,8.2003,8.2406,8.281,8.3214,8.3398,8.3398,8.3398,8.3398,8.3398,8.2994,8.2839,8.2867,8.2463,8.2407,8.2659,8.2721,8.3325,8.4201,8.467,8.4818,8.4793,8.5201,8.5349,8.5386,3.8162,3.8831,3.9868,4.13,4.1651,4.2002,4.2846,4.2986,4.3159,4.3465,0.0,0.0,0.0,0.0,0.0,0.0,0.0,0.0,0.0,0.0,0.0,4.3363,4.3321,4.397,4.5435,4.4834,4.4909,4.5697,0.0,0.0,0.0,0.0,0.0,0.0,0.0,0.0,0.0,0.0,0.0,6.1319,0.0,6.4923,6.6575,6.6875,6.7471,6.8184,6.8197,6.7419,6.6081,6.3684,0.0,6.0846,5.7793,5.7089,0.0,0.0,0.0,0.0,0.0,0.0,0.0,0.0,0.0,5.8833,0.0,0.0,0.0,6.3947,6.4659,6.5469,6.754,6.739,6.7369,6.8715,6.9082,6.9743,7.1358,7.3964,0.0,7.8369,7.8883,7.9066,7.9066,7.9066,7.9286,7.9764,7.9507,7.9433,7.9764,7.98,8.0094,8.0755,8.0755,8.1085,8.1709,8.1893,8.1966,8.1966,8.2113,8.2186,8.2186,8.2186,8.2186,8.2251,8.2251,8.2316,8.2471,8.2696,8.2782,8.2941,8.3826,8.3989,8.3941,8.4768,8.5028,8.4966,3.9095,3.972,4.0406,4.0598,4.1217,4.1949,4.2793,4.3426,0.0,0.0,0.0,0.0,0.0,0.0,0.0,0.0,0.0,0.0,4.5423,0.0,0.0,4.3321,4.3294,4.3707,4.4646,4.4571,4.4909,4.5697,0.0,0.0,0.0,0.0,0.0,0.0,5.1607,0.0,0.0,0.0,5.974,0.0,6.5287,6.6003,0.0,6.716,6.8166,6.8945,6.9463,6.8613,6.6908,0.0,6.3437,6.1752,0.0,5.8381,0.0,0.0,0.0,0.0,0.0,0.0,0.0,0.0,5.8713,0.0,0.0,0.0,6.0635,6.0908,0.0,0.0,0.0,0.0,0.0,0.0,0.0,6.6402,6.8017,6.9155,7.0991,7.4037,7.5652,7.6533,7.6533,7.6533,7.7414,7.9617,7.8442,7.8222,7.969,7.98,7.9837,7.991,7.991,7.9984,8.0057,8.0791,8.1158,8.1158,8.1856,8.2186,8.2186,8.2186,8.2251,8.2343,8.2343,8.2508,8.2696,8.2843,8.2904,8.2904,8.3039,8.3015,8.3052,8.3041,8.3078,8.3163,3.9252,3.9785,4.0684,4.1716,4.2141,4.2794,4.4135,4.4954,0.0,0.0,0.0,0.0,0.0,0.0,0.0,0.0,0.0,0.0,0.0,0.0,0.0,0.0,0.0,0.0,4.6636,4.6186,4.6336,4.7162,4.7162,0.0,0.0,0.0,0.0,0.0,5.2559,0.0,5.7788,0.0,0.0,0.0,0.0,0.0,0.0,6.8863,7.0013,7.0256,7.0534,6.9458,6.7688,0.0,6.4299,0.0,0.0,0.0,0.0,0.0,0.0,0.0,0.0,0.0,0.0,0.0,0.0,0.0,0.0,0.0,5.9375,0.0,0.0,0.0,0.0,0.0,0.0,0.0,6.2865,6.3438,6.4714,6.5139,6.7212,7.2386,0.0,0.0,7.3266,7.3303,7.3964,7.5432,7.4918,7.5249,7.6864,7.7414,7.8112,7.9066,7.9103,7.9323,7.98,8.0131,8.0534,8.1012,8.1342,8.1746,8.2186,8.2186,8.2251,8.2316,8.2316,8.2316,8.2444,8.2534,8.2659,8.2782,8.2782,8.2843,8.2904,8.3001,8.2904,8.2904,3.9814,0.0,0.0,0.0,4.2891,4.3752,4.5454,4.6347,0.0,0.0,0.0,0.0,5.1216,5.0578,0.0,0.0,0.0,5.0703,0.0,0.0,4.8633,0.0,0.0,0.0,0.0,0.0,4.7327,4.8152,4.8152,0.0,0.0,0.0,0.0,0.0,0.0,5.6249,5.9703,0.0,0.0,6.472,6.6231,6.756,6.8866,7.0592,7.1429,7.1703,7.1479,7.0462,6.8803,6.6267,6.545,0.0,6.1752,0.0,0.0,0.0,0.0,0.0,5.9058,0.0,0.0,0.0,0.0,0.0,0.0,0.0,0.0,0.0,0.0,0.0,0.0,0.0,0.0,0.0,0.0,6.1459,0.0,6.2045,6.3768,0.0,0.0,0.0,0.0,7.044,7.0844,7.2092,7.1762,7.2422,7.4478,7.5322,7.6423,7.7855,7.8148,7.8516,7.9103,7.9323,7.9764,8.0351,8.0791,8.1305,8.1893,8.2113,8.2186,8.2186,8.2186,8.2186,8.2186,8.2343,8.2471,8.2696,8.2758,8.2843,8.2964,8.3061,8.2964,8.2904,4.122,4.1418,0.0,0.0,0.0,0.0,4.6194,0.0,0.0,0.0,0.0,0.0,0.0,0.0,0.0,0.0,0.0,5.4043,5.3128,0.0,5.0334,0.0,0.0,0.0,0.0,0.0,4.7199,4.8002,4.8002,0.0,0.0,0.0,0.0,0.0,0.0,5.8201,6.0755,6.3825,6.6555,6.8908,7.0358,7.2285,7.4131,0.0,7.2025,7.3187,7.2406,0.0,0.0,6.7914,6.7147,0.0,0.0,0.0,0.0,0.0,0.0,0.0,0.0,0.0,0.0,5.8621,0.0,0.0,0.0,0.0,5.8988,0.0,0.0,0.0,0.0,0.0,0.0,0.0,0.0,0.0,0.0,0.0,0.0,0.0,0.0,0.0,0.0,6.8274,6.8788,0.0,6.9926,7.0403,7.356,7.4515,7.5322,7.6166,7.6937,7.7378,7.7414,7.8222,7.8662,7.8699,8.0277,8.1012,8.1048,8.1819,8.2186,8.2186,8.2186,8.2186,8.2186,8.2343,8.2471,8.2696,8.2843,8.3024,8.3121,8.2819,8.2782,8.2904,0.0,0.0,0.0,0.0,0.0,0.0,0.0,4.806,0.0,0.0,0.0,0.0,0.0,0.0,5.7078,0.0,0.0,5.699,5.4934,5.475,0.0,0.0,0.0,5.0759,0.0,0.0,4.9043,4.8786,4.8786,0.0,0.0,0.0,0.0,0.0,0.0,5.8689,0.0,0.0,0.0,0.0,0.0,7.4232,7.6588,0.0,0.0,7.4078,7.3261,7.2444,0.0,6.9396,6.8396,6.7617,6.5557,6.4039,6.3057,6.2928,6.2003,0.0,0.0,0.0,6.1507,6.0614,0.0,0.0,0.0,0.0,0.0,0.0,0.0,0.0,0.0,0.0,0.0,0.0,0.0,0.0,0.0,0.0,5.7519,0.0,0.0,0.0,0.0,0.0,0.0,0.0,6.6035,0.0,7.0367,7.1798,7.3377,7.5249,7.6093,7.679,7.7304,7.7598,7.8038,7.8589,7.969,8.0461,8.1048,8.1819,8.2186,8.2186,8.2186,8.2186,8.2186,8.2251,8.2444,8.2696,8.2758,8.2941,8.318,8.3061,8.3061,8.3121,4.3326,0.0,0.0,0.0,0.0,0.0,0.0,0.0,0.0,0.0,5.4638,0.0,5.8419,0.0,5.9804,0.0,6.0491,5.9815,5.7525,5.7491,0.0,5.5581,5.4388,0.0,0.0,0.0,0.0,0.0,0.0,5.0514,0.0,0.0,0.0,0.0,0.0,0.0,6.2496,0.0,6.8287,0.0,0.0,7.5662,0.0,0.0,7.5476,7.555,0.0,7.3432,7.2674,7.0902,6.9776,6.8864,6.7086,6.5644,6.4583,6.4251,6.3437,6.2677,6.3014,6.3064,0.0,6.2181,6.1887,0.0,5.9942,0.0,0.0,0.0,0.0,0.0,0.0,0.0,0.0,0.0,0.0,0.0,0.0,5.5757,0.0,0.0,0.0,0.0,0.0,0.0,0.0,0.0,0.0,0.0,0.0,7.0165,7.2005,7.4081,7.5514,7.6447,7.6961,7.7194,7.7598,7.8148,7.8993,7.98,8.0608,8.1415,8.1929,8.2186,8.2186,8.2186,8.2186,8.2186,8.238,8.2696,8.2633,8.2819,8.3121,8.318,8.318,8.3121,0.0,0.0,0.0,0.0,4.5437,0.0,0.0,0.0,5.2726,0.0,5.7135,5.859,6.0812,6.1802,6.2598,6.3276,6.3272,0.0,6.0905,5.9965,0.0,0.0,5.6482,5.5883,5.6515,0.0,0.0,0.0,0.0,0.0,0.0,0.0,0.0,0.0,5.846,0.0,6.2043,6.8362,7.1628,7.2857,7.5716,7.679,7.6712,7.6618,7.7097,7.7562,7.5292,7.4421,7.4107,7.2371,7.1279,7.0369,6.8505,6.7487,6.674,6.5891,6.557,6.5506,6.5543,6.5441,6.4934,6.3392,0.0,0.0,0.0,0.0,6.2658,0.0,0.0,0.0,0.0,0.0,0.0,0.0,0.0,0.0,0.0,0.0,0.0,0.0,0.0,0.0,0.0,0.0,0.0,0.0,0.0,0.0,0.0,6.9399,7.1061,7.2779,7.5027,7.6295,7.6405,7.6961,7.7304,7.7341,7.8185,7.9029,7.98,8.0645,8.1452,8.2186,8.2186,8.2186,8.2186,8.2186,8.238,8.2633,8.2471,8.2597,8.2904,8.3121,8.3061,8.2964,4.6646,4.7322,4.8045,0.0,4.8796,4.9784,0.0,0.0,0.0,0.0,5.9083,6.1258,6.1764,6.4105,6.5459,6.4963,6.5407,0.0,0.0,0.0,0.0,6.1363,6.0273,5.9185,5.8145,5.6323,0.0,5.4642,0.0,0.0,5.3598,0.0,0.0,0.0,0.0,0.0,6.4249,6.8331,7.2258,7.5736,7.6934,7.774,0.0,0.0,7.7647,7.8149,7.5916,7.4774,7.4053,7.2872,7.1526,7.0216,6.9115,6.7826,6.6699,6.6478,6.5999,6.5617,6.614,6.5742,6.5338,6.5521,6.4824,6.3906,0.0,0.0,0.0,0.0,0.0,0.0,0.0,0.0,0.0,0.0,0.0,0.0,0.0,0.0,0.0,5.4363,0.0,0.0,0.0,0.0,0.0,0.0,0.0,0.0,6.4193,0.0,6.8409,7.1911,7.3185,7.4699,7.6544,7.6589,7.6935,7.756,7.8247,7.9029,7.98,8.0645,8.1452,8.2186,8.2186,8.2186,8.2186,8.2186,8.2316,8.2471,8.2407,8.2597,8.2904,8.288,8.288,8.2904,4.8219,0.0,0.0,5.1907,0.0,0.0,5.4486,0.0,0.0,5.91,6.2015,0.0,6.4181,6.6779,6.8274,6.7653,6.7648,0.0,0.0,0.0,0.0,6.4101,6.3482,6.239,6.0678,5.9085,0.0,5.7481,0.0,0.0,5.5106,0.0,0.0,0.0,0.0,6.176,6.4513,6.9582,7.3589,7.6675,7.7349,0.0,0.0,7.7488,7.7598,7.7855,7.664,7.5543,7.4457,7.3496,7.2171,7.0735,7.0184,6.9191,6.8088,6.7757,6.7316,6.6985,6.7043,6.6696,6.6366,6.6476,6.6072,6.5485,6.4787,6.4897,6.4897,0.0,0.0,0.0,0.0,0.0,0.0,0.0,0.0,0.0,0.0,0.0,0.0,0.0,5.3665,0.0,0.0,0.0,0.0,0.0,0.0,0.0,0.0,0.0,6.7455,7.0184,7.2425,7.409,7.5125,7.6006,7.6626,7.7105,7.7733,7.8662,7.98,8.0277,8.1122,8.2186,8.2186,8.2186,8.2186,8.2186,8.2316,8.2571,8.2597,8.2721,8.2782,8.2696,8.2782,8.2904,4.9678,0.0,0.0,0.0,0.0,0.0,0.0,5.8992,0.0,6.3125,0.0,6.6671,6.7002,6.9256,7.0592,7.0488,0.0,6.9237,6.9099,6.8287,6.7449,6.6489,6.6308,6.5434,6.3712,6.2123,0.0,0.0,0.0,0.0,0.0,0.0,0.0,0.0,0.0,0.0,0.0,7.1431,7.5121,7.6442,7.7289,7.7463,7.7304,7.7304,7.7304,7.7304,7.7304,7.641,7.5095,7.4286,7.2924,7.16,7.1377,7.077,6.9926,6.9155,6.8898,6.8715,6.7907,6.7687,6.7504,6.6843,6.7173,6.732,6.5925,6.6145,6.6439,6.5632,6.4684,6.3393,0.0,0.0,0.0,0.0,0.0,0.0,0.0,0.0,0.0,0.0,0.0,0.0,0.0,0.0,0.0,0.0,0.0,0.0,0.0,0.0,6.7061,6.8468,7.1969,7.3643,7.34,7.5215,7.6317,7.6648,7.7132,7.8185,7.9863,7.991,8.0755,8.2186,8.2186,8.2186,8.2186,8.2186,8.238,8.2696,8.2843,8.2782,8.2696,8.2696,8.2819,8.2964,0.0,0.0,0.0,0.0,0.0,6.1089,6.3804,6.3842,6.3728,6.4332,6.7454,6.9134,6.7889,6.9776,7.1182,7.1135,7.0891,0.0,0.0,0.0,0.0,6.8901,6.8763,6.7885,6.6173,6.4586,6.3062,0.0,0.0,0.0,0.0,0.0,0.0,0.0,0.0,0.0,6.8564,7.3056,0.0,7.6442,7.7072,7.7341,7.7304,7.7304,7.7304,7.7304,7.7304,7.6717,7.5823,7.5014,7.3692,7.2222,7.1505,7.077,6.9926,6.9155,6.8898,6.8715,6.7907,6.7687,6.765,6.7504,6.7577,6.7614,6.732,6.7393,6.7247,6.6476,6.5527,6.4177,6.1719,0.0,0.0,0.0,0.0,0.0,0.0,0.0,0.0,0.0,0.0,0.0,0.0,0.0,0.0,0.0,0.0,5.7295,0.0,0.0,6.4594,0.0,6.9793,7.1761,0.0,0.0,7.5773,7.7678,7.7629,7.8407,7.9989,8.0561,8.1305,8.2186,8.2186,8.2186,8.2186,8.2186,8.2316,8.2471,8.2696,8.2819,8.2843,8.2843,8.2964,8.3121,0.0,0.0,0.0,0.0,0.0,0.0,0.0,6.8147,0.0,6.8232,7.0548,7.1874,7.1041,7.2667,7.3803,7.3652,7.3178,7.3052,7.3342,7.2775,7.2076,7.1209,7.1102,0.0,6.792,6.6706,6.5308,6.364,0.0,0.0,0.0,0.0,0.0,5.7737,0.0,6.5422,0.0,0.0,0.0,7.636,7.7488,7.8222,7.8589,7.8589,7.8332,7.7965,7.7965,7.7451,7.6533,7.5322,7.4111,7.2973,7.2202,7.1651,7.1174,7.0403,7.0146,6.9963,6.9155,6.8935,6.8935,6.8935,6.8935,6.8825,6.8421,6.8311,6.7871,6.6113,6.5311,6.3872,6.042,5.7497,0.0,0.0,0.0,0.0,0.0,0.0,0.0,0.0,0.0,0.0,0.0,0.0,0.0,0.0,0.0,5.6772,5.9464,0.0,6.4261,0.0,0.0,0.0,7.393,0.0,7.5829,7.7385,7.7924,7.8872,8.0051,8.0735,8.148,8.2186,8.2251,8.2251,8.2186,8.238,8.2508,8.2571,8.288,8.3001,8.3061,8.3061,8.3121,8.318,0.0,5.8236,0.0,0.0,6.3958,0.0,6.9274,7.1723,7.2993,7.2351,7.3415,7.43,7.4238,7.5306,7.5931,7.5661,7.5123,7.494,7.5289,7.4699,7.3978,7.3239,7.3182,7.2059,6.9743,6.8715,6.732,0.0,0.0,0.0,0.0,0.0,0.0,0.0,0.0,0.0,0.0,0.0,7.5616,7.6497,7.8185,7.9213,7.98,7.9764,7.9333,7.8746,7.86,7.8086,7.7279,7.5726,7.4625,7.3817,7.301,7.2642,7.2349,7.1541,7.1321,7.1138,7.033,7.011,7.011,7.011,6.9963,6.9669,6.9045,6.8788,6.8,6.584,6.4819,6.3109,5.9175,5.7325,0.0,0.0,0.0,0.0,0.0,0.0,0.0,0.0,0.0,0.0,0.0,0.0,0.0,0.0,0.0,5.6588,5.9464,6.1422,6.3928,0.0,0.0,7.1292,7.3112,0.0,7.5995,7.7144,7.8278,7.9265,8.0051,8.1008,8.1755,8.2251,8.2343,8.2279,8.2186,8.2571,8.2696,8.2696,8.3061,8.318,8.318,8.318,8.318,8.318,0.0,0.0,0.0,0.0,0.0,0.0,0.0,7.4163,7.5417,7.4786,7.5254,7.5655,7.5601,7.5532,7.5383,7.5174,7.5252,7.5252,7.5153,7.5043,7.4969,7.4896,7.4779,7.3891,7.2202,7.066,6.8715,0.0,0.0,0.0,0.0,0.0,0.0,0.0,0.0,0.0,0.0,7.4294,7.646,7.7341,7.8993,7.9727,7.98,7.9572,7.9434,7.9288,7.8556,7.8263,7.7997,7.6472,7.5469,7.4661,7.3854,7.3083,7.2349,7.1541,7.1321,7.1138,7.033,7.011,7.011,7.011,6.9559,6.9009,6.8935,6.8348,6.754,6.6586,6.4359,6.1761,5.906,5.776,5.6405,0.0,0.0,0.0,0.0,0.0,0.0,0.0,0.0,0.0,0.0,5.2784,0.0,0.0,5.4069,5.5999,5.939,5.9797,6.1892,6.6091,6.7874,6.988,7.2258,7.3892,7.5861,7.8165,7.8713,7.9386,8.0235,8.166,8.2334,8.2407,8.2407,8.2279,8.2186,8.2571,8.2696,8.2696,8.3061,8.318,8.318,8.318,8.318,8.318,0.0,0.0,0.0,0.0,0.0,0.0,0.0,7.5847,7.7144,7.7385,7.7719,7.8071,7.8553,7.8338,7.8062,7.788,7.7941,7.7941,7.7756,7.7439,7.6925,7.641,7.5873,7.5042,7.3882,7.227,7.0474,0.0,0.0,0.0,0.0,0.0,0.0,0.0,0.0,6.9191,7.0778,7.4445,7.6617,7.7834,7.8967,8.0056,8.1065,8.1,8.0349,7.9434,7.927,7.8473,7.7458,7.6862,7.6252,7.5395,7.4111,7.3487,7.3046,7.2275,7.2018,7.1945,7.1537,7.1484,7.1541,7.1427,7.1207,7.0731,6.9741,6.9153,6.8328,6.6464,6.4367,6.2132,5.9683,5.8507,5.7442,0.0,0.0,0.0,0.0,0.0,0.0,0.0,0.0,0.0,0.0,0.0,0.0,0.0,0.0,5.6123,5.8067,6.0071,6.2595,6.5801,0.0,7.0127,7.349,7.4264,7.6084,7.9019,7.949,8.0184,8.1034,8.2117,8.2571,8.2571,8.2471,8.2279,8.2186,8.2571,8.2696,8.2696,8.3061,8.318,8.318,8.318,8.318,8.318,6.6837,0.0,6.824,0.0,7.2152,7.3462,7.5752,7.7488,7.8818,7.963,7.9741,7.9889,8.0221,7.9952,7.97,7.9471,7.9535,7.9471,7.9377,7.8995,7.8473,7.7887,7.7082,0.0,7.5348,7.352,7.1911,7.058,6.7268,0.0,0.0,0.0,0.0,0.0,6.8165,7.0454,7.2097,7.5274,7.7258,7.8442,7.95,8.0661,8.1818,8.1751,8.1057,8.0034,7.969,7.8775,7.7651,7.7176,7.6752,7.6106,7.4432,7.3772,7.3502,7.26,7.2563,7.271,7.2336,7.2446,7.2614,7.2277,7.2021,7.1509,7.012,6.9493,6.8575,6.6313,6.4637,6.293,6.0701,5.947,5.842,5.747,0.0,0.0,0.0,0.0,0.0,0.0,0.0,5.4503,5.4106,5.3739,0.0,0.0,0.0,0.0,5.8215,6.03,6.2826,0.0,0.0,0.0,7.375,7.4545,7.6344,7.9168,7.986,8.0554,8.1181,8.2216,8.2696,8.2758,8.2571,8.2444,8.238,8.2571,8.2633,8.2696,8.3001,8.3121,8.3121,8.318,8.318,8.318,7.0122,7.1045,7.2115,7.3795,7.6085,7.7747,7.7747,7.915,8.0517,8.1366,8.1129,8.0608,7.98,7.9406,7.9178,7.8976,7.9111,7.9178,7.8976,7.9111,7.9208,0.0,0.0,7.7604,7.6801,7.4431,7.2887,7.2299,0.0,0.0,6.6439,0.0,6.595,6.7283,7.0014,7.2431,7.454,7.7176,7.861,7.9318,8.0922,8.1579,8.1579,8.1445,8.1375,8.1157,7.9558,7.9111,7.8953,7.7348,7.6929,7.68,7.4968,7.4007,7.3324,7.2303,7.2692,7.3227,7.2267,7.2571,7.3009,7.2206,7.1404,7.0602,6.98,6.8997,6.7919,6.6167,6.5129,6.402,6.2295,6.0665,5.9124,5.7777,0.0,0.0,0.0,0.0,0.0,0.0,5.4883,5.4818,5.3329,5.3922,0.0,0.0,0.0,0.0,0.0,0.0,0.0,6.5979,6.7688,0.0,7.2184,7.4561,7.6642,7.8313,7.9564,8.0221,8.0295,8.1957,8.2758,8.2904,8.2758,8.2696,8.2696,8.2471,8.2471,8.2696,8.2843,8.2867,8.2964,8.3121,8.318,8.318,7.2573,7.3729,7.4918,7.6103,7.7329,7.8332,7.9044,8.0577,8.1617,8.1912,8.2605,8.292,8.2664,8.1474,8.0681,0.0,8.0681,8.0681,0.0,8.0203,8.0047,8.0047,7.8734,7.783,7.748,7.5625,7.4342,7.3727,0.0,0.0,0.0,6.7964,6.8783,6.9659,7.2851,7.4769,7.5858,7.788,7.9117,7.9674,8.0252,8.0866,8.1445,8.1445,8.0684,7.9667,7.9293,7.8383,7.7334,7.6825,7.6708,7.6526,7.5277,7.5024,7.4909,7.3946,7.397,7.4068,7.2959,7.2984,7.3009,7.2121,7.166,7.126,7.0459,6.9163,6.7665,6.5975,6.5431,6.4597,6.2404,6.1607,6.0557,5.8486,5.7956,0.0,0.0,0.0,0.0,0.0,5.5249,5.5257,5.4876,5.506,0.0,0.0,0.0,0.0,0.0,0.0,0.0,0.0,6.8025,0.0,7.3676,7.4545,7.6344,7.9131,7.9978,8.0992,8.2066,8.2621,8.2843,8.2904,8.2843,8.2782,8.2696,8.2721,8.2721,8.2696,8.3001,8.3024,8.2964,8.3121,8.318,8.318,7.4811,7.5885,7.6993,7.7861,7.8601,7.9406,8.0341,8.1586,8.2538,8.2831,8.3472,8.3881,8.3881,8.2865,0.0,8.1777,8.1741,8.1632,8.1341,8.0903,8.0681,8.0681,7.9444,7.854,7.8182,7.6584,0.0,7.4742,7.2692,7.0725,6.8976,7.0405,7.1526,7.2382,7.4925,7.6498,7.7289,7.8799,7.9602,7.9933,8.0223,8.0728,8.1305,8.1305,8.0688,7.9743,7.9158,7.8389,7.7413,7.6729,7.6548,7.6439,7.5798,7.5814,7.589,7.4633,7.4587,7.465,7.3307,7.3198,7.3161,7.2009,7.1656,7.1438,7.0738,6.9201,6.7728,6.6714,6.6025,6.5048,6.3237,6.244,6.1426,5.9667,5.8921,5.8391,5.7933,0.0,0.0,0.0,0.0,0.0,0.0,5.5868,5.6426,0.0,0.0,0.0,0.0,0.0,0.0,6.6581,6.9073,0.0,7.4347,7.5176,7.6865,7.9502,8.0481,8.1645,8.2904,8.2904,8.2964,8.3024,8.2964,8.2904,8.288,8.2843,8.2782,8.2819,8.3001,8.3024,8.2904,8.3024,8.3121,8.3121,7.6838,7.764,7.8377,0.0,8.0047,0.0,8.1652,8.2454,8.3256,8.4022,8.3918,8.3883,8.3883,8.3774,8.3338,8.2541,0.0,0.0,0.0,8.1201,8.1165,8.1128,8.0332,7.9535,7.8738,7.7181,7.6016,7.5415,7.4014,7.2824,7.1784,7.2896,7.407,7.5334,7.6498,7.7698,7.8847,7.9852,8.0146,8.0042,8.0802,8.1128,8.1128,8.1128,8.1092,8.0839,7.9318,7.8912,7.869,7.6958,7.6518,7.6621,7.6378,7.6445,7.6257,7.4602,7.474,7.5059,7.337,7.3414,7.3595,7.2001,7.1531,7.1313,7.0553,6.9249,6.8126,6.8017,6.6822,6.5482,6.4577,6.32,6.1897,6.1115,5.9559,5.8507,5.8573,0.0,0.0,0.0,0.0,0.0,0.0,5.6528,5.7381,0.0,0.0,0.0,0.0,0.0,6.4918,6.8107,7.065,7.2738,7.4458,7.629,7.8016,7.9688,8.1095,8.2126,8.2904,8.2904,8.3024,8.318,8.3024,8.3024,8.318,8.288,8.2819,8.2904,8.2904,8.2867,8.2904,8.2941,8.2978,8.2978,0.0,0.0,7.9953,8.0854,8.1587,8.2388,8.3259,8.4131,8.4715,8.4897,8.53,8.5518,8.5518,8.5443,8.5004,8.4207,8.3555,8.2867,8.207,8.1998,8.1744,8.1128,8.0332,7.9535,7.8738,7.7724,7.6596,7.5415,7.5143,7.4852,7.4478,7.5378,7.6185,7.7,7.8481,7.9315,7.968,8.0547,8.0839,8.0839,8.102,8.1128,8.1128,8.1128,8.073,8.0151,7.9752,7.9209,7.8626,7.7543,7.7217,7.7176,7.6492,7.6342,7.6306,7.5841,7.601,7.6039,7.4892,7.4682,7.4464,7.2834,7.1965,7.1313,7.0553,7.0082,6.9466,6.8271,6.7692,6.6822,6.4758,6.407,6.3164,6.119,5.9977,5.9108,5.8544,5.7007,0.0,0.0,5.6781,5.7131,5.7409,5.8731,5.9391,0.0,0.0,0.0,0.0,6.5294,6.7384,6.8993,7.1286,7.3425,7.531,7.6996,7.9018,8.1397,8.1768,8.2341,8.3121,8.3121,8.318,8.318,8.3121,8.318,8.318,8.3121,8.3001,8.2904,8.2904,8.2843,8.2832,8.346,8.3682,8.3756,7.9994,8.0651,8.145,8.232,8.2757,8.3338,8.4174,8.4682,8.5082,8.5446,8.5808,8.5987,8.5987,8.5948,8.5728,8.5293,8.4497,8.37,8.2867,8.2468,8.2106,8.1672,8.0875,8.0078,7.9281,7.881,7.8046,7.6917,7.6947,7.6947,7.6917,7.7352,7.7901,7.8629,7.9499,8.0114,8.0476,8.0911,8.1128,8.1128,8.1128,8.1128,8.1128,8.1128,8.0839,8.0404,8.0042,7.9607,7.9136,7.8303,7.805,7.7905,7.7108,7.6855,7.6782,7.6384,7.6378,7.6264,7.5334,7.5116,7.4826,7.3559,7.2653,7.1929,7.1531,7.0915,7.0154,6.9285,6.8525,6.751,6.5808,6.4903,6.3852,6.2186,6.0593,5.947,5.8999,5.7261,0.0,5.7255,5.7449,5.7875,5.893,5.981,6.0334,6.0309,6.1447,0.0,6.442,6.721,6.921,7.0182,7.2576,7.4716,7.6605,7.8775,8.0559,8.1991,8.2363,8.2771,8.318,8.318,8.318,8.318,8.318,8.318,8.318,8.318,8.3121,8.2904,8.2904,8.3004,8.3324,8.3667,8.4009,8.4378,8.1346,8.1998,8.2722,8.3519,8.3772,8.4098,8.4786,8.4968,8.5257,8.5837,8.5909,8.5873,8.5797,8.5797,8.5797,8.5797,8.5182,8.4458,8.3736,8.3012,8.2577,8.2468,8.1708,8.0911,8.0114,7.9861,7.939,7.8702,7.8702,7.8774,7.8883,7.8883,7.9318,8.0114,8.0223,8.0585,8.1128,8.1237,8.1237,8.1128,8.1128,8.1128,8.1128,8.1057,8.1021,8.0948,8.0261,8.0007,7.9899,7.9103,7.8813,7.8632,7.7796,7.7507,7.7326,7.6529,7.6275,7.613,7.5478,7.5225,7.4971,7.4283,7.3486,7.2871,7.2726,7.1675,7.0661,7.0444,6.9321,6.8054,6.7003,6.5663,6.4432,6.3345,6.139,5.9941,5.9796,0.0,5.7275,5.8805,5.8587,5.8942,6.0541,6.0847,6.1263,6.2108,6.2975,6.4479,6.6733,6.9155,7.0881,7.1835,7.4081,7.6243,7.8153,8.0666,8.2028,8.2177,8.2846,8.318,8.318,8.318,8.318,8.318,8.318,8.318,8.318,8.318,8.3024,8.2904,8.2904,8.33,8.3851,8.377,8.4257,8.4956,8.3084,8.3229,8.3555,8.4352,8.5076,8.5583,8.5692,8.6235,8.6452,8.5982,8.5909,8.5797,8.5608,8.5572,8.5495,8.5297,8.5189,8.4949,8.4569,8.4388,8.4026,8.3338,8.2541,8.1744,8.0947,7.9571,7.8847,7.8702,7.8702,7.9064,7.9716,7.9716,8.0151,8.0947,8.1599,8.1599,8.1165,8.1817,8.1708,8.1128,8.1128,8.1128,8.1092,8.0876,8.0803,8.0803,8.0512,8.0402,8.0294,7.9684,7.9503,7.9251,7.7909,7.7507,7.7326,7.6529,7.6275,7.6275,7.613,7.5623,7.508,7.4971,7.4319,7.3559,7.2871,7.2509,7.1965,7.0661,7.0191,6.9358,6.7221,6.6605,6.5736,6.3526,6.2331,6.139,6.0738,0.0,6.0211,6.057,6.1749,6.2656,6.3174,6.3779,6.427,6.4662,6.6003,6.7286,6.8458,7.0807,7.2826,7.4294,7.5359,7.7229,7.9889,8.1104,8.2171,8.2994,8.3143,8.318,8.318,8.318,8.318,8.318,8.3024,8.2964,8.2964,8.2964,8.2843,8.2758,8.2758,8.3113,8.3696,8.4264,8.497,8.5778,8.369,8.3799,8.4051,8.4998,8.5432,8.5685,8.5909,8.6525,8.681,8.6408,8.6733,8.6908,8.6636,8.624,8.5945,8.5866,8.547,8.5195,8.5142,8.4745,8.4166,8.3371,8.2575,8.1744,8.0985,8.0297,8.0006,8.0006,8.0006,8.0187,8.0585,8.0984,8.1382,8.178,8.2431,8.2612,8.225,8.203,8.1778,8.1417,8.0984,8.0803,8.073,8.0656,8.0656,8.0656,8.0508,8.0508,8.0472,8.0151,8.0116,7.9828,7.8456,7.7984,7.7767,7.6502,7.6208,7.6275,7.6275,7.6022,7.5768,7.5768,7.5152,7.4464,7.4102,7.3342,7.2509,7.1784,7.0987,6.9901,6.838,6.7366,6.6279,6.4722,6.3092,0.0,0.0,6.1353,6.1136,6.2078,6.284,6.3693,6.4785,6.5168,6.5624,6.6281,6.7433,6.864,7.0034,7.2034,7.4074,7.613,7.7476,7.8995,8.0764,8.1735,8.2449,8.2941,8.3001,8.3024,8.3024,8.3121,8.3121,8.3024,8.2964,8.2843,8.2819,8.2904,8.2782,8.2696,8.2696,8.305,8.3696,8.4345,8.5123,8.593,8.4176,8.4284,8.4499,8.5309,8.5742,8.5964,8.5793,8.6552,8.7017,8.6679,8.7184,8.7465,8.7259,8.6684,8.6253,8.5993,8.5419,8.5139,8.5339,8.4799,8.4191,8.3474,8.2499,8.1597,8.0839,8.0948,8.1128,8.1128,8.1238,8.131,8.1346,8.2033,8.2395,8.2431,8.3113,8.3182,8.2821,8.2238,8.1767,8.1371,8.076,8.0508,8.0508,8.0433,8.0433,8.0433,8.0358,8.0358,8.0358,8.0433,8.0508,8.022,7.8927,7.8421,7.8097,7.6473,7.6072,7.6208,7.6275,7.6275,7.6275,7.6275,7.5841,7.5334,7.5152,7.403,7.2943,7.2762,7.1603,7.0408,6.9611,6.8452,6.7257,6.6062,0.0,0.0,0.0,6.273,6.2657,6.3889,6.4359,6.5141,6.6489,6.6598,6.6983,6.7956,6.8893,7.012,7.186,7.3428,7.5359,7.7818,7.9412,8.0504,8.1192,8.2165,8.2633,8.2696,8.2782,8.2843,8.2843,8.3001,8.3001,8.2843,8.2843,8.2721,8.2633,8.2721,8.2721,8.2633,8.2633,8.305,8.3696,8.4162,8.4939,8.5894,8.5111,8.5111,8.5147,8.5182,8.6441,8.6944,8.5434,8.6513,8.7232,8.6513,8.6441,8.6397,8.6235,8.6117,8.5713,8.4835,8.4646,8.4773,8.49,8.4908,8.4708,8.434,8.2788,8.1597,8.0839,8.0948,8.1128,8.1128,8.1635,8.1922,8.1958,8.253,8.2737,8.2773,8.3564,8.3133,8.1838,8.2522,8.1946,8.058,8.0544,8.0508,8.0508,8.0283,8.0207,8.0207,7.9977,7.9899,7.9977,8.0358,8.0508,8.0294,7.9068,7.8562,7.8097,7.6473,7.6003,7.6072,7.6208,7.6275,7.6275,7.6275,7.6239,7.6022,7.5297,7.4464,7.3631,7.2871,7.2038,7.1205,7.0444,7.0191,6.9358,6.7076,0.0,0.0,6.4504,6.5482,6.6388,6.6533,6.7836,6.8839,6.9067,6.9044,6.937,7.047,7.1295,7.2582,7.4348,7.5409,7.7047,7.9543,8.0461,8.1029,8.1192,8.2002,8.2508,8.2696,8.2696,8.2696,8.2696,8.2696,8.2696,8.2696,8.2534,8.2407,8.2407,8.2407,8.2407,8.2407,8.2407,8.2886,8.3622,8.3537,8.4462,8.5783,8.4926,8.5606,8.5964,8.5159,8.5957,8.6316,8.5398,8.6153,8.6684,8.628,8.6675,8.6916,8.6633,8.6239,8.5763,8.5359,8.4895,8.4692,8.49,8.4738,8.4577,8.4181,8.2989,8.227,8.2094,8.1814,8.1887,8.2357,8.2102,8.2283,8.2788,8.3282,8.3564,8.3564,8.3732,8.3438,8.2864,8.2141,8.1419,8.0846,8.0345,8.013,8.013,8.0054,7.9977,7.9977,7.9899,7.9977,8.013,8.0283,8.0358,8.0328,7.936,7.8675,7.7883,7.63,7.5868,7.5901,7.6072,7.6208,7.6275,7.6275,7.6208,7.6,7.5711,7.4957,7.4132,7.3435,7.264,7.1765,7.0625,7.0372,6.9937,6.8525,0.0,6.751,6.7366,6.7474,6.7728,6.8235,6.8814,6.9455,6.9926,7.0397,7.1076,7.2096,7.2984,7.4055,7.5373,7.7353,7.8809,7.9764,8.1048,8.181,8.1838,8.2132,8.2316,8.238,8.2508,8.2471,8.2471,8.2633,8.2633,8.2471,8.2407,8.2343,8.2316,8.2343,8.2471,8.2571,8.2471,8.2655,8.3087,8.328,8.3801,8.4389,8.5109,8.6037,8.6585,8.5345,8.5857,8.6,8.5159,8.5661,8.6163,8.6,8.6501,8.674,8.6537,8.6109,8.5716,8.5466,8.4931,8.4692,8.4819,8.4692,8.4416,8.3868,8.2965,8.2613,8.2804,8.2166,8.2316,8.311,8.2494,8.2562,8.3354,8.3954,8.4155,8.4155,8.3825,8.3495,8.3172,8.1977,8.1184,8.0684,8.0399,8.0149,7.9899,7.9899,7.9899,7.9899,7.9899,8.0054,8.0207,8.0207,8.0179,7.9969,7.9178,7.8314,7.7343,7.6051,7.5836,7.6051,7.5973,7.6108,7.6208,7.6275,7.614,7.6003,7.6003,7.5289,7.4395,7.3704,7.3014,7.2106,7.0925,7.0734,7.048,6.9684,6.9104,6.885,6.914,6.8923,6.9032,6.9828,7.0154,7.0625,7.1422,7.1965,7.2645,7.3607,7.4342,7.5395,7.6642,7.8673,7.991,8.0167,8.1489,8.2186,8.2186,8.2186,8.2186,8.2186,8.2316,8.2343,8.2343,8.2508,8.2444,8.2343,8.2343,8.2316,8.2186,8.2316,8.2407,8.2571,8.2444,8.2444,8.2644,8.2941,8.3177,8.3508,8.5787,8.6394,8.668,8.593,8.643,8.6394,8.486,8.5288,8.5787,8.5787,8.5787,8.5787,8.5787,8.5787,8.5466,8.4681,8.461,8.461,8.461,8.461,8.4253,8.3432,8.2886,8.2535,8.2535,8.1937,8.209,8.2845,8.2613,8.2929,8.3717,8.4299,8.461,8.4574,8.3753,8.2933,8.2183,8.2183,8.1291,7.9971,8.0756,8.0613,7.9899,7.9899,7.9899,7.9899,7.9899,8.0054,8.0207,8.0207,7.982,7.9142,7.8351,7.7451,7.6517,7.5512,7.5906,7.6589,7.5943,7.5901,7.6072,7.6208,7.614,7.6003,7.6003,7.5289,7.4395,7.3604,7.2911,7.225,7.1456,7.1404,7.1277,7.0553,7.0408,7.0118,6.9321,6.9901,7.0698,7.1422,7.2219,7.3016,7.3849,7.3921,7.4247,7.5044,7.5406,7.6454,7.8516,7.936,8.0167,8.0975,8.1782,8.2186,8.2186,8.2186,8.2186,8.2186,8.2186,8.2186,8.2186,8.2186,8.2186,8.2186,8.2186,8.2186,8.2186,8.2186,8.2316,8.2407,8.2251,8.2316,8.2407,8.2251,8.27,8.3398,8.5894,8.7322,8.8178,8.6822,8.7215,8.7393,8.6358,8.5966,8.5787,8.5787,8.5324,8.4967,8.4967,8.4967,8.486,8.4646,8.461,8.461,8.461,8.461,8.4503,8.4253,8.4085,8.4058,8.4183,8.351,8.3474,8.4263,8.361,8.3753,8.4541,8.4549,8.4289,8.3718,8.2933,8.2148,8.1398,8.0827,8.0328,7.9935,8.0185,8.0113,7.9899,7.9899,7.9899,7.9899,7.9899,8.0054,8.0207,8.0207,8.0179,7.9897,7.8384,7.7232,7.6298,7.5439,7.5513,7.5872,7.5799,7.5798,7.5901,7.6003,7.5971,7.5832,7.5691,7.5299,7.4834,7.4187,7.3898,7.364,7.305,7.3038,7.2995,7.2907,7.2871,7.2762,7.2545,7.269,7.2943,7.316,7.3414,7.3667,7.3885,7.4428,7.4928,7.5313,7.6563,7.7596,7.8135,7.9617,8.0524,8.078,8.1717,8.2186,8.2186,8.2186,8.2186,8.2186,8.2186,8.2186,8.2186,8.2186,8.2186,8.2186,8.2186,8.2186,8.2186,8.2186,8.2316,8.2407,8.2251,8.2316,8.2407,8.2251,8.2333,8.2553,8.6787,8.8107,8.8892,8.7607,8.7786,8.7821,8.7036,8.6537,8.6251,8.6251,8.5573,8.5074,8.5074,8.4788,8.461,8.461,8.461,8.461,8.461,8.461,8.461,8.461,8.461,8.4692,8.4738,8.3951,8.3951,8.4738,8.3951,8.3951,8.4738,8.4692,8.4182,8.3361,8.254,8.1791,8.1077,8.0577,8.0185,7.9935,8.0256,8.0185,7.9899,7.9899,7.9899,7.9899,7.9899,8.0054,8.0207,8.013,7.9701,7.9099,7.7661,7.6833,7.6224,7.5439,7.5726,7.6265,7.6266,7.641,7.6625,7.6838,7.6481,7.6051,7.5621,7.5585,7.5367,7.4405,7.4225,7.4115,7.3532,7.356,7.3627,7.379,7.379,7.3856,7.3921,7.3921,7.403,7.4356,7.4392,7.45,7.4826,7.5587,7.627,7.6796,7.7771,7.8595,7.9019,8.01,8.0861,8.1322,8.1864,8.2186,8.2186,8.2186,8.2186,8.2186,8.2186,8.2186,8.2186,8.2186,8.2186,8.2186,8.2186,8.2186,8.2186,8.2186,8.2251,8.2279,8.2251,8.2251,8.2279,8.2251,8.2186,8.2186,8.8021,8.8663,8.8984,8.8321,8.8178,8.7964,8.7215,8.7072,8.7001,8.7001,8.6358,8.5859,8.5823,8.5145,8.4681,8.461,8.461,8.461,8.461,8.461,8.461,8.461,8.461,8.461,8.461,8.386,8.386,8.461,8.386,8.386,8.461,8.4538,8.4075,8.3254,8.2469,8.1684,8.1006,8.1006,8.0577,7.9971,8.0684,8.0542,7.9899,7.9899,7.9899,7.9899,7.9899,7.9977,8.013,7.9977,7.89,7.7473,7.683,7.6545,7.6331,7.5617,7.6402,7.7405,7.7056,7.7415,7.7807,7.8026,7.7451,7.6589,7.5765,7.5978,7.5867,7.444,7.4262,7.4189,7.3472,7.3467,7.364,7.391,7.391,7.3941,7.4073,7.4073,7.4326,7.505,7.5225,7.5515,7.6239,7.7036,7.7901,7.894,7.9049,7.9548,8.0612,8.0722,8.122,8.2084,8.2186,8.2186,8.2186,8.2186,8.2186,8.2186,8.2186,8.2186,8.2186,8.2186,8.2186,8.2186,8.2186,8.2186,8.2186,8.2186,8.2186,8.2186,8.2186,8.2186,8.2186,8.2186,8.2186,8.2186,8.7498,8.8224,8.8721,8.8773,8.8738,8.879,8.8821,8.825,8.7821,8.7821,8.7143,8.643,8.5859,8.5645,8.5205,8.4433,8.4361,8.4361,8.4361,8.4527,8.461,8.461,8.461,8.461,8.461,8.4431,8.4431,8.461,8.4431,8.4431,8.461,8.3967,8.3218,8.2433,8.1684,8.0899,8.0185,8.0185,8.0078,7.9935,8.0113,8.0078,7.9899,7.9899,7.9899,7.9899,7.9899,7.9899,7.9977,7.9899,7.9257,7.8401,7.8222,7.7758,7.7223,7.7045,7.7223,7.7548,7.7592,7.7625,7.7584,7.7807,7.7625,7.7119,7.6369,7.5796,7.5367,7.501,7.4939,7.4976,7.5012,7.5048,7.5118,7.543,7.5397,7.5397,7.5498,7.5566,7.5638,7.5783,7.5954,7.6094,7.6275,7.7036,7.7833,7.8698,7.9351,7.9786,8.0037,8.0964,8.1501,8.1715,8.2055,8.2186,8.2186,8.2186,8.2186,8.2186,8.2186,8.2186,8.2186,8.2186,8.2186,8.2186,8.2186,8.2186,8.2186,8.2186,8.2186,8.2186,8.2186,8.2186,8.2186,8.2186,8.2186,8.2186,8.7975,8.8294,8.8667,8.8757,8.881,8.8899,8.911,8.8841,8.8678,8.8678,8.7964,8.7322,8.6929,8.6251,8.5419,8.4349,8.4361,8.4361,8.4074,8.4445,8.4527,8.4445,8.4527,8.461,8.461,8.461,8.461,8.461,8.461,8.461,8.4574,8.3789,8.2968,8.2183,8.1434,8.0649,7.9899,7.9899,7.9899,7.9935,8.0328,8.0256,7.9935,8.0328,8.0221,7.9899,7.9899,7.9899,7.9899,7.9899,7.9364,7.8686,7.8686,7.8151,7.7508,7.7508,7.7758,7.8155,7.8305,7.8516,7.8727,7.8878,7.823,7.7294,7.6581,7.6081,7.5653,7.5296,7.5225,7.5189,7.5334,7.5334,7.5406,7.5762,7.5691,7.5691,7.5901,7.5901,7.5901,7.6003,7.6397,7.7112,7.7941,7.8412,7.8992,7.9788,8.0223,8.0476,8.0618,8.1259,8.1647,8.1751,8.2055,8.2186,8.2186,8.2186,8.2186,8.2186,8.2186,8.2186,8.2186,8.2186,8.2186,8.2186,8.2186,8.2186,8.2186,8.2186,8.2186,8.2186,8.2186,8.2186,8.2186,8.2186,8.2443,8.2737,8.8396,8.8522,8.8487,8.8487,8.8667,8.881,8.881,8.911,8.9198,8.9198,8.8627,8.8092,8.7843,8.6453,8.5073,8.4265,8.4361,8.4278,8.3904,8.4361,8.4445,8.4361,8.4527,8.461,8.461,8.461,8.461,8.461,8.461,8.461,8.4574,8.3789,8.304,8.2362,8.1612,8.0934,8.0292,8.0185,8.0185,8.0363,8.0863,8.0684,8.0185,8.0863,8.0613,7.9899,7.9899,7.9899,7.9899,7.9899,7.9471,7.89,7.89,7.8436,7.7901,7.7901,7.8365,7.8977,7.9128,7.9553,7.9899,8.013,7.8838,7.7366,7.6902,7.6474,7.601,7.5332,7.5225,7.5225,7.5225,7.5332,7.544,7.5514,7.5621,7.5657,7.5763,7.5727,7.5798,7.5865,7.6656,7.7914,7.9752,7.9897,8.0223,8.1056,8.1128,8.1163,8.1305,8.1478,8.1683,8.1818,8.2055,8.2186,8.2186,8.2186,8.2186,8.2186,8.2186,8.2186,8.2186,8.2186,8.2186,8.2186,8.2186,8.2186,8.2186,8.2186,8.2186,8.2186,8.2186,8.2186,8.2223,8.2333,8.2847,8.3324,8.7971,8.7971,8.8064,8.8213,8.8305,8.8396,8.8577,8.8846,8.8987,8.8987,8.888,8.8311,8.6959,8.5088,8.3823,8.3717,8.3682,8.3768,8.3904,8.4194,8.4361,8.4527,8.461,8.461,8.461,8.461,8.461,8.461,8.461,8.461,8.4574,8.3789,8.3325,8.3182,8.2397,8.2005,8.1862,8.122,8.1327,8.1826,8.1327,8.1041,8.0934,8.1041,8.0613,7.9899,7.9899,7.9899,7.9899,7.9899,7.9828,7.9757,7.9757,7.9685,7.9578,7.9578,7.965,7.9757,7.9757,7.9828,7.9899,7.9899,7.8686,7.7651,7.8222,7.683,7.5332,7.5225,7.5225,7.5225,7.5225,7.576,7.6083,7.5586,7.5942,7.6157,7.5586,7.555,7.555,7.555,7.6515,7.7914,7.9752,7.9897,8.0223,8.1056,8.1128,8.1092,8.1128,8.1305,8.1478,8.1683,8.1818,8.2018,8.2186,8.2186,8.2186,8.2186,8.2186,8.2186,8.2186,8.2186,8.2186,8.2186,8.2186,8.2186,8.2186,8.2186,8.2186,8.2186,8.2186,8.2186,8.226,8.2994,8.3324,8.3508,8.7878,8.7878,8.7971,8.8064,8.8121,8.8213,8.8396,8.8577,8.8757,8.8757,8.8757,8.8295,8.716,8.5497,8.4263,8.363,8.3854,8.3854,8.3559,8.4109,8.4361,8.4242,8.4445,8.461,8.461,8.461,8.461,8.461,8.461,8.461,8.4574,8.3789,8.3397,8.3361,8.254,8.2139,8.2058,8.1782,8.1818,8.2058,8.2246,8.2112,8.1755,8.2219,8.1898,8.1148,8.072,8.0292,7.9899,7.9899,7.9899,7.9899,7.9899,7.9899,7.9899,7.9899,7.9899,7.9899,7.9899,7.9899,7.9899,7.9899,7.9043,7.8258,7.8615,7.7544,7.6474,7.6474,7.6474,7.6474,7.6474,7.6759,7.6902,7.6693,7.6512,7.6259,7.6049,7.562,7.5728,7.6805,7.799,7.9211,8.0476,8.0585,8.073,8.1092,8.1128,8.1128,8.1128,8.1305,8.1445,8.1478,8.1751,8.1952,8.2055,8.2121,8.2186,8.2186,8.2186,8.2186,8.2186,8.2186,8.2186,8.2186,8.2186,8.2186,8.2186,8.2186,8.2186,8.2186,8.2186,8.248,8.292,8.3287,8.3985,8.4719]},{"header":{"parameterUnit":"m.s-1","parameterCategory":1,"la1":30.6,"la2":28.766,"lo1":-90.7593,"lo2":-88.6598,"dy":0.0162,"dx":0.0183,"nx":116,"ny":114,"refTime":"2024-04-20T00:00:00:Z","depth":0,"parameterNumber":3,"parameterNumberName":"V-component_of_WINDS"},"data":[0.0,0.0,0.0,0.0,0.0,0.0,0.0,0.0,0.0,0.0,0.0,0.0,0.0,0.0,0.0,0.0,0.0,0.0,0.0,0.0,0.0,0.0,0.0,0.0,0.0,0.0,0.0,0.0,0.0,0.0,0.0,0.0,0.0,0.0,0.0,0.0,0.0,0.0,0.0,0.0,0.0,0.0,0.0,0.0,0.0,0.0,0.0,0.0,0.0,0.0,0.0,0.0,0.0,0.0,0.0,0.0,0.0,0.0,0.0,0.0,0.0,0.0,0.0,0.0,0.0,0.0,0.0,0.0,0.0,0.0,0.0,0.0,0.0,0.0,0.0,0.0,0.0,0.0,0.0,0.0,0.0,0.0,0.0,0.0,0.0,0.0,0.0,0.0,0.0,0.0,0.0,0.0,0.0,0.0,0.0,0.0,0.0,0.0,0.0,0.0,0.0,0.0,0.0,0.0,0.0,0.0,0.0,0.0,0.0,0.0,0.0,0.0,0.0,0.0,0.0,0.0,0.0,0.0,0.0,0.0,0.0,0.0,0.0,0.0,0.0,0.0,0.0,0.0,0.0,0.0,0.0,0.0,0.0,0.0,0.0,0.0,0.0,0.0,0.0,0.0,0.0,0.0,0.0,0.0,0.0,0.0,0.0,0.0,0.0,0.0,0.0,0.0,0.0,0.0,0.0,0.0,0.0,0.0,0.0,0.0,0.0,0.0,0.0,0.0,0.0,0.0,0.0,0.0,0.0,0.0,0.0,0.0,0.0,0.0,0.0,0.0,0.0,0.0,0.0,0.0,0.0,0.0,0.0,0.0,0.0,0.0,0.0,0.0,0.0,0.0,0.0,0.0,0.0,0.0,0.0,0.0,0.0,0.0,0.0,0.0,0.0,0.0,0.0,0.0,0.0,0.0,0.0,0.0,0.0,0.0,0.0,0.0,0.0,0.0,0.0,0.0,0.0,0.0,0.0,0.0,0.0,0.0,0.0,0.0,0.0,0.0,0.0,0.0,0.0,0.0,0.0,0.0,0.0,0.0,0.0,0.0,0.0,0.0,0.0,0.0,0.0,0.0,0.0,0.0,0.0,0.0,0.0,0.0,0.0,0.0,0.0,0.0,0.0,0.0,0.0,0.0,0.0,0.0,0.0,0.0,0.0,0.0,0.0,0.0,0.0,0.0,0.0,0.0,0.0,0.0,0.0,0.0,0.0,0.0,0.0,0.0,0.0,0.0,0.0,0.0,0.0,0.0,0.0,0.0,0.0,0.0,0.0,0.0,0.0,0.0,0.0,0.0,0.0,0.0,0.0,0.0,0.0,0.0,0.0,0.0,0.0,0.0,0.0,0.0,0.0,0.0,0.0,0.0,0.0,0.0,0.0,0.0,0.0,0.0,0.0,0.0,0.0,0.0,0.0,0.0,0.0,0.0,0.0,0.0,0.0,0.0,0.0,0.0,0.0,0.0,0.0,0.0,0.0,0.0,0.0,0.0,0.0,0.0,0.0,0.0,0.0,0.0,0.0,0.0,0.0,0.0,0.0,0.0,0.0,0.0,0.0,0.0,0.0,0.0,0.0,0.0,0.0,0.0,0.0,0.0,0.0,0.0,0.0,0.0,0.0,0.0,0.0,0.0,0.0,0.0,0.0,0.0,0.0,0.0,0.0,0.0,0.0,0.0,0.0,0.0,0.0,0.0,0.0,0.0,0.0,0.0,0.0,0.0,0.0,0.0,0.0,0.0,0.0,0.0,0.0,0.0,0.0,0.0,0.0,0.0,0.0,0.0,0.0,0.0,0.0,0.0,0.0,0.0,0.0,0.0,0.0,0.0,0.0,0.0,0.0,0.0,0.0,0.0,0.0,0.0,0.0,0.0,0.0,0.0,0.0,0.0,0.0,0.0,0.0,0.0,0.0,0.0,0.0,0.0,0.0,0.0,0.0,0.0,0.0,0.0,0.0,0.0,0.0,0.0,0.0,0.0,0.0,0.0,0.0,0.0,0.0,0.0,0.0,0.0,0.0,0.0,0.0,0.0,0.0,0.0,0.0,0.0,0.0,0.0,0.0,0.0,0.0,0.0,0.0,0.0,0.0,0.0,0.0,0.0,0.0,0.0,0.0,0.0,0.0,0.0,0.0,0.0,0.0,0.0,0.0,0.0,0.0,0.0,0.0,0.0,0.0,0.0,0.0,0.0,0.0,0.0,0.0,0.0,0.0,0.0,0.0,0.0,0.0,0.0,0.0,0.0,0.0,0.0,0.0,0.0,0.0,0.0,0.0,0.0,0.0,0.0,0.0,0.0,0.0,0.0,0.0,0.0,0.0,0.0,0.0,0.0,0.0,0.0,0.0,0.0,0.0,0.0,0.0,0.0,0.0,0.0,0.0,0.0,0.0,0.0,0.0,0.0,0.0,0.0,0.0,0.0,0.0,0.0,0.0,0.0,0.0,0.0,0.0,0.0,0.0,0.0,0.0,0.0,0.0,0.0,0.0,0.0,0.0,0.0,0.0,0.0,0.0,0.0,0.0,0.0,0.0,0.0,0.0,0.0,0.0,0.0,0.0,0.0,0.0,0.0,0.0,0.0,0.0,0.0,0.0,0.0,0.0,0.0,0.0,0.0,0.0,0.0,0.0,0.0,0.0,0.0,0.0,0.0,0.0,0.0,0.0,0.0,0.0,0.0,0.0,0.0,0.0,0.0,0.0,0.0,0.0,0.0,0.0,0.0,0.0,0.0,0.0,0.0,0.0,0.0,0.0,0.0,0.0,0.0,0.0,0.0,0.0,0.0,0.0,0.0,0.0,0.0,0.0,0.0,0.0,0.0,0.0,0.0,0.0,0.0,0.0,0.0,0.0,0.0,0.0,0.0,0.0,0.0,0.0,0.0,0.0,0.0,0.0,0.0,0.0,0.0,0.0,0.0,0.0,0.0,0.0,0.0,0.0,0.0,0.0,0.0,0.0,0.0,0.0,0.0,0.0,0.0,0.0,0.0,0.0,0.0,0.0,0.0,0.0,0.0,0.0,0.0,0.0,0.0,0.0,0.0,0.0,0.0,0.0,0.0,0.0,0.0,0.0,0.0,0.0,0.0,0.0,0.0,0.0,0.0,0.0,0.0,0.0,0.0,0.0,0.0,0.0,0.0,0.0,0.0,0.0,0.0,0.0,0.0,0.0,0.0,0.0,0.0,0.0,0.0,0.0,0.0,0.0,0.0,0.0,0.0,0.0,0.0,0.0,0.0,0.0,0.0,0.0,0.0,0.0,0.0,0.0,0.0,0.0,0.0,0.0,0.0,0.0,0.0,0.0,0.0,0.0,0.0,0.0,0.0,0.0,0.0,0.0,0.0,0.0,0.0,0.0,0.0,0.0,0.0,0.0,0.0,0.0,0.0,0.0,0.0,0.0,0.0,0.0,0.0,0.0,0.0,0.0,0.0,0.0,0.0,0.0,0.0,0.0,0.0,0.0,0.0,0.0,0.0,0.0,0.0,0.0,0.0,0.0,0.0,0.0,0.0,0.0,0.0,0.0,0.0,0.0,0.0,0.0,0.0,0.0,0.0,0.0,0.0,0.0,0.0,0.0,0.0,0.0,0.0,0.0,0.0,0.0,0.0,0.0,0.0,0.0,0.0,0.0,0.0,0.0,0.0,0.0,0.0,0.0,0.0,0.0,0.0,0.0,0.0,0.0,0.0,0.0,0.0,0.0,0.0,0.0,0.0,0.0,0.0,0.0,0.0,0.0,0.0,0.0,0.0,0.0,0.0,0.0,0.0,0.0,0.0,0.0,0.0,0.0,0.0,0.0,0.0,0.0,0.0,0.0,0.0,0.0,0.0,0.0,0.0,0.0,0.0,0.0,0.0,0.0,0.0,0.0,0.0,0.0,0.0,0.0,0.0,0.0,0.0,0.0,0.0,0.0,0.0,0.0,0.0,0.0,0.0,0.0,0.0,0.0,0.0,0.0,0.0,0.0,0.0,0.0,0.0,0.0,0.0,0.0,0.0,0.0,0.0,0.0,0.0,0.0,0.0,0.0,0.0,0.0,0.0,0.0,0.0,0.0,0.0,0.0,0.0,0.0,0.0,0.0,0.0,0.0,0.0,0.0,0.0,0.0,0.0,0.0,0.0,0.0,0.0,0.0,0.0,0.0,0.0,0.0,0.0,0.0,0.0,0.0,0.0,0.0,0.0,0.0,0.0,0.0,0.0,0.0,0.0,0.0,0.0,0.0,0.0,0.0,0.0,0.0,0.0,0.0,0.0,0.0,0.0,0.0,0.0,0.0,0.0,0.0,0.0,0.0,0.0,0.0,0.0,0.0,0.0,0.0,0.0,0.0,0.0,0.0,0.0,0.0,0.0,0.0,0.0,0.0,0.0,0.0,0.0,0.0,0.0,0.0,0.0,0.0,0.0,0.0,0.0,0.0,0.0,0.0,0.0,0.0,0.0,0.0,0.0,0.0,0.0,0.0,0.0,0.0,0.0,0.0,0.0,0.0,0.0,0.0,0.0,0.0,0.0,0.0,0.0,0.0,0.0,0.0,0.0,0.0,0.0,0.0,0.0,0.0,0.0,0.0,0.0,0.0,0.0,0.0,0.0,0.0,0.0,0.0,0.0,0.0,0.0,0.0,0.0,0.0,0.0,0.0,0.0,0.0,0.0,0.0,0.0,0.0,0.0,0.0,0.0,0.0,0.0,0.0,0.0,0.0,0.0,0.0,0.0,0.0,0.0,0.0,0.0,0.0,0.0,0.0,0.0,0.0,0.0,0.0,0.0,0.0,0.0,0.0,0.0,0.0,0.0,0.0,0.0,0.0,0.0,0.0,0.0,0.0,0.0,0.0,0.0,0.0,0.0,0.0,0.0,0.0,0.0,0.0,0.0,0.0,0.0,0.0,0.0,0.0,0.0,0.0,0.0,0.0,0.0,0.0,0.0,0.0,0.0,0.0,0.0,0.0,0.0,0.0,0.0,0.0,0.0,0.0,0.0,0.0,0.0,0.0,0.0,0.0,0.0,0.0,0.0,0.0,0.0,0.0,0.0,0.0,0.0,0.0,0.0,0.0,0.0,0.0,0.0,0.0,0.0,0.0,0.0,0.0,0.0,0.0,0.0,0.0,0.0,0.0,0.0,0.0,0.0,0.0,0.0,0.0,0.0,0.0,0.0,0.0,0.0,0.0,0.0,0.0,0.0,0.0,0.0,0.0,0.0,0.0,0.0,0.0,0.0,0.0,0.0,0.0,0.0,0.0,0.0,0.0,0.0,0.0,0.0,0.0,0.0,0.0,0.0,0.0,0.0,0.0,0.0,0.0,0.0,0.0,0.0,0.0,0.0,0.0,0.0,0.0,0.0,0.0,0.0,0.0,0.0,0.0,0.0,0.0,0.0,0.0,0.0,0.0,0.0,0.0,0.0,0.0,0.0,0.0,0.0,0.0,0.0,0.0,0.0,0.0,0.0,0.0,0.0,0.0,0.0,0.0,0.0,0.0,0.0,0.0,0.0,0.0,0.0,0.0,0.0,0.0,0.0,0.0,0.0,0.0,0.0,0.0,0.0,0.0,0.0,0.0,0.0,0.0,0.0,0.0,0.0,0.0,0.0,0.0,0.0,0.0,0.0,0.0,0.0,0.0,0.0,0.0,0.0,0.0,0.0,0.0,0.0,0.0,0.0,0.0,0.0,0.0,0.0,0.0,0.0,0.0,0.0,0.0,0.0,0.0,0.0,0.0,0.0,0.0,0.0,0.0,0.0,0.0,0.0,0.0,0.0,0.0,0.0,0.0,0.0,0.0,0.0,0.0,0.0,0.0,0.0,0.0,0.0,0.0,0.0,0.0,0.0,0.0,0.0,0.0,0.0,0.0,0.0,0.0,0.0,0.0,0.0,0.0,0.0,0.0,0.0,0.0,0.0,0.0,0.0,0.0,0.0,0.0,0.0,0.0,0.0,0.0,0.0,0.0,0.0,0.0,0.0,0.0,0.0,0.0,0.0,0.0,0.0,0.0,0.0,0.0,0.0,0.0,0.0,0.0,0.0,0.0,0.0,0.0,0.0,0.0,0.0,0.0,0.0,0.0,0.0,0.0,0.0,0.0,0.0,0.0,0.0,0.0,0.0,0.0,0.0,0.3889,0.0,0.0,0.0,0.0,0.0,0.0,0.0,0.0,0.0,0.0,0.0,0.0,0.0,0.0,0.0,0.0,0.0,0.0,0.0,0.0,0.0,0.0,0.0,0.0,0.2753,0.2702,0.2805,0.2792,0.2822,0.2999,0.0,0.0,0.0,0.0,0.0,0.3249,0.3527,0.3632,0.3632,0.4359,0.4876,0.5242,0.5613,0.5705,0.5463,0.0,0.0,0.0,0.0,0.0,0.0,0.0,0.0,0.0,0.0,0.0,0.0,0.0,0.0,0.0,0.0,0.0,0.0,0.0,0.0,0.0,0.0,0.0,0.0,0.0,0.0,0.0,0.0,0.0,0.0,0.0,0.0,0.0,0.0,0.0,0.0,0.0,0.0,0.0,0.0,0.0,0.0,0.0,0.0,0.0,0.0,0.0,0.0,0.0,0.0,0.0,0.0,0.0,0.0,0.0,0.0,0.0,0.0,0.0,0.0,0.0,0.0,0.0,0.0,0.0,0.0,0.0,0.0,0.0,0.0,0.0,0.443,0.0,0.0,0.0,0.0,0.0,0.0,0.0,0.0,0.0,0.0,0.0,0.0,0.0,0.0,0.0,0.0,0.0,0.0,0.0,0.0,0.0,0.3149,0.307,0.2925,0.2944,0.3106,0.301,0.302,0.3254,0.3323,0.0,0.0,0.0,0.3755,0.3772,0.3948,0.4265,0.4466,0.5213,0.6095,0.7214,0.7238,0.7113,0.6777,0.7066,0.0,0.0,0.0,0.0,0.0,0.0,0.0,0.0,0.0,0.0,0.0,0.0,0.0,0.0,0.0,0.0,0.0,0.0,0.0,0.0,0.0,0.0,0.0,0.0,0.0,0.0,0.0,0.0,0.0,0.0,0.0,0.0,0.0,0.0,0.0,0.0,0.0,0.0,0.0,0.0,0.0,0.0,0.0,0.0,0.0,0.0,0.0,0.0,0.0,0.0,0.0,0.0,0.0,0.0,0.0,0.0,0.0,0.0,0.0,0.0,0.0,0.0,0.0,0.4664,0.5017,0.5602,0.5898,0.6076,0.6247,0.5581,0.5453,0.5698,0.0,0.0,0.0,0.0,0.0,0.0,0.0,0.0,0.0,0.0,0.0,0.0,0.0,0.0,0.0,0.0,0.0,0.0,0.0,0.0,0.3302,0.3535,0.3457,0.3507,0.3651,0.3663,0.3663,0.3728,0.3728,0.3805,0.4042,0.413,0.4219,0.4303,0.4515,0.4615,0.4686,0.5768,0.7027,0.8431,0.8454,0.8793,0.9212,0.8174,0.0,0.0,0.0,0.0,0.0,0.0,0.0,0.0,0.0,0.0,0.0,0.0,0.0,0.0,0.0,0.0,0.0,0.0,0.0,0.0,0.0,0.0,0.0,0.0,0.0,0.0,0.0,0.0,0.0,0.0,0.0,0.0,0.0,0.0,0.0,0.0,0.0,0.0,0.0,0.0,0.0,0.0,0.0,0.0333,0.1194,0.0,0.0,0.0,0.0,0.0,0.0,0.0,0.0,0.0,0.0,0.0,0.0,0.0,0.3393,0.3757,0.4272,0.4976,0.5855,0.5814,0.6222,0.6965,0.6884,0.6958,0.7175,0.7115,0.0,0.6241,0.6348,0.0,0.0,0.0,0.0,0.0,0.0,0.0,0.0,0.0,0.0,0.0,0.0,0.0,0.0,0.0,0.0,0.0,0.0,0.0,0.0,0.0,0.406,0.4378,0.4486,0.4813,0.4927,0.4661,0.4708,0.4689,0.4408,0.4526,0.4541,0.4528,0.4904,0.5441,0.6263,0.7339,0.8339,0.9353,0.9537,1.0026,1.0578,0.9972,0.958,0.9297,0.8977,0.0,0.0,0.0,0.0,0.0,0.0,0.0,0.0,0.0,0.0,0.0,0.0,0.0,0.0,0.0,0.0,0.0,0.0,0.0,0.0,0.0,0.0,0.0,0.0,0.0,0.0,0.0,0.0,0.0,0.0,0.0,0.0,0.0,0.0,0.0,0.0,0.0,0.0,0.0,0.0333,0.0964,0.1503,0.1175,0.0824,0.0,0.0,0.0,0.0,0.0,0.0,0.0,0.0,0.0,0.3475,0.3906,0.4482,0.5342,0.5579,0.619,0.694,0.6985,0.7299,0.7887,0.8106,0.8344,0.8612,0.8612,0.8419,0.8312,0.7421,0.7062,0.6945,0.0,0.0,0.0,0.0,0.6658,0.6749,0.0,0.0,0.0,0.0,0.0,0.0,0.0,0.0,0.0,0.0,0.0,0.0,0.4214,0.483,0.5208,0.5365,0.5879,0.6016,0.5748,0.5668,0.5425,0.5082,0.5078,0.5078,0.5083,0.5781,0.6695,0.8102,0.8985,0.9802,1.055,1.0798,1.117,1.1657,1.1531,1.1113,1.0377,0.9951,0.9694,0.0,0.0,0.0,0.0,0.0,0.0,0.0,0.0,0.0,0.0,0.0,0.0,0.0,0.0,0.0,0.0,0.0,0.0,0.0,0.0,0.0,0.0,0.0,0.0,0.0,0.0,0.0,0.0,0.0,0.0,0.0,0.0,0.0,0.0,0.0,0.0,0.0,0.0,0.0972,0.147,0.1563,0.1722,0.1654,0.0,0.0,0.0,0.0,0.0,0.0,0.3495,0.3785,0.4151,0.463,0.5073,0.5827,0.6685,0.6892,0.7274,0.7975,0.8114,0.8433,0.8797,0.9192,0.9462,0.9742,0.9742,0.9944,1.0023,0.8398,0.7814,0.807,0.7624,0.7416,0.7459,0.755,0.755,0.753,0.0,0.0,0.0,0.0,0.0,0.0,0.0,0.0,0.0,0.0,0.0,0.466,0.4858,0.5526,0.6126,0.6337,0.6584,0.6793,0.6777,0.6262,0.594,0.593,0.6214,0.6176,0.6006,0.7309,0.8579,0.9627,1.0297,1.1171,1.2258,1.2258,1.2389,1.2783,1.2775,1.2398,1.1853,1.1143,1.0928,1.1133,0.0,0.0,0.0,0.0,0.0,0.0,0.0,0.0,0.0,0.0,0.0,0.0,0.0,0.0,0.0,0.0,0.0,0.0,0.0,0.0,0.0,0.0,0.0,0.0,0.0,0.0,0.0,0.0,0.0,0.0,0.0,0.0,0.0,0.0,0.0,0.0,0.0,0.0,0.0,0.1663,0.1951,0.0,0.0,0.0,0.0,0.3802,0.3479,0.3736,0.4526,0.4974,0.5467,0.5896,0.6813,0.7234,0.7386,0.7958,0.8558,0.8867,0.9307,0.9601,1.0041,1.0348,1.0437,1.0437,1.0437,1.0649,1.0747,0.8847,0.85,0.9082,0.8219,0.8188,0.853,0.8537,0.8395,0.8158,0.0,0.0,0.0,0.0,0.0,0.4417,0.437,0.429,0.4233,0.4229,0.4594,0.5027,0.5551,0.6556,0.7405,0.7929,0.8517,0.8778,0.8602,0.8078,0.762,0.7226,0.7143,0.7419,0.8115,0.8696,0.9724,1.1009,1.1495,1.2142,1.3106,1.3106,1.3245,1.3514,1.3409,1.3251,1.3172,1.2302,1.1659,1.1388,1.1114,1.0609,0.0,0.0,0.0,0.0,0.0,0.0,0.0,0.0,0.0,0.0,0.0,0.0,0.0,0.0,0.0,0.0,0.0,0.0,0.0,0.0,0.0,0.0,0.0,0.0,0.0,0.0,0.0,0.0,0.0,0.0,0.0,0.0,0.0,0.0,0.0,0.0,0.0,0.2821,0.3272,0.0,0.3471,0.3684,0.3998,0.4375,0.4423,0.4721,0.5679,0.603,0.6586,0.711,0.7787,0.8309,0.8816,0.9159,0.9709,1.0318,1.0463,1.0613,1.0757,1.1076,1.1161,1.1161,1.1161,1.1283,1.165,1.0297,0.9924,0.9939,0.9319,0.9227,0.9348,0.9348,0.9307,0.9281,0.0,0.0,0.0,0.0,0.0,0.4654,0.4575,0.4508,0.4568,0.4841,0.5194,0.5709,0.6535,0.7569,0.8514,0.9185,0.9773,1.0023,0.9931,0.9279,0.8629,0.7886,0.7886,0.8568,0.993,1.0246,1.0981,1.235,1.2655,1.3167,1.3881,1.3881,1.4027,1.4172,1.4194,1.4148,1.4153,1.3733,1.3056,1.2186,1.2054,1.1672,1.103,0.0,0.0,0.0,0.0,0.0,0.0,0.0,0.0,0.0,0.0,0.0,0.0,0.0,0.0,0.0,0.0,0.0,0.0,0.0,0.0,0.0,0.0,0.0,0.0,0.0,0.0,0.0,0.0,0.0,0.0,0.0,0.0,0.0,0.0,0.0,0.3827,0.3722,0.4364,0.4684,0.4466,0.4706,0.5063,0.55,0.5675,0.6134,0.6894,0.7389,0.7833,0.8552,0.8895,0.9569,1.0298,1.0423,1.0796,1.1572,1.1727,1.1727,1.1721,1.2093,1.2206,1.2206,1.206,1.2186,1.2429,1.1723,1.1257,1.1087,1.0429,1.0334,1.06,1.06,1.0659,1.0737,0.0,0.0,0.0,0.0,0.0,0.5061,0.4914,0.4801,0.4989,0.5582,0.6031,0.6643,0.7773,0.8652,0.9506,1.0046,1.0306,1.0329,1.0443,0.9624,0.8836,0.8183,0.845,0.947,1.1394,1.1718,1.2396,1.3621,1.3784,1.4255,1.4732,1.4732,1.4732,1.4732,1.5169,1.5117,1.4916,1.5426,1.4946,1.3663,1.3133,1.2693,1.233,0.0,0.0,0.0,0.0,0.0,0.0,0.0,0.0,0.0,0.0,0.0,0.0,0.0,0.0,0.0,0.0,0.0,0.0,0.0,0.0,0.0,0.0,0.0,0.0,0.0,0.0,0.0,0.0,0.0,0.0,0.0,0.0,0.0,0.3204,0.3791,0.4222,0.4231,0.4969,0.5483,0.5456,0.5843,0.6411,0.7274,0.7377,0.7704,0.8445,0.877,0.9318,1.0004,1.044,1.1035,1.1482,1.1623,1.2012,1.2481,1.2802,1.2963,1.3123,1.3443,1.3596,1.3596,1.3123,1.32,1.3369,1.2896,1.2569,1.2264,1.151,1.1619,1.2194,1.2194,1.2194,1.2338,0.0,0.0,0.0,0.4925,0.5046,0.5061,0.4914,0.5032,0.5247,0.5866,0.6542,0.7414,0.8521,0.9361,1.0196,1.1301,1.1272,1.1404,1.1799,1.1009,1.0398,1.0044,1.0447,1.1329,1.2749,1.3128,1.3691,1.479,1.4838,1.4959,1.5293,1.5293,1.5293,1.5285,1.5621,1.5658,1.5531,1.5667,1.5425,1.5017,1.4143,1.3471,1.2858,0.0,0.0,0.0,0.0,0.0,0.0,0.0,0.0,0.0,0.0,0.0,0.0,0.0,0.0,0.0,0.0,0.0,0.0,0.0,0.0,0.0,0.0,0.0,0.0,0.0,0.0,0.0,0.0,0.0,0.0,0.0,0.0,0.4462,0.419,0.4845,0.556,0.5935,0.6774,0.7301,0.7319,0.7436,0.7704,0.8121,0.8298,0.8775,0.9555,0.9805,1.0392,1.1183,1.1468,1.1882,1.2243,1.2491,1.2778,1.3271,1.377,1.3929,1.3929,1.431,1.4193,1.376,1.3767,1.3521,1.3061,1.3366,1.3317,1.319,1.2277,1.2033,1.2234,1.2381,1.2823,1.2971,0.0,0.0,0.0,0.5003,0.5087,0.514,0.5149,0.5173,0.551,0.6455,0.7182,0.8233,0.9479,1.0342,1.1176,1.1999,1.2079,1.2034,1.2075,1.1448,1.1134,1.1321,1.1644,1.2534,1.3636,1.4042,1.4589,1.5463,1.5463,1.5753,1.6179,1.6179,1.617,1.6495,1.6546,1.6613,1.6827,1.6561,1.6492,1.6473,1.5557,1.4654,1.3735,1.2386,1.1707,1.1202,1.0233,0.9556,0.8947,0.8328,0.0,0.0,0.0,0.0,0.0,0.0,0.0,0.0,0.0,0.0,0.0,0.0,0.0,0.0,0.0,0.0,0.0,0.0,0.0,0.0,0.0,0.0,0.0,0.0,0.484,0.5621,0.607,0.6317,0.674,0.7283,0.7865,0.8266,0.8474,0.8578,0.8835,0.9397,0.9577,0.9912,1.0872,1.0953,1.1403,1.225,1.2326,1.2561,1.3118,1.329,1.3715,1.4231,1.4563,1.4732,1.5063,1.5134,1.5037,0.0,1.4622,1.4405,1.4145,1.4237,1.4171,0.0,0.0,0.0,0.0,0.0,1.3976,1.3976,0.0,0.0,0.0,0.5249,0.5312,0.5404,0.5499,0.5395,0.5779,0.7174,0.8062,0.903,1.0493,1.1386,1.2007,1.2704,1.2437,1.2196,1.198,1.1595,1.1622,1.2242,1.2774,1.352,1.4509,1.4844,1.5345,1.6024,1.6024,1.6361,1.7178,1.7178,1.7345,1.768,1.7671,1.7906,1.8065,1.7864,1.7824,1.791,1.7005,1.6013,1.4864,1.3642,1.3161,1.2867,1.1377,1.0642,1.0071,0.9191,0.0,0.0,0.0,0.0,0.0,0.0,0.0,0.0,0.0,0.0,0.0,0.0,0.0,0.0,0.0,0.0,0.0,0.0,0.0,0.0,0.0,0.0,0.0,0.0,0.608,0.6892,0.813,0.8064,0.8102,0.8324,0.8508,0.8935,0.9247,0.9519,0.9949,1.0699,1.1001,1.1338,1.2061,0.0,0.0,0.0,0.0,1.3422,1.4064,1.3926,1.4463,1.5332,1.5332,1.5668,1.6004,1.6004,1.5981,1.5949,1.5615,1.5592,1.5709,1.5225,1.5074,1.4901,1.4048,1.4244,1.4898,1.5361,1.5194,1.5034,0.0,0.0,0.5412,0.5593,0.5676,0.5798,0.5912,0.6067,0.6545,0.7617,0.8626,0.9655,1.0671,1.1425,1.2315,1.3166,1.2751,1.2507,1.2797,1.3012,1.347,1.4294,1.5009,1.5742,1.6509,1.6751,1.7052,1.76,1.76,1.7643,1.7882,1.7882,1.7882,1.7882,1.8211,1.8361,1.8475,1.8283,1.7928,1.7539,1.6951,1.6339,1.5648,1.454,1.3805,1.3259,1.2454,1.1943,1.1541,1.0689,1.01,0.9572,0.883,0.0,0.0,0.0,0.0,0.0,0.0,0.0,0.0,0.0,0.0,0.0,0.0,0.0,0.0,0.0,0.0,0.0,0.0,0.0,0.0,0.662,0.7774,0.8723,0.9339,1.0173,1.0235,0.9462,0.9866,1.0298,1.0863,1.1088,1.1438,1.1577,1.1812,1.2309,1.2701,1.2972,1.3396,1.4316,1.4215,1.4534,1.5257,1.5155,1.5456,1.6003,0.0,0.0,1.6728,1.7079,1.692,1.63,1.6308,1.5979,1.5391,1.5686,1.5655,1.5563,1.4622,1.4632,1.5054,1.5081,1.5194,1.5353,0.0,0.5538,0.5412,0.5625,0.5695,0.5805,0.5995,0.635,0.6929,0.7859,0.9131,1.0171,1.1225,1.1993,1.274,1.3228,1.2889,1.2964,1.3358,1.4069,1.4727,1.5594,1.6277,1.6757,1.7337,1.7548,1.7794,1.8075,1.8181,1.845,1.8721,1.8819,1.9039,1.9223,1.9214,1.9379,1.9544,1.9066,1.8533,1.8229,1.8065,1.7563,1.6998,1.5461,1.478,1.4525,1.3558,1.3105,1.2851,1.1809,1.1216,1.0807,1.0044,0.9144,0.8006,0.0,0.0,0.0,0.0,0.0,0.0,0.0,0.0,0.0,0.0,0.0,0.0,0.0,0.0,0.5202,0.6088,0.0,0.7046,0.8184,0.9024,0.9573,1.0241,1.1035,1.133,1.082,1.1065,1.1354,1.1653,1.1849,1.2161,1.2395,1.3095,1.3797,1.4291,1.4714,1.5177,1.5697,1.5505,1.5592,1.6301,1.6288,1.6545,1.7278,1.7459,1.7821,1.801,1.8191,1.8082,1.7728,1.7558,1.7226,1.6617,1.6442,1.6371,1.6323,1.5719,1.5435,1.5498,1.5742,1.5883,1.6032,0.0,0.0,0.5498,0.5738,0.579,0.5805,0.616,0.6694,0.7275,0.816,0.9518,1.0752,1.1598,1.2473,1.2927,1.2842,1.3199,1.3552,1.3797,1.4806,1.5784,1.6581,1.7145,1.7647,1.8076,1.8255,1.8443,1.8676,1.8846,1.9202,1.9756,1.9913,2.0175,2.0544,2.0175,2.0175,2.0516,1.9823,1.9305,1.9223,1.908,1.8838,1.8135,1.6658,1.6178,1.5967,1.4736,1.4138,1.3883,1.2673,1.2077,1.1801,1.1137,1.0393,0.9479,0.8414,0.7508,0.0,0.0,0.0,0.0,0.0,0.0,0.0,0.0,0.0,0.5153,0.5554,0.5795,0.6453,0.7959,0.7873,0.8184,0.9742,1.0216,1.0621,1.1065,1.1857,1.2383,1.2363,1.2238,1.2319,1.2432,1.2764,1.3213,1.3579,1.44,1.53,1.6125,1.6318,1.6805,1.7262,1.6764,1.6795,1.7555,1.7413,1.7811,1.8575,1.8575,1.8741,1.9079,1.9079,1.9036,1.8966,1.8389,1.8107,1.794,1.7296,1.7006,1.699,1.7017,1.6591,1.6199,1.6446,1.6584,1.656,0.0,0.0,0.0,0.6186,0.6247,0.6363,0.6901,0.7468,0.8004,0.8659,1.0055,1.109,1.124,1.209,1.2638,1.2572,1.355,1.428,1.4538,1.556,1.6655,1.7779,1.8238,1.8753,1.9344,1.9381,1.9578,1.9971,1.9999,2.0121,2.0327,2.0346,2.0365,2.0544,2.0365,2.0365,2.0535,2.0308,2.0008,1.9478,1.9591,1.8994,1.829,1.8298,1.7882,1.7116,1.5718,1.4962,1.4412,1.3292,1.2653,1.2239,1.2174,1.1558,1.0616,0.925,0.0,0.7587,0.6195,0.5766,0.5746,0.5926,0.5884,0.597,0.0,0.0,0.6783,0.7595,0.7701,0.7965,0.9534,1.0058,1.0311,1.0877,1.1818,1.2489,1.2585,1.3665,1.4514,1.4421,1.3892,1.3405,1.3432,1.4885,1.5639,1.5425,1.6125,1.6837,1.7395,1.7214,1.7411,1.8174,1.7969,1.8317,1.9419,1.8648,1.8625,1.9361,1.898,1.8897,1.9108,1.874,1.8557,1.8792,1.8077,1.7624,1.7591,1.8116,1.7911,1.7534,1.8074,1.7795,1.7234,1.6755,1.6584,1.6576,0.0,0.0,0.0,0.6583,0.6563,0.667,0.7222,0.7635,0.8294,0.9276,1.0305,1.1164,1.1655,1.2267,1.2587,1.2782,1.3699,1.4508,1.5009,1.6599,1.8019,1.8875,1.9317,1.9731,2.0115,2.0076,2.0044,2.0223,2.0459,2.0629,2.0715,2.0847,2.097,2.1074,2.096,2.097,2.1064,2.0818,2.0124,1.9491,1.9922,1.9597,1.8858,1.9121,1.8838,1.7964,1.6527,1.5711,0.0,0.0,1.3271,1.3027,1.271,1.1933,1.1012,0.987,0.9023,0.0,0.7413,0.7002,0.0,0.0,0.7658,0.7774,0.8213,0.8575,0.8854,0.9245,0.9582,1.0245,1.1235,1.1253,1.1399,0.0,1.2574,1.2923,1.3521,1.4294,1.5056,1.5956,1.5767,1.5564,1.5219,1.63,1.6824,1.6719,1.7608,1.833,1.8698,1.8809,1.9288,1.9772,1.9406,1.9732,2.0377,2.0079,2.0166,2.0828,2.0646,2.0538,2.0521,2.0341,1.9993,1.9525,1.9149,1.8698,1.8499,1.8776,1.8553,1.8002,1.8544,1.8321,1.7861,1.7345,1.6982,1.6877,0.0,0.0,0.0,0.667,0.6758,0.6976,0.755,0.7911,0.8607,0.9665,1.06,1.1408,1.2089,1.2294,1.2597,1.2803,1.3637,1.4447,1.5321,1.7192,1.8554,1.9424,2.0101,2.0466,2.0692,2.056,2.0548,2.0663,2.0791,2.1001,2.1115,2.1093,2.1282,2.1461,2.1319,2.1367,2.1537,2.1234,2.0695,2.0078,2.0491,2.0361,1.9653,1.9637,1.9191,1.8375,1.6841,1.5993,0.0,0.0,1.3392,1.3287,1.2759,1.2042,1.1202,1.0386,0.9255,0.8371,0.8317,0.0,0.0,0.9131,0.9381,0.9456,0.9816,1.0344,1.0685,1.0849,1.1274,1.1768,1.2963,1.2627,1.2406,1.3326,1.3577,1.3756,1.4287,1.5257,1.6009,1.6974,1.7538,1.758,1.7271,1.7621,1.7948,1.7869,1.8957,1.9697,1.9894,2.0277,2.0645,2.0989,2.0756,2.0846,2.1284,2.1092,2.1321,2.1952,2.177,2.1657,2.1641,2.1574,2.1085,1.9984,1.9983,1.9709,1.9314,1.914,1.9062,1.8889,1.9062,1.9027,1.8612,1.8116,1.777,1.7596,0.0,0.0,0.0,0.0,0.676,0.7375,0.7967,0.8422,0.8913,0.967,1.0857,1.1854,1.2394,1.2269,1.2299,1.2566,1.3416,1.4341,1.5091,1.6846,1.8123,1.8994,1.996,2.0746,2.0808,2.1201,2.1524,2.1959,2.1432,2.1478,2.1898,2.1353,2.1282,2.1471,2.1461,2.1584,2.1782,2.1773,2.1641,2.1452,2.1442,2.1196,2.0608,1.9839,1.9013,1.8174,1.6653,0.0,1.4931,1.334,1.271,1.2569,1.2142,1.1629,0.0,1.0458,0.9322,0.8313,0.0,0.0,0.9284,1.0465,1.083,1.1031,1.1603,1.1657,1.1868,1.2764,1.2401,1.2543,1.4541,1.4289,1.3821,1.4467,1.5302,1.5638,1.5096,1.676,1.8009,1.7485,1.8627,1.934,0.0,1.9396,1.9491,1.9323,1.9903,2.0667,2.1433,2.1072,2.1192,2.1782,2.1782,2.1886,2.2075,2.1505,2.1597,2.2368,2.1781,2.1679,2.2066,2.1858,2.0983,1.9611,1.9819,1.992,1.9697,1.9328,1.963,2.0196,2.0196,1.9894,1.9367,1.9358,1.9235,1.9077,0.0,0.0,0.0,0.0,0.0,0.7688,0.8376,0.8589,0.9087,1.0214,1.1179,0.0,0.0,0.0,0.0,0.0,1.3663,1.4547,1.56,1.7096,1.8481,1.9539,2.0385,2.0919,2.131,2.1363,2.1524,2.1969,2.1931,2.2161,2.2268,2.2268,2.2016,2.2024,2.2024,2.1961,2.1782,2.1641,2.1423,2.1072,2.0805,2.0695,2.063,1.9401,1.8748,1.8032,0.0,0.0,1.4787,1.3555,1.2967,1.2733,1.2589,1.1993,1.1059,1.023,0.9532,0.9081,0.0,0.0,1.1016,1.1948,1.2444,1.2902,1.3302,1.3609,1.3937,1.3729,1.3775,1.3868,1.4145,1.4327,1.4662,1.5162,1.5669,1.6223,1.7394,1.7579,1.8117,1.9133,1.9387,0.0,0.0,0.0,0.0,2.0262,2.0788,2.1452,2.2228,2.225,2.2567,2.2951,2.3282,2.3198,2.3267,2.3267,2.3296,2.3365,2.3227,2.3129,2.3242,2.2823,2.2724,2.2534,2.1923,2.1716,2.182,2.09,2.0472,2.0403,2.0835,2.0557,1.993,2.0114,2.0271,2.0364,0.0,0.0,0.0,0.0,0.0,0.0,0.0,0.0,0.0,0.0,0.0,0.0,0.0,0.0,0.0,0.0,0.0,1.458,1.5663,1.6868,1.8124,1.9281,1.998,2.0485,2.0947,2.1097,2.1356,2.1894,2.2029,2.2158,2.2464,2.2444,2.2268,2.2104,2.2182,2.2,2.1886,2.1669,2.1423,2.0873,2.0472,2.0299,1.9831,1.8681,1.7904,0.0,1.5532,1.4529,1.3882,1.3224,1.2897,1.262,1.2421,1.1774,1.0969,1.0353,0.9993,1.0117,0.0,1.1935,1.2719,1.3579,1.4253,1.4703,1.5002,1.5453,1.5447,1.4887,1.4846,1.4854,1.4578,1.479,1.5089,1.5727,1.6213,1.7123,1.8279,1.8483,1.8848,2.0064,1.9962,1.9953,0.0,0.0,0.0,2.0932,2.1525,2.201,2.2524,2.3,2.3362,2.3749,2.389,2.4001,2.4082,2.4001,2.4156,2.4341,2.4207,2.4135,2.4135,2.3789,2.393,2.4131,2.3213,2.3014,2.2994,2.1506,2.0862,2.086,2.1048,2.0964,2.0594,2.0594,2.0788,2.0751,0.0,0.0,0.0,0.0,0.0,0.0,0.0,0.0,0.0,0.0,0.0,0.0,0.0,0.0,0.0,0.0,0.0,0.0,1.5509,1.6198,1.6974,1.8101,1.8683,1.9338,1.9801,2.0285,2.0867,2.1566,2.1547,2.1838,2.2287,2.2199,2.2161,2.183,2.2045,2.2,2.1981,2.1792,2.1414,2.0645,2.0235,1.9662,1.8699,1.7613,1.6592,1.5844,1.4976,1.3784,1.2723,1.241,1.241,1.2374,1.1927,1.1267,1.0833,1.0842,1.0879,1.1233,1.2827,1.3629,1.4203,1.5336,1.6224,1.6658,1.6658,1.6643,1.6713,1.6051,1.5709,1.5624,0.0,0.0,1.5472,1.6186,1.7315,1.7897,1.7944,1.933,2.0252,0.0,0.0,0.0,0.0,0.0,0.0,2.1344,0.0,2.2544,2.2774,2.3555,2.3981,2.4187,2.4187,2.4288,2.4315,2.4288,2.4361,2.4751,2.474,2.473,2.473,2.473,2.4751,2.4546,2.3697,2.3425,2.3193,2.1357,2.0853,2.1226,2.1225,2.1168,2.1196,2.1196,2.0825,2.0436,0.0,0.0,0.0,0.0,0.0,0.0,0.0,0.0,0.0,0.0,0.0,0.0,0.0,0.0,0.0,0.0,0.0,0.0,1.5548,1.5905,1.6476,1.7566,1.8165,1.8842,1.9316,1.979,2.0296,2.0834,2.1157,2.1531,2.183,2.1786,2.1516,2.1239,2.1264,2.1141,2.0696,2.0639,2.0496,2.0007,1.9249,1.8858,1.8541,1.7195,1.6377,1.5699,1.4493,1.3589,0.0,0.0,0.0,0.0,0.0,1.223,1.2423,1.251,1.2641,1.3155,1.4517,1.5113,1.5529,1.6573,1.6775,1.6713,1.6713,1.6948,1.6823,1.6318,1.5658,1.5194,0.0,0.0,0.0,1.685,1.8049,0.0,2.0344,2.0816,0.0,2.1114,0.0,2.1481,2.1549,2.1549,0.0,0.0,2.2566,2.2931,2.3826,2.4546,2.5085,2.5649,2.5649,2.5681,2.5744,2.55,2.5384,2.558,2.5409,2.5324,2.5324,2.5324,2.5324,2.5313,2.4833,2.4438,2.4207,2.3704,2.3044,2.203,2.183,2.1574,2.1584,2.1622,2.1631,2.1442,0.0,0.0,0.0,0.0,0.0,0.0,0.0,0.0,0.0,0.0,0.0,0.0,0.0,0.0,0.0,0.0,0.0,0.0,0.0,1.5579,1.6,1.6976,1.7261,1.7572,1.8046,1.8412,1.8885,1.9478,1.9951,2.0414,2.0538,2.0853,2.0621,2.007,2.0337,2.024,1.9817,1.9817,1.9535,0.0,0.0,1.7739,1.7053,1.6097,1.5432,1.4735,0.0,0.0,0.0,0.0,0.0,1.323,1.3126,1.3111,1.3424,1.4174,0.0,1.4732,1.604,1.6673,1.7073,1.77,1.7792,1.7764,1.7581,1.739,1.6979,1.6303,1.5613,0.0,1.4448,1.5194,0.0,0.0,0.0,0.0,2.1178,2.1414,2.1687,0.0,2.1875,0.0,2.2182,2.2172,2.2487,0.0,2.3516,2.3749,2.4526,2.5137,2.5702,2.6229,2.6239,2.6239,2.6239,2.6196,2.6078,2.5862,2.5733,2.5615,2.5518,2.5518,2.5518,2.5507,0.0,2.511,2.4893,2.5023,2.4398,2.3789,2.3575,2.3104,2.2714,2.2154,2.2163,2.2163,0.0,0.0,0.0,0.0,0.0,0.0,0.0,0.0,0.0,0.0,1.097,1.1436,0.0,0.0,0.0,0.0,0.0,0.0,0.0,0.0,1.5473,1.6144,1.5959,1.6054,1.6463,1.6764,1.7217,1.7863,1.8379,1.8816,1.9138,1.951,1.9396,1.8957,1.9228,1.9202,1.9051,1.908,1.8569,1.7688,1.7399,1.6555,1.539,0.0,0.0,0.0,0.0,0.0,0.0,0.0,1.3399,1.3677,1.414,1.4057,1.4268,1.5666,1.5794,1.6023,1.753,1.8208,1.8402,1.8603,1.8811,1.8872,1.8447,1.7836,1.7162,1.6099,0.0,1.4956,1.4506,1.5317,1.6265,1.6914,0.0,2.0044,2.1267,2.1601,2.2,2.2783,2.2412,2.2412,2.2803,2.2803,2.3355,2.4166,2.4649,2.5072,2.4876,2.5858,2.6293,2.6325,2.6325,2.6325,2.6325,2.6498,2.6379,2.5959,2.5895,2.5755,2.5561,2.5529,2.5518,2.5507,2.5313,0.0,2.5486,2.5278,2.5256,2.5462,2.5447,2.4779,2.3986,2.3004,2.2612,2.2622,0.0,0.0,0.0,0.0,0.0,0.0,0.0,0.0,0.0,0.0,1.093,1.142,0.0,0.0,0.0,0.0,0.0,0.0,0.0,0.0,0.0,1.5167,1.5268,1.5408,1.5494,1.6118,1.6495,1.6624,1.7486,1.797,1.7972,1.8114,1.8229,1.813,1.797,1.7719,1.7766,1.7622,1.7123,1.6529,1.6457,1.5772,1.4862,0.0,0.0,0.0,0.0,0.0,0.0,0.0,1.4102,1.4501,1.5023,1.5467,1.5883,1.6684,1.6943,1.7238,1.8381,1.8685,1.8772,1.9315,1.9259,1.8872,1.8133,1.7456,0.0,0.0,1.5272,1.4997,1.4567,1.5694,1.6934,1.7598,1.9075,2.0657,2.2082,2.2994,2.3405,0.0,0.0,0.0,0.0,0.0,0.0,0.0,0.0,2.5999,2.5586,2.6275,2.6616,2.6821,2.6832,2.6832,2.6832,2.6659,2.6541,2.6455,2.6056,2.5852,2.5798,2.5604,2.5518,2.5518,2.5475,0.0,2.5518,2.5432,2.5432,2.5464,2.4615,2.4626,2.5055,2.3665,2.3267,2.3062,0.0,0.0,0.0,0.0,0.0,0.0,0.0,0.9331,0.957,1.0448,1.097,1.1293,1.1508,1.1971,1.2509,0.0,0.0,0.0,0.0,0.0,0.0,0.0,0.0,0.0,1.5246,1.5591,0.0,0.0,0.0,1.6602,1.6828,0.0,0.0,1.6734,1.6481,1.6387,1.6489,1.6256,1.6046,1.5621,1.565,1.5194,0.0,0.0,0.0,0.0,0.0,0.0,0.0,0.0,1.4351,1.5162,1.5845,1.6285,1.6672,1.7639,1.7897,1.8304,1.948,1.9665,1.959,1.9921,1.9533,1.8782,1.7732,0.0,0.0,0.0,1.4463,1.4356,1.4173,1.5294,0.0,1.7492,1.8739,2.0299,2.2576,2.2934,0.0,2.431,2.4361,0.0,0.0,0.0,0.0,0.0,0.0,2.6253,2.6168,2.6499,2.6832,2.695,2.695,2.695,2.695,2.6832,2.6713,2.6584,2.6229,2.5992,2.5862,2.5626,2.5518,2.5518,2.5518,0.0,2.5518,2.5518,2.5518,2.5518,2.4914,2.5129,2.5345,2.4351,2.3756,2.3571,0.0,0.0,0.0,0.0,0.0,0.0,0.935,0.9274,0.9529,1.0546,1.0881,1.1208,1.1437,1.1869,1.2422,0.0,0.0,0.0,0.0,0.0,0.0,0.0,0.0,0.0,0.0,0.0,0.0,0.0,0.0,0.0,0.0,0.0,0.0,0.0,0.0,0.0,1.5557,1.5328,1.5215,0.0,0.0,0.0,0.0,0.0,0.0,0.0,0.0,0.0,0.0,0.0,1.4403,1.5428,1.6325,1.6657,1.7065,1.8418,1.884,1.9007,2.0262,2.0544,2.0667,2.027,1.9751,1.9023,1.7511,1.6464,0.0,0.0,1.3733,1.3652,1.3863,1.475,1.588,0.0,1.8307,1.9746,2.2327,2.2705,2.3194,0.0,2.4722,0.0,2.5093,0.0,0.0,0.0,0.0,0.0,2.6648,2.6842,2.695,2.695,2.695,2.695,2.695,2.695,2.6853,2.6659,2.6422,2.6185,2.5938,2.5701,2.5561,2.5518,2.5572,0.0,0.0,2.5572,2.5561,2.5518,2.5518,2.5324,2.5129,2.4719,2.4341,2.3961,0.0,0.0,0.0,0.0,0.0,0.0,0.862,0.9275,0.9767,1.0103,1.0782,1.1301,1.1248,1.1731,1.213,0.0,0.0,0.0,0.0,0.0,0.0,0.0,0.0,0.0,0.0,0.0,0.0,0.0,0.0,0.0,0.0,0.0,0.0,0.0,0.0,0.0,0.0,1.5132,0.0,0.0,0.0,0.0,0.0,0.0,0.0,0.0,0.0,0.0,0.0,0.0,0.0,1.4735,1.5739,1.6607,1.7552,1.8305,0.0,0.0,2.0299,2.0904,2.1025,2.0448,2.0096,1.9522,1.7669,0.0,0.0,1.3815,1.3815,1.3913,1.3839,1.4796,0.0,0.0,0.0,1.9372,2.1713,2.2663,2.3539,2.496,0.0,0.0,2.5954,2.6379,0.0,0.0,0.0,0.0,2.6918,2.6939,2.695,2.695,2.695,2.695,2.695,2.695,2.6939,2.6918,2.667,2.6433,2.6196,2.5949,2.5723,2.5529,2.5744,0.0,0.0,2.5744,2.5712,2.5518,2.5518,2.5119,2.4525,2.4525,2.4341,2.3961,0.0,0.0,0.0,0.0,0.0,0.0,0.8578,0.8822,0.9293,1.0207,1.0811,1.1169,1.1447,1.1657,1.1942,1.207,0.0,0.0,0.0,0.0,0.0,0.0,0.0,0.0,0.0,0.0,0.0,1.474,0.0,0.0,0.0,0.0,0.0,0.0,0.0,0.0,0.0,0.0,0.0,0.0,0.0,0.0,0.0,0.0,0.0,0.0,0.0,0.0,0.0,0.0,0.0,0.0,1.4999,1.5601,0.0,0.0,1.8654,1.9256,2.0421,2.1001,2.102,2.0497,1.9923,1.8989,1.7162,0.0,1.4518,1.3311,1.3218,1.3456,1.3677,1.433,1.5227,1.679,0.0,0.0,2.0938,2.1787,2.2778,2.4314,2.5302,0.0,0.0,0.0,2.6627,0.0,0.0,0.0,2.695,2.695,2.695,2.695,2.695,2.695,2.695,2.695,2.695,2.695,2.6702,2.653,2.6433,2.6196,2.6035,2.5959,2.6046,0.0,0.0,2.583,2.5527,2.4935,2.4935,2.4924,2.4535,2.4341,2.4341,2.4351,0.0,0.0,0.0,0.0,0.0,0.7283,0.8362,0.8695,0.9136,1.0045,1.0754,1.1169,1.1273,1.1402,1.158,1.1871,1.185,0.0,0.0,0.0,0.0,0.0,0.0,0.0,0.0,0.0,1.4169,1.4568,1.4431,0.0,0.0,0.0,0.0,0.0,0.0,0.0,0.0,0.0,0.0,0.0,0.0,0.0,0.0,0.0,0.0,0.0,0.0,0.0,0.0,0.0,0.0,0.0,0.0,0.0,0.0,0.0,1.8189,1.8909,2.0222,2.0866,2.1077,2.0535,1.9828,1.8617,0.0,0.0,1.4349,1.3178,1.2938,1.3149,1.3563,1.3896,1.4703,1.6459,1.663,1.7625,2.0308,2.1204,2.2039,2.35,0.0,2.5409,0.0,0.0,0.0,0.0,0.0,0.0,2.695,2.695,2.695,2.695,2.695,2.695,2.695,2.695,2.695,2.695,2.6778,2.6616,2.6476,2.6379,2.6261,2.6132,2.6272,0.0,0.0,2.5949,2.5591,2.4924,2.473,2.4535,2.4535,2.4156,2.4156,2.4156,0.0,0.0,0.0,0.0,0.0,0.0,0.799,0.9046,0.9705,0.9508,1.0543,1.1129,1.0667,1.0849,1.1079,1.1258,1.1347,0.0,0.0,0.0,0.0,0.0,0.0,0.0,0.0,0.0,1.3599,1.3836,1.4083,1.4211,1.4113,1.4218,0.0,0.0,0.0,0.0,0.0,0.0,0.0,0.0,0.0,0.0,0.0,0.0,0.0,0.0,0.0,0.0,0.0,0.0,0.0,0.0,0.0,1.3854,1.3763,1.6054,1.7608,1.8703,1.9651,2.0544,2.1035,2.0457,1.9779,1.8882,0.0,0.0,1.4349,1.3575,1.3104,1.3003,1.3547,1.3782,1.44,1.5962,1.6781,1.79,1.976,2.0812,2.1521,0.0,0.0,2.4239,2.4699,2.5988,2.695,0.0,0.0,0.0,2.695,2.695,2.695,2.695,2.695,2.695,2.695,2.695,2.695,2.695,2.695,2.6702,2.625,2.6476,2.6315,0.0,0.0,0.0,0.0,2.6132,2.5949,2.5518,2.4935,2.4351,2.3961,2.3961,2.3756,2.3405,0.0,0.0,0.0,0.0,0.0,0.0,0.7832,0.8521,0.9078,0.913,0.9885,1.0332,1.038,1.0442,1.0642,1.089,1.1201,0.0,0.0,0.0,0.0,0.0,0.0,0.0,0.0,0.0,1.3416,1.3814,1.39,1.403,1.4093,1.3892,1.3904,1.4052,0.0,0.0,0.0,0.0,0.0,0.0,0.0,0.0,0.0,0.0,0.0,0.0,0.0,0.0,0.0,0.0,0.0,0.0,0.0,0.0,0.0,1.3875,1.5407,1.6867,1.7809,1.8714,1.9428,1.8913,1.821,1.7398,1.5912,1.4844,1.3709,1.3068,1.2783,1.2947,1.3634,1.4123,1.4796,1.6251,1.6535,1.7199,0.0,0.0,0.0,2.2717,2.4385,2.5772,0.0,0.0,2.6767,0.0,0.0,0.0,2.695,2.695,2.695,2.695,2.695,2.695,2.695,2.695,2.695,2.695,2.695,2.6778,2.6476,2.6724,2.6659,0.0,0.0,0.0,0.0,2.6272,2.5858,2.5166,2.4803,2.4341,2.3961,2.3561,2.3571,2.3776,0.0,0.0,0.0,0.0,0.0,0.0,0.765,0.8242,0.8655,0.8649,0.9189,0.9648,0.9669,0.9836,1.0086,1.0475,1.0829,0.0,0.0,0.0,0.0,0.0,0.0,0.0,1.2834,1.2845,1.3168,1.3814,1.3814,1.3997,1.4441,1.4189,1.4073,1.4045,1.3887,0.0,0.0,0.0,0.0,0.0,0.0,0.0,1.2223,0.0,0.0,0.0,0.0,0.0,0.0,0.0,0.0,0.0,0.0,0.0,0.0,0.0,1.3641,1.5136,1.6333,1.7339,1.8117,1.772,1.7134,1.6332,1.5079,0.0,1.3319,1.2611,1.2515,1.2841,1.3722,1.4238,1.4984,1.6247,0.0,0.0,0.0,0.0,0.0,2.3272,0.0,0.0,0.0,2.6648,0.0,0.0,0.0,0.0,2.695,2.695,2.695,2.695,2.695,2.695,2.7155,2.695,2.695,2.695,2.695,2.6821,2.6595,2.6842,2.681,0.0,0.0,0.0,0.0,2.6325,2.589,2.5261,2.4824,2.4341,2.3961,2.3365,2.3365,2.3385,0.0,0.0,0.0,0.0,0.0,0.0,0.0,0.806,0.8383,0.8154,0.864,0.8917,0.8674,0.9101,0.9561,1.0144,1.0498,0.0,0.0,0.0,0.0,0.0,0.0,0.0,1.2382,1.2404,1.2856,1.3771,1.3793,1.4159,1.4859,1.474,1.451,1.4002,1.3963,1.3596,0.0,0.0,0.0,0.0,1.2233,1.2142,0.0,0.0,0.0,0.0,0.0,0.0,0.0,0.0,0.0,0.0,0.0,0.0,0.0,0.0,0.0,0.0,0.0,1.6275,1.7144,1.6748,1.6212,1.5588,1.442,0.0,0.0,1.2463,1.2434,1.2791,1.3587,1.4386,1.5061,0.0,0.0,0.0,0.0,2.0521,0.0,0.0,0.0,0.0,0.0,0.0,0.0,0.0,0.0,0.0,2.695,2.695,2.695,2.7155,2.695,2.7155,2.7758,2.7155,2.6939,2.6928,2.6939,2.681,2.6573,2.6832,2.681,0.0,0.0,0.0,0.0,2.6336,2.6099,2.5862,2.503,2.4535,2.3961,2.3365,2.2974,2.2612,0.0,0.0,0.0,0.0,0.0,0.0,0.0,0.0,0.0,0.0,0.8243,0.8452,0.8156,0.8576,0.9018,0.0,0.0,0.0,0.0,0.0,0.0,0.0,0.0,0.0,1.2124,1.2318,1.2608,1.2983,1.3367,1.3816,1.4277,1.4228,1.421,1.3992,1.369,1.3222,0.0,0.0,0.0,0.0,1.1717,1.1663,0.0,0.0,0.0,0.0,1.1046,1.0805,0.0,0.0,0.0,0.0,0.0,0.0,0.0,0.0,1.1586,1.2364,1.2993,0.0,1.5026,1.5103,1.4583,1.4045,0.0,0.0,0.0,0.0,0.0,1.2693,1.373,1.45,1.5342,0.0,0.0,0.0,1.9259,0.0,0.0,0.0,0.0,0.0,0.0,0.0,0.0,0.0,0.0,2.7769,2.8178,2.8178,2.8382,2.8779,2.8382,2.7769,2.7155,2.695,2.6853,2.667,2.6864,2.6724,2.6325,2.6756,2.681,0.0,0.0,0.0,2.6832,2.6412,2.6196,2.611,2.5484,2.474,2.3961,2.3766,2.317,2.2593,0.0,0.0,0.0,0.0,0.0,0.0,0.0,0.0,0.0,0.0,0.7795,0.7932,0.7772,0.8164,0.8577,0.0,0.0,0.0,0.0,0.0,0.0,0.0,0.0,1.1704,1.2129,1.2085,1.2352,1.3038,1.3153,1.3623,1.4406,1.4292,1.4189,1.42,1.3546,1.3058,1.2701,0.0,0.0,0.0,1.1446,0.0,0.0,0.0,0.0,0.0,1.0893,1.0651,0.0,1.0855,1.0809,1.0602,0.0,0.0,0.0,0.0,1.1185,1.1754,1.1932,1.3005,1.4099,1.4256,1.3841,1.3419,1.3137,0.0,0.0,0.0,0.0,0.0,1.3823,0.0,0.0,0.0,0.0,0.0,0.0,0.0,0.0,0.0,0.0,0.0,0.0,0.0,0.0,0.0,0.0,2.8382,2.8586,2.8586,2.879,2.8982,2.879,2.8382,2.7962,2.7769,2.7636,2.7392,2.724,2.7163,2.6813,2.6778,2.6875,0.0,0.0,0.0,2.6745,2.6261,2.6067,2.6035,2.5658,2.4935,2.4351,2.4156,2.3561,2.2779,0.0,0.0,0.0,0.0,0.0,0.0,0.0,0.0,0.0,0.0,0.0,0.0,0.0,0.0,0.0,0.0,0.0,0.0,0.0,0.0,0.0,0.0,1.1176,1.1575,1.2038,1.1865,1.2203,1.3184,1.3152,1.3614,1.4677,1.4508,1.4415,1.4406,1.3407,1.2879,1.271,1.2015,0.0,0.0,1.1405,0.0,0.0,0.0,0.0,0.0,0.0,0.0,0.0,1.077,1.0711,1.0487,1.0826,0.0,0.0,0.0,0.0,0.0,1.1644,1.2444,1.3395,1.3673,1.3506,1.3197,1.3011,0.0,0.0,0.0,0.0,0.0,0.0,0.0,0.0,0.0,0.0,0.0,2.2141,2.37,0.0,0.0,0.0,0.0,0.0,0.0,0.0,0.0,0.0,2.879,2.879,2.879,2.879,2.879,2.879,2.8994,2.9593,2.8994,2.8449,2.8186,2.8043,2.7839,2.7605,2.725,2.7155,2.7144,0.0,0.0,2.6754,2.6298,2.6092,2.6037,2.5615,2.5129,2.4535,2.4156,2.3756,2.317,0.0,0.0,0.0,0.0,0.0,0.0,0.0,0.0,0.0,0.0,0.0,0.0,0.0,0.0,0.0,0.0,0.0,0.0,0.0,0.0,0.0,1.0386,1.1003,1.1476,1.1763,1.1671,1.1962,1.2425,1.2997,1.3557,1.3872,1.4708,1.4656,1.4076,1.3297,1.2792,1.2365,1.1666,1.1485,1.1669,1.1172,0.0,0.0,0.0,0.0,0.0,0.0,0.0,0.0,1.0482,1.0538,1.0446,1.0195,0.0,0.0,0.0,0.0,0.0,1.1212,1.1701,1.2293,1.2679,1.2547,1.2248,1.2339,0.0,0.0,0.0,0.0,0.0,0.0,0.0,0.0,0.0,0.0,0.0,0.0,0.0,0.0,0.0,0.0,2.6309,2.654,0.0,0.0,0.0,0.0,2.9389,3.0011,3.0011,3.0011,3.0011,3.0011,3.0011,3.0011,2.8994,2.8449,2.8186,2.846,2.8246,2.7997,2.8257,2.8382,2.8382,0.0,2.8201,2.7963,2.7081,2.6639,2.6441,2.581,2.4935,2.4156,2.4535,2.3756,2.2583,0.0,0.0,0.0,0.0,0.0,0.0,0.0,0.0,0.0,0.0,0.0,0.0,0.0,0.0,0.0,0.0,0.0,0.0,0.0,0.0,0.9742,1.0115,1.0767,1.131,1.1672,1.1682,1.2047,1.286,1.3281,1.3789,1.4344,1.4654,1.4416,1.3725,1.3048,1.2656,1.2318,1.1585,1.1397,1.1581,0.0,0.0,0.0,0.0,0.0,0.0,0.0,0.0,0.0,0.0,1.0198,1.0229,1.0093,0.0,0.0,0.0,0.0,0.0,1.0721,1.1301,1.1901,1.2132,1.2305,1.2449,1.2726,0.0,0.0,0.0,0.0,0.0,0.0,0.0,0.0,0.0,0.0,0.0,0.0,0.0,0.0,0.0,0.0,2.6639,2.7255,2.8209,0.0,0.0,0.0,0.0,3.0214,3.0214,3.0214,3.0214,3.0214,3.0214,3.0214,2.9808,2.926,2.899,2.9057,2.8641,2.8198,2.846,2.8382,2.8155,0.0,2.7894,2.7559,2.6782,2.6364,2.6059,2.5561,2.5129,2.474,2.474,2.4341,2.3756,0.0,0.0,0.0,0.0,0.0,0.0,0.0,0.0,0.0,0.0,0.0,0.0,0.0,0.0,0.0,0.0,0.0,0.0,0.0,0.8989,0.945,0.9962,1.0573,1.1059,1.1702,1.1809,1.2304,1.3315,1.375,1.4375,1.5045,1.4643,1.4239,1.3645,1.2859,1.249,1.2361,1.1675,1.1397,1.1564,0.0,0.0,0.0,0.0,0.0,0.0,0.0,0.0,0.0,0.0,0.0,0.0,0.0,0.0,0.0,1.0204,1.0136,1.0107,1.0392,1.0955,1.1431,1.1556,0.0,1.2791,0.0,0.0,0.0,0.0,0.0,0.0,0.0,0.0,0.0,0.0,0.0,0.0,0.0,0.0,0.0,0.0,0.0,0.0,0.0,2.8918,2.9389,2.9593,3.0011,3.0214,3.0214,3.0214,3.0214,3.0214,3.0214,3.0214,3.0214,3.0214,3.0105,2.99,2.97,2.9284,2.8693,2.8901,2.879,2.8348,2.8295,2.8065,2.7577,2.6951,2.6349,2.5906,2.5712,2.5518,2.5324,2.474,2.474,2.4935,0.0,0.0,0.0,0.0,0.0,0.0,0.0,0.0,0.0,0.0,0.0,0.0,0.0,0.0,0.0,0.0,0.0,0.0,0.0,0.8917,0.9301,0.9921,1.0231,1.0836,1.1854,1.2174,1.2617,1.3434,1.4303,1.5205,1.5881,1.495,1.4301,1.3982,1.3056,1.2548,1.2481,1.1611,1.1397,1.1564,1.0916,0.0,0.0,0.0,0.0,0.0,0.0,0.0,0.0,0.0,0.0,0.0,0.0,0.0,1.0263,1.0249,1.0256,1.029,1.0426,1.0732,1.1012,1.1027,0.0,0.0,0.0,0.0,0.0,0.0,0.0,0.0,0.0,0.0,0.0,0.0,0.0,0.0,0.0,0.0,0.0,0.0,0.0,0.0,0.0,2.9225,2.9593,3.0011,3.0214,3.0214,3.0214,3.0214,3.0214,3.0214,3.0214,3.0214,3.0214,3.0214,3.0202,3.0189,3.0202,3.0202,2.9987,2.9999,3.0011,2.9999,2.9699,2.9423,2.9183,2.8309,2.7662,2.6863,2.6487,2.5906,2.5324,2.4351,2.4546,2.5324,0.0,0.0,0.0,0.0,0.0,0.0,0.0,0.0,0.0,0.0,0.0,0.0,0.0,0.0,0.0,0.0,0.0,0.0,0.0,0.8622,0.9128,0.9966,1.0309,1.0974,1.1895,1.2284,1.3097,1.4282,1.5173,1.5774,1.5924,1.4696,1.3967,1.3634,1.2471,1.2074,1.224,1.1362,1.1318,1.1621,1.0975,1.0781,0.0,0.0,0.0,0.0,0.0,0.0,0.0,0.0,0.9689,0.9768,0.9493,0.9727,0.9978,0.9638,0.9801,1.0005,1.0059,1.0594,1.1305,1.1504,0.0,0.0,0.0,0.0,0.0,0.0,0.0,0.0,0.0,0.0,0.0,0.0,0.0,0.0,0.0,0.0,0.0,0.0,0.0,0.0,0.0,2.9641,3.0011,3.0214,3.0214,3.0214,3.0214,3.0214,3.0214,3.0214,3.0214,3.0214,3.0214,3.0214,3.0214,3.0214,3.0214,3.0011,2.9796,3.0011,2.9915,2.9546,2.9471,2.9195,2.854,2.8085,2.7341,2.6487,2.61,2.5712,2.5518,2.5129,2.5129,2.5518,0.0,0.0,0.0,0.0,0.0,0.0,0.0,0.0,0.0,0.0,0.0,0.0,0.0,0.0,0.0,0.0,0.0,0.0,0.8255,0.8599,0.9185,0.9952,1.0386,1.1101,1.1956,1.2557,1.3557,1.4908,1.5688,1.6035,1.5817,1.4445,1.3712,1.3403,1.2299,1.1942,1.2134,1.1415,1.1318,1.162,1.0891,1.065,0.0,0.0,0.0,0.0,0.0,0.0,0.0,0.0,0.9476,0.9544,0.9347,0.946,0.9822,0.9694,0.9849,1.0026,1.0197,1.0703,1.1292,1.175,0.0,0.0,0.0,0.0,0.0,0.0,0.0,0.0,0.0,0.0,0.0,0.0,0.0,0.0,0.0,2.7214,0.0,0.0,0.0,0.0,2.99,3.0105,3.0214,3.0214,3.0214,3.0214,3.0214,3.0214,3.0214,3.0214,3.0214,3.0214,3.0214,3.0214,3.0214,3.0214,3.0129,2.9927,2.9593,2.9915,2.9783,2.9179,2.9231,2.898,2.8398,2.8138,2.7453,2.6487,2.5712,2.5518,2.5518,2.5518,2.5518,2.5518,0.0,0.0,0.0,0.0,0.0,0.0,0.0,0.0,0.5562,0.5562,0.6028,0.0,0.0,0.0,0.0,0.0,0.0,0.0,0.8627,0.8902,0.9279,0.9989,1.0424,1.1059,1.212,1.2934,1.3954,1.5015,1.5968,1.6189,1.558,1.4292,1.3737,1.363,1.2549,1.224,1.2472,1.181,1.1675,1.1611,1.0757,1.0543,1.0749,0.0,0.0,0.0,0.0,0.0,0.0,0.0,0.9606,0.9456,0.9903,0.9937,0.9876,1.0566,1.0671,1.0578,1.1114,1.1165,1.1113,1.1449,0.0,0.0,0.0,0.0,0.0,0.0,0.0,0.0,0.0,0.0,0.0,0.0,0.0,0.0,2.7576,2.845,2.9115,2.9381,2.9634,2.9912,3.0189,3.0214,3.0214,3.0214,3.0214,3.0214,3.0214,3.0214,3.0214,3.0214,3.0214,3.0214,3.0214,3.0214,3.0214,3.0214,2.9924,2.9936,3.0202,2.9924,2.9791,2.9755,2.9236,2.9019,2.8994,2.8729,2.8043,2.7056,2.5906,2.5518,2.5518,2.5518,2.5518,2.5518,0.0,0.0,0.0,0.0,0.0,0.0,0.0,0.0,0.5401,0.5401,0.5789,0.0,0.0,0.0,0.0,0.0,0.0,0.0,0.8475,0.8846,0.9282,0.9979,1.0583,1.1243,1.2053,1.3518,1.4724,1.5386,1.5946,1.5718,1.4844,1.3706,1.3143,1.2869,1.2221,1.1907,1.203,1.1824,1.1681,1.1726,1.1379,1.119,1.1087,0.0,0.0,0.0,0.0,0.0,0.0,0.0,0.0,0.0,0.9621,0.9737,0.9947,0.9781,0.9978,1.0251,1.053,1.0904,0.0,1.233,0.0,0.0,0.0,0.0,0.0,0.0,0.0,0.0,0.0,0.0,0.0,0.0,0.0,0.0,2.8038,2.8569,2.9175,2.9622,2.9743,2.9912,3.0189,3.0214,3.0214,3.0214,3.0214,3.0214,3.0214,3.0214,3.0214,3.0214,3.0214,3.0214,3.0214,3.002,2.9924,2.9924,2.9646,2.9658,2.9912,2.9646,2.9417,2.9236,2.9079,2.891,2.8729,2.8259,2.7839,2.7453,2.6874,2.6681,2.6681,2.6681,2.6681,2.6681,0.0,0.0,0.0,0.0,0.0,0.0,0.0,0.0,0.5168,0.5168,0.5556,0.5867,0.0,0.0,0.0,0.0,0.0,0.0,0.0,0.8865,0.9369,0.9979,1.0658,1.1508,1.2447,1.3898,1.4746,1.4891,1.5401,1.5178,1.4378,1.3604,1.3136,1.3028,1.2763,1.2433,1.2077,1.1996,1.1875,1.1737,1.146,1.1425,1.1398,0.0,0.0,0.0,0.0,0.0,0.0,0.0,0.0,0.0,0.9588,0.9743,0.978,0.9933,1.0194,1.0456,1.0927,1.1479,0.0,0.0,1.4113,0.0,0.0,0.0,0.0,0.0,0.0,0.0,0.0,0.0,0.0,0.0,0.0,0.0,0.0,2.8836,2.9284,2.9598,2.9731,2.9912,3.0189,3.0117,3.0093,3.0202,3.0117,3.0045,3.0045,2.9948,2.99,2.99,2.99,2.99,2.99,2.9731,2.9634,2.9634,2.9381,2.9332,2.9477,2.932,2.9163,2.9006,2.8898,2.8765,2.862,2.8031,2.7839,2.7839,2.726,2.7056,2.7056,2.7056,2.7056,2.7056,0.0,0.0,0.4068,0.4077,0.0,0.0,0.0,0.0,0.5018,0.5018,0.5329,0.5634,0.0,0.0,0.0,0.0,0.0,0.0,0.0,0.9103,0.9544,0.9979,1.0689,1.1747,1.3114,1.4096,1.4327,1.3793,1.457,1.4689,1.4169,1.3795,1.3588,1.3649,1.3841,1.3364,1.2436,1.2427,1.22,1.1747,1.1331,1.1344,1.1718,1.1194,0.0,0.0,0.0,0.0,0.0,0.0,0.0,0.0,1.0032,0.9831,0.9627,1.062,1.089,1.0959,1.2033,0.0,0.0,0.0,0.0,0.0,0.0,0.0,0.0,0.0,0.0,0.0,0.0,0.0,0.0,0.0,0.0,0.0,0.0,2.9067,2.9381,2.9405,2.9634,2.99,3.0153,2.9972,2.9924,3.0165,2.9936,2.9791,2.9755,2.9538,2.9405,2.9405,2.9405,2.9405,2.9405,2.9381,2.9369,2.9369,2.9103,2.8982,2.8982,2.8982,2.8982,2.897,2.8729,2.862,2.862,2.8031,2.7839,2.7839,2.7453,2.726,2.726,2.726,2.726,2.726,0.0,0.0,0.3989,0.4064,0.0,0.0,0.0,0.0,0.0,0.0,0.0,0.0,0.0,0.0,0.0,0.0,0.0,0.0,0.0,0.9174,0.9706,0.9979,1.1321,1.2511,1.3373,1.3442,1.3392,1.3236,1.4101,1.4104,1.3583,1.3236,1.3357,1.3639,1.3297,1.2969,1.2762,1.2383,1.2153,1.2068,1.1856,1.187,1.1918,1.162,1.1558,0.0,0.0,0.0,0.0,0.0,0.0,0.0,1.0721,1.0417,0.9945,1.0465,1.0576,1.089,1.1696,1.2557,0.0,0.0,0.0,0.0,0.0,0.0,0.0,0.0,0.0,0.0,0.0,0.0,0.0,0.0,2.7083,2.7909,2.8704,2.9031,2.9175,2.9381,2.9634,2.9815,2.9876,3.0033,3.0057,2.99,2.9827,2.9707,2.9501,2.9429,2.9405,2.9405,2.9405,2.9405,2.9405,2.92,2.9103,2.9091,2.8825,2.8705,2.8705,2.8705,2.8705,2.8705,2.8644,2.862,2.862,2.8428,2.8428,2.8428,2.8236,2.8236,2.8236,2.8236,2.8236,2.8236,0.0,0.0,0.0,0.0,0.0,0.0,0.0,0.0,0.0,0.0,0.0,0.0,0.0,0.0,0.0,0.0,0.0,0.0,0.0,0.0,0.9898,1.0614,1.178,1.2641,1.3125,1.3042,1.2941,1.2936,1.3153,1.3222,1.3237,1.2914,1.3209,1.386,1.3527,1.3128,1.2724,1.2501,1.2183,1.1983,1.1983,1.1903,1.1846,1.1645,1.1415,1.1283,1.1177,0.0,0.0,0.0,0.0,0.0,0.0,0.0,1.0326,1.0847,1.1012,1.1217,1.2045,0.0,0.0,1.6318,0.0,0.0,0.0,0.0,0.0,0.0,0.0,0.0,0.0,2.4778,2.5604,2.6677,2.7308,2.8079,2.8608,2.8934,2.9067,2.92,2.9344,2.9513,2.9779,2.9695,2.9682,2.9791,2.9562,2.9369,2.9224,2.9103,2.9031,2.9031,2.9031,2.9031,2.9031,2.8898,2.8825,2.8825,2.8693,2.862,2.862,2.862,2.862,2.862,2.862,2.862,2.862,2.862,2.862,2.862,2.862,2.862,2.862,2.862,2.862,2.862,0.0,0.0,0.0,0.0,0.0,0.0,0.0,0.0,0.0,0.0,0.0,0.0,0.0,0.0,0.0,0.0,0.0,0.0,0.0,0.0,0.0,1.1243,1.1907,1.2457,1.2694,1.2594,1.2615,1.2662,1.2134,1.2312,0.0,0.0,1.3234,1.4267,1.4087,1.3487,1.2723,1.2529,1.2183,1.1813,1.1784,1.1812,1.1797,0.0,0.0,0.0,1.1453,1.1467,1.1532,1.1937,0.0,0.0,0.0,0.0,1.0699,1.1251,1.1536,1.1836,1.2653,0.0,1.5718,1.8064,1.9865,0.0,2.1306,2.1853,2.2535,2.3434,2.3575,2.3662,2.4474,2.528,2.6126,2.6876,2.7498,2.8031,2.862,2.8813,2.8946,2.8946,2.8982,2.9188,2.9622,2.9308,2.9236,2.9634,2.926,2.8994,2.8946,2.8741,2.862,2.862,2.862,2.862,2.8812,2.8812,2.8812,2.8812,2.8812,2.8812,2.8812,2.862,2.8596,2.8548,2.8596,2.8596,2.856,2.8608,2.862,2.862,2.862,2.862,2.862,2.862,2.862,2.862,0.0,0.0,0.0,0.0,0.0,0.0,0.0,0.0,0.0,0.0,0.586,0.6247,0.0,0.718,0.7257,0.7488,0.7872,0.8102,0.8102,0.0,0.0,1.1013,1.1563,1.2024,1.2457,1.2014,1.1915,1.2078,1.1404,0.0,0.0,0.0,0.0,1.4713,0.0,1.3537,1.3254,1.2326,1.1841,1.1803,1.1624,1.169,0.0,0.0,0.0,0.0,0.0,0.0,0.0,1.2262,1.211,0.0,0.0,0.0,1.1059,1.1498,1.1776,1.2107,1.2776,0.0,1.7223,0.0,2.0262,2.1087,0.0,0.0,2.2535,0.0,2.393,2.4241,2.4696,2.5948,2.6864,2.7063,2.7878,2.8428,2.862,2.8656,2.8681,2.8681,2.8874,2.9043,2.9115,2.926,2.9284,2.9127,2.9055,2.8922,2.8693,2.8644,2.862,2.862,2.862,2.8812,2.9375,2.9375,2.9567,2.9937,2.9567,2.9375,2.9196,2.8812,2.8487,2.827,2.8512,2.8487,2.8282,2.8524,2.862,2.862,2.862,2.862,2.862,2.862,2.862,2.862,0.0,0.0,0.0,0.0,0.0,0.0,0.0,0.0,0.0,0.0,0.0,0.6556,0.7257,0.7334,0.7411,0.748,0.7795,0.8121,0.8568,0.9304,1.0065,1.0984,1.1378,1.178,1.2199,1.1838,1.1764,1.199,1.1411,0.0,0.0,1.3723,1.4082,0.0,0.0,0.0,0.0,0.0,0.0,1.1992,1.1898,1.1934,0.0,0.0,0.0,0.0,0.0,0.0,0.0,0.0,0.0,1.2219,1.2219,0.0,0.0,0.0,1.2334,1.294,1.4596,1.6284,1.797,0.0,2.0533,2.1424,2.2202,2.2609,2.3215,2.4339,2.4754,2.5183,2.5857,2.662,2.7286,2.7628,2.8176,2.862,2.862,2.862,2.862,2.862,2.8729,2.9043,2.9384,2.9371,2.9553,2.9784,2.9636,2.9499,2.9375,2.9375,2.9375,2.9375,2.9375,2.9567,2.9746,2.9746,2.9937,3.0128,2.9937,2.9746,2.9758,2.9184,2.8739,2.8439,2.8572,2.8548,2.8451,2.8572,2.862,2.862,2.862,2.862,2.862,2.862,2.862,2.862,0.0,0.0,0.0,0.0,0.0,0.0,0.0,0.0,0.0,0.0,0.0,0.6795,0.7403,0.0,0.0,0.0,0.7718,0.8147,0.8907,0.9433,1.0035,1.0717,1.1113,1.1515,1.1865,1.1685,1.165,1.1942,1.1532,0.0,1.4093,1.4044,1.4375,0.0,1.3979,0.0,0.0,0.0,0.0,0.0,0.0,0.0,0.0,0.0,0.0,0.0,0.0,0.0,0.0,0.0,0.0,0.0,0.0,0.0,0.0,0.0,0.0,1.3839,0.0,0.0,1.8289,1.9958,2.0761,2.1459,0.0,0.0,2.3615,0.0,2.5558,2.6077,2.6766,2.7014,2.7438,2.8149,2.8569,2.8739,2.8608,2.8812,2.8812,2.862,2.8812,2.9078,2.966,2.9692,2.9846,3.0446,3.0255,3.0128,3.0128,3.0128,3.0128,3.0128,3.0128,3.0128,3.0319,3.0509,3.0509,3.0509,3.0319,3.0319,3.0319,2.9758,2.9196,2.8812,2.862,2.8584,2.8524,2.8596,2.862,2.862,2.862,2.862,2.862,2.862,2.862,2.862,0.0,0.0,0.0,0.0,0.0,0.0,0.0,0.0,0.0,0.0,0.0,0.6795,0.7403,0.748,0.748,0.748,0.7872,0.8264,0.8655,0.9339,0.9836,1.0049,1.0709,0.0,1.1305,1.1131,1.1253,1.1692,1.164,1.2545,1.4093,1.4312,1.4886,1.5732,1.4901,1.4225,1.3608,0.0,0.0,0.0,0.0,0.0,0.0,0.0,0.0,0.0,0.0,0.0,0.0,0.0,0.0,0.0,0.0,0.0,0.0,0.0,0.0,0.0,0.0,1.7214,1.8054,1.9746,2.0425,2.1004,0.0,0.0,2.3585,2.5173,2.5724,2.6257,2.7145,2.7425,2.7606,2.8125,2.8601,2.8901,2.8584,2.9004,2.9196,2.862,2.9004,2.9388,2.94,2.9758,3.0128,3.0153,3.014,3.0128,3.0128,3.0128,3.0128,3.0128,3.0128,3.0319,3.0916,3.1284,3.1664,3.1664,3.1107,3.0916,3.0916,2.9758,2.9375,2.9388,2.8812,2.8475,2.8246,2.8512,2.862,2.862,2.862,2.862,2.862,2.862,2.862,2.862,0.0,0.0,0.0,0.0,0.0,0.0,0.0,0.0,0.0,0.0,0.0,0.0,0.0,0.748,0.7565,0.7642,0.8025,0.8385,0.8668,0.9167,0.963,0.9952,1.0494,1.0978,1.1398,1.1261,1.1394,1.19,1.1745,1.249,1.4093,1.4166,1.4709,1.5575,1.5011,1.4508,1.3917,1.3211,0.0,0.0,0.0,0.0,0.0,0.0,0.0,0.0,0.0,0.0,0.0,0.0,0.0,0.0,0.0,0.0,0.0,0.0,0.0,0.0,0.0,0.0,1.7938,1.9329,2.0353,2.1168,2.2313,2.3401,2.4349,2.5306,2.5985,2.6761,2.7487,2.7488,2.7779,2.8503,2.879,2.9066,2.9529,2.9746,2.9746,2.9567,2.9746,2.9949,3.0344,3.0522,3.0713,3.1093,3.1093,3.1093,3.1093,3.1093,3.1093,3.1093,3.1093,3.1284,3.1487,3.1677,3.1664,3.1664,3.1474,3.1487,3.1297,3.0331,2.9937,2.9746,2.9004,2.856,2.8475,2.8584,2.862,2.862,2.862,2.862,2.862,2.862,2.862,2.862,0.0,0.0,0.0,0.0,0.0,0.6022,0.5938,0.6099,0.6416,0.0,0.0,0.0,0.0,0.0,0.7718,0.7949,0.8255,0.8462,0.8677,0.9256,0.964,0.9952,1.058,1.1065,1.1321,1.1348,1.1572,1.2005,1.1931,1.2604,1.3972,1.4103,1.4615,1.5356,1.4901,1.4671,0.0,0.0,0.0,1.3413,0.0,0.0,1.2994,0.0,0.0,0.0,0.0,0.0,0.0,0.0,0.0,0.0,0.0,0.0,0.0,0.0,0.0,0.0,1.67,0.0,0.0,1.9122,1.9861,2.0765,2.2316,2.348,2.4601,2.5215,2.6218,2.7075,2.7423,2.7463,2.7854,2.9055,2.9269,2.952,3.0077,3.0319,3.0293,3.0001,3.0178,3.0342,3.0629,3.0818,3.1046,3.1517,3.1517,0.0,3.1664,3.1664,3.1664,3.1664,3.1664,3.1664,3.1664,3.1664,3.1664,3.1664,3.1664,3.1664,3.1664,3.0509,3.0128,3.0128,2.9004,2.862,2.862,2.8812,2.8812,2.8812,2.8812,2.8812,2.8812,2.862,2.862,2.862,0.0,0.0,0.6183,0.5944,0.6106,0.619,0.5951,0.6106,0.6345,0.657,0.0,0.0,0.0,0.0,0.0,0.8417,0.8417,0.8493,0.8722,0.9518,1.0009,1.0009,1.0847,1.1262,1.1273,1.1273,1.1585,1.2151,1.2296,1.2899,1.3836,0.0,1.4667,1.5126,1.462,1.4848,1.5297,0.0,1.4475,1.4436,0.0,1.34,1.3565,0.0,0.0,0.0,1.466,1.4636,0.0,0.0,0.0,0.0,0.0,0.0,0.0,0.0,0.0,0.0,0.0,0.0,0.0,0.0,1.9227,1.9949,2.2099,2.3028,2.3939,2.5059,2.6037,2.6771,2.714,2.7541,2.817,2.9555,3.0026,3.0039,3.0039,3.0496,3.0596,2.9746,3.0285,3.0369,3.0082,3.0426,3.0902,3.1196,3.1209,3.1343,3.1623,3.1637,3.1637,3.1637,3.165,3.165,3.165,3.1664,3.1664,3.1664,3.1664,3.1664,3.1664,3.0509,3.0115,3.0115,2.898,2.8596,2.8596,2.9184,2.9388,2.9375,2.9375,2.9375,2.9375,2.8812,2.862,2.862,0.0,0.6338,0.6295,0.6317,0.641,0.641,0.6331,0.641,0.6569,0.0,0.0,0.0,0.0,0.0,0.0,0.8827,0.8997,0.9077,0.9148,0.9659,0.9981,0.9981,1.0675,1.1173,1.1342,1.1519,1.1833,1.2318,1.2382,1.2899,1.3825,0.0,0.0,0.0,1.482,1.4699,1.4913,1.4173,0.0,0.0,1.3946,1.387,0.0,0.0,0.0,0.0,0.0,1.5227,0.0,0.0,1.5461,1.4863,0.0,0.0,0.0,0.0,0.0,0.0,1.7077,0.0,0.0,0.0,0.0,0.0,2.0985,2.2329,2.3721,2.4154,2.5094,2.6179,2.746,2.7801,2.8565,2.9939,2.9965,2.9925,3.0888,3.0795,3.0889,3.0835,3.0663,3.0703,3.061,3.0795,3.0822,0.0,3.0915,3.0942,3.1036,3.1036,3.1036,3.1036,3.1236,3.1343,3.1343,3.1557,3.1664,3.1664,3.1664,3.1664,3.1664,3.0884,3.0415,3.0402,2.9444,2.8981,2.8442,2.8654,2.9004,2.9375,2.9375,2.9375,2.9375,2.9567,2.9375,2.9196,0.6335,0.6349,0.6396,0.6539,0.6566,0.6566,0.6566,0.6647,0.681,0.0,0.0,0.0,0.0,0.0,0.0,0.901,0.9247,0.9422,0.949,0.9859,1.0194,1.0444,1.1024,1.143,1.1663,1.1844,1.2038,1.2414,1.2414,0.0,0.0,0.0,0.0,0.0,1.4199,1.4084,0.0,0.0,0.0,0.0,1.4808,0.0,0.0,1.5453,1.5671,0.0,0.0,0.0,1.6435,1.7114,1.6697,0.0,0.0,0.0,0.0,0.0,0.0,0.0,0.0,0.0,0.0,0.0,0.0,0.0,2.0816,2.2288,2.3541,2.383,2.48,2.5887,2.717,2.7516,2.8037,2.9375,2.9442,2.9594,3.0915,3.0795,3.0675,3.0849,3.0715,3.0568,3.0434,3.0421,3.0474,3.0595,3.0608,3.0662,3.0782,3.0795,3.0795,3.0795,3.0955,3.1049,3.1049,3.1209,3.1303,3.1303,3.1303,3.1303,3.1303,3.0569,3.0316,3.0303,2.9563,2.9115,2.8768,2.8728,2.8662,2.9053,2.9165,2.9214,2.9227,2.9338,2.9375,2.9004,0.0,0.6485,0.6546,0.6702,0.6729,0.6729,0.6749,0.7,0.7166,0.0,0.0,0.0,0.0,0.0,0.0,0.0,0.9452,0.9714,0.9771,1.0168,1.0539,1.1013,1.1497,1.1811,1.2129,1.2162,1.2199,0.0,0.0,0.0,0.0,0.0,0.0,0.0,1.3315,1.3298,0.0,0.0,0.0,1.5435,1.5734,1.6115,0.0,0.0,1.7235,0.0,1.794,1.8276,1.8295,1.8161,1.7701,0.0,0.0,0.0,0.0,0.0,1.7337,0.0,0.0,0.0,0.0,0.0,0.0,0.0,2.1269,2.2236,2.305,2.3816,2.4467,2.5426,2.6708,2.68,2.7032,2.8193,2.843,2.8978,3.0434,3.0421,3.0274,3.0314,3.0314,3.0207,2.994,2.9913,3.002,3.0287,3.0314,3.0421,3.0688,3.0688,3.0688,3.0688,3.0728,3.0742,3.0742,3.0782,3.0795,3.0795,3.0795,3.0795,3.0795,3.0201,3.0003,3.0003,2.941,2.9212,2.9027,2.8656,2.852,2.8595,2.8842,2.8929,2.8966,2.8833,2.8727,2.8536,0.6464,0.6573,0.6702,0.6858,0.7055,0.7175,0.7309,0.7585,0.7891,0.8205,0.8399,0.0,0.0,0.0,0.0,0.0,1.0225,1.0219,1.0436,1.0569,1.085,1.1264,1.1583,1.1811,1.2129,1.2242,1.2371,0.0,0.0,0.0,0.0,0.0,0.0,0.0,1.3655,1.3644,0.0,0.0,0.0,1.6162,1.5633,0.0,1.7402,1.7444,1.7579,1.7896,1.8834,1.9049,1.8921,0.0,1.9102,1.8949,0.0,0.0,0.0,0.0,0.0,0.0,0.0,0.0,0.0,0.0,0.0,0.0,2.0718,2.1394,2.2268,2.3024,2.334,2.4036,2.5944,2.6047,2.617,2.6958,2.7375,2.8043,2.9526,2.9686,2.974,2.998,3.0007,2.998,2.9927,2.9913,2.994,2.9993,3.0007,3.002,3.0087,3.0087,3.0087,3.0087,3.0327,3.0448,3.0448,3.0675,3.0795,3.0795,3.0795,3.0795,3.0782,3.0555,3.0069,2.9677,2.9274,2.8808,2.807,2.79,2.8161,2.8582,2.8632,2.8657,2.8657,2.908,2.8918,2.8543,0.6749,0.6874,0.7055,0.7109,0.7415,0.7553,0.7709,0.8094,0.8398,0.8574,0.9031,0.0,0.0,0.0,0.0,0.0,0.0,0.0,0.0,0.0,1.1171,1.1681,1.1967,1.2221,1.2565,1.2587,1.2641,0.0,0.0,0.0,0.0,0.0,0.0,0.0,0.0,0.0,0.0,0.0,1.5679,1.6681,1.6664,0.0,1.8333,1.8333,1.8471,1.8827,1.9525,1.9847,1.9968,1.9882,1.9808,0.0,0.0,1.8325,1.8288,0.0,1.8094,1.8167,0.0,0.0,0.0,2.0093,0.0,0.0,0.0,2.1447,2.218,2.2911,2.3117,2.365,2.5255,2.5255,2.519,2.5936,2.6293,2.676,2.7789,2.8444,2.8978,2.9432,2.9472,2.9472,2.9472,2.9472,2.9472,2.9472,2.9472,2.9472,2.9472,2.9472,2.9553,2.97,2.9847,2.9993,3.014,3.0287,3.0354,3.0354,3.0354,3.0354,3.0354,3.0207,2.9946,2.9752,2.9607,2.9182,2.8462,2.8281,2.8082,2.8173,2.8125,2.8174,2.8371,2.8508,2.8557,2.857,0.7159,0.7197,0.7389,0.7375,0.7626,0.7879,0.8038,0.855,0.8879,0.8942,0.0,0.0,0.0,0.0,0.0,0.0,0.0,0.0,0.0,0.0,0.0,1.2026,1.232,1.2608,1.3028,1.2856,1.2877,1.3104,0.0,0.0,0.0,0.0,0.0,0.0,0.0,0.0,0.0,0.0,0.0,1.7149,0.0,1.8616,1.909,1.9176,1.9506,1.9713,2.0363,2.0773,2.0994,2.0539,0.0,1.9917,1.9197,1.8963,0.0,0.0,0.0,0.0,0.0,0.0,0.0,0.0,0.0,2.0978,0.0,0.0,0.0,2.2802,2.2897,2.3184,2.4583,2.4195,2.4022,2.501,2.5144,2.5384,2.5972,2.6921,0.0,2.8524,2.8711,2.8778,2.8778,2.8778,2.8858,2.9032,2.8938,2.8911,2.9032,2.9045,2.9152,2.9392,2.9392,2.9513,2.974,2.9806,2.9833,2.9833,2.9887,2.9913,2.9913,2.9913,2.9913,2.9734,2.9734,2.9554,2.9002,2.8474,2.8101,2.7752,2.7439,2.7695,2.8086,2.7952,2.8038,2.8223,0.7688,0.7541,0.7489,0.7524,0.7825,0.8154,0.8318,0.8934,0.0,0.0,0.0,0.0,0.0,0.0,0.0,0.0,0.0,0.0,1.249,0.0,0.0,1.232,1.2414,1.2533,1.2802,1.278,1.2877,1.3104,0.0,0.0,0.0,0.0,0.0,0.0,1.4312,0.0,0.0,0.0,1.6848,0.0,1.9184,1.9238,0.0,1.9735,2.0192,2.0586,2.1569,2.1798,2.174,0.0,2.0918,2.0662,0.0,1.9534,0.0,0.0,0.0,0.0,0.0,0.0,0.0,0.0,2.108,0.0,0.0,0.0,2.1621,2.2018,0.0,0.0,0.0,0.0,0.0,0.0,0.0,2.4168,2.4756,2.517,2.5838,2.6947,2.7535,2.7856,2.7856,2.7856,2.8177,2.8978,2.8551,2.847,2.9005,2.9045,2.9058,2.9085,2.9085,2.9112,2.9138,2.9406,2.9539,2.9539,2.9793,2.9913,2.9913,2.9913,2.9734,2.9362,2.9362,2.9015,2.8474,2.792,2.7739,2.7739,2.7583,2.7776,2.7789,2.8189,2.8201,2.7826,0.7897,0.7824,0.7908,0.792,0.8191,0.8512,0.8779,0.9453,0.0,0.0,0.0,0.0,0.0,0.0,0.0,0.0,0.0,0.0,0.0,0.0,0.0,0.0,0.0,0.0,1.3373,1.3243,1.3287,1.3523,1.3523,0.0,0.0,0.0,0.0,0.0,1.4823,0.0,1.6571,0.0,0.0,0.0,0.0,0.0,0.0,2.0725,2.1238,2.1647,2.207,2.2234,2.1993,0.0,2.1047,0.0,0.0,0.0,0.0,0.0,0.0,0.0,0.0,0.0,0.0,0.0,0.0,0.0,0.0,0.0,2.1318,0.0,0.0,0.0,0.0,0.0,0.0,0.0,2.3036,2.3403,2.3554,2.387,2.4796,2.6346,0.0,0.0,2.6667,2.668,2.6921,2.7455,2.7268,2.7388,2.7976,2.8177,2.843,2.8778,2.8791,2.8871,2.9045,2.9165,2.9312,2.9486,2.9606,2.9753,2.9913,2.9913,2.9734,2.9554,2.9554,2.9554,2.9195,2.8822,2.8462,2.8101,2.8101,2.792,2.7739,2.7571,2.7739,2.7739,0.8463,0.0,0.0,0.0,0.8629,0.8901,0.9351,0.9851,0.0,0.0,0.0,0.0,1.206,1.2376,0.0,0.0,0.0,1.3467,0.0,0.0,1.3487,0.0,0.0,0.0,0.0,0.0,1.3795,1.4035,1.4035,0.0,0.0,0.0,0.0,0.0,0.0,1.6129,1.712,0.0,0.0,1.9171,2.0249,2.0978,2.1383,2.1751,2.235,2.278,2.2709,2.2555,2.2355,2.1691,2.1424,0.0,2.0662,0.0,0.0,0.0,0.0,0.0,2.0335,0.0,0.0,0.0,0.0,0.0,0.0,0.0,0.0,0.0,0.0,0.0,0.0,0.0,0.0,0.0,0.0,2.2673,0.0,2.289,2.3525,0.0,0.0,0.0,0.0,2.5638,2.5785,2.6239,2.6119,2.636,2.7108,2.7415,2.7816,2.8337,2.8444,2.8577,2.8791,2.8871,2.9032,2.9245,2.9406,2.9593,2.9806,2.9887,2.9913,2.9913,2.9913,2.9913,2.9913,2.9362,2.9002,2.8474,2.8294,2.792,2.7558,2.739,2.7558,2.7739,0.9516,0.8993,0.0,0.0,0.0,0.0,0.9819,0.0,0.0,0.0,0.0,0.0,0.0,0.0,0.0,0.0,0.0,1.4734,1.5109,0.0,1.4077,0.0,0.0,0.0,0.0,0.0,1.4093,1.4676,1.4676,0.0,0.0,0.0,0.0,0.0,0.0,1.6689,1.7421,1.8754,1.9715,2.0575,2.1847,2.3139,2.3908,0.0,2.3055,2.378,2.3526,0.0,0.0,2.2559,2.2142,0.0,0.0,0.0,0.0,0.0,0.0,0.0,0.0,0.0,0.0,2.1336,0.0,0.0,0.0,0.0,2.147,0.0,0.0,0.0,0.0,0.0,0.0,0.0,0.0,0.0,0.0,0.0,0.0,0.0,0.0,0.0,0.0,2.485,2.5037,0.0,2.5451,2.5625,2.6774,2.7121,2.7415,2.7722,2.8003,2.8163,2.8177,2.847,2.8631,2.8644,2.9219,2.9486,2.9499,2.978,2.9913,2.9913,2.9913,2.9913,2.9913,2.9362,2.9002,2.8474,2.792,2.7377,2.7208,2.8113,2.8101,2.7739,0.0,0.0,0.0,0.0,0.0,0.0,0.0,1.0435,0.0,0.0,0.0,0.0,0.0,0.0,1.5027,0.0,0.0,1.5805,1.5752,1.5829,0.0,0.0,0.0,1.5277,0.0,0.0,1.4877,1.4915,1.4915,0.0,0.0,0.0,0.0,0.0,0.0,1.7524,0.0,0.0,0.0,0.0,0.0,2.4478,2.544,0.0,0.0,2.4069,2.3804,2.3538,0.0,2.3052,2.2719,2.246,2.2094,2.1583,2.0946,2.1208,2.0896,0.0,0.0,0.0,2.2083,2.1912,0.0,0.0,0.0,0.0,0.0,0.0,0.0,0.0,0.0,0.0,0.0,0.0,0.0,0.0,0.0,0.0,2.0935,0.0,0.0,0.0,0.0,0.0,0.0,0.0,2.4035,0.0,2.5611,2.6132,2.6707,2.7388,2.7696,2.7949,2.8136,2.8243,2.8404,2.8604,2.9005,2.9285,2.9499,2.978,2.9913,2.9913,2.9913,2.9913,2.9913,2.9734,2.9195,2.8474,2.8294,2.7752,2.7027,2.739,2.739,2.7208,1.1104,0.0,0.0,0.0,0.0,0.0,0.0,0.0,0.0,0.0,1.2866,0.0,1.4836,0.0,1.6025,0.0,1.6918,1.687,1.6495,1.6893,0.0,1.6464,1.6499,0.0,0.0,0.0,0.0,0.0,0.0,1.5806,0.0,0.0,0.0,0.0,0.0,0.0,1.9107,0.0,2.1531,0.0,0.0,2.55,0.0,0.0,2.5071,2.5096,0.0,2.4037,2.3964,2.3723,2.3516,2.3042,2.2936,2.2443,2.1923,2.181,2.1534,2.1582,2.216,2.2487,0.0,2.2632,2.2525,0.0,2.1817,0.0,0.0,0.0,0.0,0.0,0.0,0.0,0.0,0.0,0.0,0.0,0.0,2.0294,0.0,0.0,0.0,0.0,0.0,0.0,0.0,0.0,0.0,0.0,0.0,2.5019,2.5675,2.6598,2.7112,2.7636,2.7822,2.8096,2.8243,2.8444,2.8751,2.9045,2.9339,2.9633,2.982,2.9913,2.9913,2.9913,2.9913,2.9913,2.9375,2.8474,2.8655,2.8113,2.7208,2.7027,2.7027,2.7208,0.0,0.0,0.0,0.0,1.0699,0.0,0.0,0.0,1.2294,0.0,1.3849,1.4473,1.5727,1.6415,1.7066,1.7548,1.7994,0.0,1.7464,1.762,0.0,0.0,1.7268,1.7352,1.7819,0.0,0.0,0.0,0.0,0.0,0.0,0.0,0.0,0.0,1.8012,0.0,1.9117,2.1554,2.2756,2.3147,2.4967,2.6067,2.6414,2.6569,2.6735,2.6707,2.5375,2.4901,2.4976,2.4743,2.4196,2.3716,2.4091,2.3568,2.298,2.2688,2.2898,2.3197,2.321,2.3496,2.3634,2.3073,0.0,0.0,0.0,0.0,2.2806,0.0,0.0,0.0,0.0,0.0,0.0,0.0,0.0,0.0,0.0,0.0,0.0,0.0,0.0,0.0,0.0,0.0,0.0,0.0,0.0,0.0,0.0,2.3896,2.4468,2.5238,2.6384,2.7017,2.7057,2.7822,2.8136,2.815,2.8457,2.8764,2.9045,2.9352,2.9646,2.9913,2.9913,2.9913,2.9913,2.9913,2.9375,2.8655,2.9002,2.8642,2.7739,2.7208,2.739,2.7558,1.2608,1.2348,1.2202,0.0,1.1602,1.1494,0.0,0.0,0.0,0.0,1.4594,1.5558,1.6405,1.7477,1.8153,1.8475,1.891,0.0,0.0,0.0,0.0,1.9201,1.9149,1.9088,1.8752,1.8165,0.0,1.8151,0.0,0.0,1.8194,0.0,0.0,0.0,0.0,0.0,2.0566,2.2037,2.3478,2.5157,2.6491,2.7148,0.0,0.0,2.7878,2.7866,2.6326,2.5564,2.5499,2.5448,2.5153,2.4521,2.4475,2.4018,2.3456,2.3378,2.3209,2.3236,2.3747,2.3928,2.3781,2.3848,2.3594,2.326,0.0,0.0,0.0,0.0,0.0,0.0,0.0,0.0,0.0,0.0,0.0,0.0,0.0,0.0,0.0,1.9786,0.0,0.0,0.0,0.0,0.0,0.0,0.0,0.0,2.2574,0.0,2.389,2.4761,2.5378,2.5903,2.6543,2.7122,2.7433,2.7656,2.8286,2.8764,2.9045,2.9352,2.9646,2.9913,2.9913,2.9913,2.9913,2.9913,2.9554,2.9002,2.9182,2.8642,2.7739,2.7933,2.7933,2.7739,1.3372,0.0,0.0,1.3183,0.0,0.0,1.3333,0.0,0.0,1.501,1.575,0.0,1.7498,1.8363,1.9255,1.9719,1.9878,0.0,0.0,0.0,0.0,2.0519,2.078,2.0724,2.0302,1.977,0.0,1.9512,0.0,0.0,1.8974,0.0,0.0,0.0,0.0,2.0515,2.1273,2.3113,2.4801,2.6401,2.7201,0.0,0.0,2.8203,2.8243,2.8337,2.7328,2.6566,2.6002,2.6026,2.5557,2.5048,2.5198,2.4842,2.4446,2.4327,2.4169,2.405,2.4236,2.4275,2.4155,2.4195,2.4048,2.3834,2.3581,2.3621,2.3621,0.0,0.0,0.0,0.0,0.0,0.0,0.0,0.0,0.0,0.0,0.0,0.0,0.0,1.9533,0.0,0.0,0.0,0.0,0.0,0.0,0.0,0.0,0.0,2.3062,2.3653,2.4585,2.515,2.5502,2.6543,2.7135,2.7304,2.8101,2.8631,2.9045,2.9219,2.9526,2.9913,2.9913,2.9913,2.9913,2.9913,2.9554,2.8835,2.8642,2.8281,2.8101,2.8474,2.8101,2.7739,1.4245,0.0,0.0,0.0,0.0,0.0,0.0,1.5119,0.0,1.6914,0.0,1.7865,1.8581,1.9369,2.0242,2.088,0.0,2.0838,2.1291,2.1531,2.1591,2.1764,2.2186,2.2212,2.1938,2.1391,0.0,0.0,0.0,0.0,0.0,0.0,0.0,0.0,0.0,0.0,0.0,2.4596,2.6234,2.707,2.7369,2.7812,2.8136,2.8136,2.8136,2.8136,2.8136,2.7622,2.6777,2.6488,2.6003,2.5531,2.5803,2.5758,2.5451,2.517,2.5077,2.501,2.4716,2.4636,2.4569,2.4329,2.4449,2.4502,2.3995,2.4075,2.4182,2.3888,2.3863,2.3859,0.0,0.0,0.0,0.0,0.0,0.0,0.0,0.0,0.0,0.0,0.0,0.0,0.0,0.0,0.0,0.0,0.0,0.0,0.0,0.0,2.2276,2.2247,2.3732,2.4641,2.4381,2.6082,2.6838,2.6955,2.7693,2.8457,2.8871,2.9085,2.9392,2.9913,2.9913,2.9913,2.9913,2.9913,2.9375,2.8474,2.792,2.8101,2.8474,2.8474,2.8113,2.7558,0.0,0.0,0.0,0.0,0.0,1.6512,1.7544,1.7256,1.7076,1.7238,1.8707,1.9661,1.9467,2.0669,2.1423,2.1579,2.1843,0.0,0.0,0.0,0.0,2.3054,2.3342,2.3375,2.2947,2.2397,2.2022,0.0,0.0,0.0,0.0,0.0,0.0,0.0,0.0,0.0,2.3441,2.5512,0.0,2.707,2.7861,2.815,2.8136,2.8136,2.8136,2.8136,2.8136,2.7923,2.741,2.7118,2.664,2.6109,2.6026,2.5758,2.5451,2.517,2.5077,2.501,2.4716,2.4636,2.4623,2.4569,2.4596,2.4609,2.4502,2.4529,2.4476,2.4195,2.4174,2.3995,2.3537,0.0,0.0,0.0,0.0,0.0,0.0,0.0,0.0,0.0,0.0,0.0,0.0,0.0,0.0,0.0,0.0,2.0289,0.0,0.0,2.177,0.0,2.2846,2.349,0.0,0.0,2.5537,2.6368,2.7109,2.7958,2.8522,2.9123,2.9593,2.9913,2.9913,2.9913,2.9913,2.9913,2.9554,2.9002,2.8474,2.8113,2.792,2.792,2.7558,2.7208,0.0,0.0,0.0,0.0,0.0,0.0,0.0,1.9702,0.0,1.9404,2.0396,2.129,2.1212,2.2043,2.274,2.3222,2.3424,2.356,2.4185,2.4527,2.4642,2.4519,2.483,0.0,2.4219,2.3786,2.3287,2.2849,0.0,0.0,0.0,0.0,0.0,2.0446,0.0,2.2846,0.0,0.0,0.0,2.7416,2.8203,2.847,2.8604,2.8604,2.8511,2.8377,2.8377,2.819,2.7856,2.7415,2.6974,2.656,2.6279,2.6079,2.5905,2.5625,2.5531,2.5464,2.517,2.509,2.509,2.509,2.509,2.505,2.4903,2.4863,2.4703,2.439,2.4419,2.4358,2.3648,2.2649,0.0,0.0,0.0,0.0,0.0,0.0,0.0,0.0,0.0,0.0,0.0,0.0,0.0,0.0,0.0,2.0244,2.0475,0.0,2.1657,0.0,0.0,0.0,2.4021,0.0,2.5372,2.5892,2.7212,2.793,2.8347,2.8987,2.9455,2.9913,2.9734,2.9734,2.9913,2.9375,2.9015,2.8835,2.7933,2.7571,2.739,2.739,2.7208,2.7027,0.0,1.7943,0.0,0.0,1.9401,0.0,2.0849,2.1928,2.2316,2.1603,2.227,2.2716,2.3051,2.3563,2.4306,2.5133,2.4772,2.5074,2.6108,2.5903,2.5834,2.5935,2.6095,2.5872,2.5384,2.501,2.4502,0.0,0.0,0.0,0.0,0.0,0.0,0.0,0.0,0.0,0.0,0.0,2.7522,2.7843,2.8457,2.8831,2.9045,2.9032,2.9071,2.8856,2.8802,2.8614,2.8318,2.7562,2.7161,2.6867,2.6573,2.644,2.6333,2.6039,2.5959,2.5892,2.5598,2.5518,2.5518,2.5518,2.5464,2.5358,2.513,2.5037,2.4918,2.4453,2.4396,2.4384,2.3609,2.287,0.0,0.0,0.0,0.0,0.0,0.0,0.0,0.0,0.0,0.0,0.0,0.0,0.0,0.0,0.0,2.0178,2.0475,2.1149,2.1545,0.0,0.0,2.3164,2.3756,0.0,2.5243,2.5625,2.7145,2.7875,2.8347,2.8686,2.9152,2.9734,2.9362,2.9541,2.9913,2.8835,2.8474,2.8474,2.739,2.7027,2.7027,2.7027,2.7027,2.7027,0.0,0.0,0.0,0.0,0.0,0.0,0.0,2.3028,2.3598,2.2864,2.3728,2.4399,2.4564,2.5273,2.5956,2.6436,2.6095,2.6095,2.6613,2.6574,2.6548,2.6522,2.6848,2.6894,2.6279,2.5718,2.501,0.0,0.0,0.0,0.0,0.0,0.0,0.0,0.0,0.0,0.0,2.7041,2.7829,2.815,2.8751,2.9018,2.9045,2.9553,2.9699,2.9644,2.9371,2.9261,2.8968,2.8023,2.7468,2.7175,2.6881,2.66,2.6333,2.6039,2.5959,2.5892,2.5598,2.5518,2.5518,2.5518,2.5317,2.5117,2.509,2.4877,2.4583,2.4235,2.4063,2.3863,2.3264,2.3044,2.2646,0.0,0.0,0.0,0.0,0.0,0.0,0.0,0.0,0.0,0.0,1.9212,0.0,0.0,1.9679,1.9968,2.045,2.059,2.0859,2.1474,2.2054,2.2705,2.3478,2.4009,2.4649,2.5397,2.672,2.7529,2.7823,2.8717,2.9156,2.9182,2.9182,2.9541,2.9913,2.8835,2.8474,2.8474,2.739,2.7027,2.7027,2.7027,2.7027,2.7027,0.0,0.0,0.0,0.0,0.0,0.0,0.0,2.5194,2.5625,2.5518,2.5628,2.5933,2.6093,2.6974,2.7643,2.8154,2.7984,2.7984,2.8493,2.7994,2.7808,2.7622,2.7615,2.7499,2.7257,2.6662,2.5999,0.0,0.0,0.0,0.0,0.0,0.0,0.0,0.0,2.5526,2.6639,2.7649,2.8646,2.9294,2.9721,2.9932,2.9907,3.0083,3.0041,2.9699,2.9244,2.9145,2.896,2.8547,2.7942,2.7442,2.6974,2.6747,2.6587,2.6306,2.6213,2.6186,2.6391,2.6195,2.6039,2.6351,2.627,2.6094,2.5729,2.5855,2.5717,2.5347,2.5031,2.4631,2.3811,2.349,2.3208,0.0,0.0,0.0,0.0,0.0,0.0,0.0,0.0,0.0,0.0,0.0,0.0,0.0,0.0,1.9736,1.9853,2.0391,2.1096,2.1857,0.0,2.2955,2.4233,2.413,2.4721,2.5675,2.6983,2.761,2.7902,2.8476,2.8835,2.8835,2.9002,2.9541,2.9913,2.8835,2.8474,2.8474,2.739,2.7027,2.7027,2.7027,2.7027,2.7027,2.3177,0.0,2.3664,0.0,2.502,2.5295,2.6084,2.6681,2.7139,2.7419,2.7457,2.7508,2.7622,2.8509,2.9206,2.9713,2.9539,2.9713,3.0073,2.9535,2.9145,2.8927,2.8628,0.0,2.8359,2.7671,2.7065,2.6389,2.5318,0.0,0.0,0.0,0.0,0.0,2.5148,2.6167,2.7675,2.8331,2.927,3.0111,3.0517,3.0761,3.0794,3.0973,3.071,3.0322,2.9795,2.9453,2.9226,2.9047,2.8506,2.7888,2.7459,2.7216,2.6934,2.6783,2.677,2.6824,2.7045,2.7086,2.6969,2.7203,2.7107,2.6914,2.6391,2.6502,2.6495,2.5954,2.5624,2.5266,2.4525,2.4027,2.3603,2.2928,0.0,0.0,0.0,0.0,0.0,0.0,0.0,1.9972,1.9693,1.9559,0.0,0.0,0.0,0.0,1.9903,2.0323,2.1021,0.0,0.0,0.0,2.4319,2.4401,2.4806,2.5723,2.7109,2.7737,2.7953,2.8309,2.8474,2.8294,2.8835,2.9195,2.9375,2.8835,2.8655,2.8474,2.7571,2.7208,2.7208,2.7027,2.7027,2.7027,2.4316,2.4636,2.5007,2.541,2.6198,2.677,2.677,2.7254,2.7724,2.8017,2.8929,2.9339,2.9045,2.9886,3.0592,3.111,3.0765,3.0592,3.111,3.0765,3.0405,0.0,0.0,2.9789,2.9481,2.8571,2.7796,2.7032,0.0,0.0,2.4182,0.0,2.4494,2.5828,2.6003,2.6901,2.8613,2.9047,2.9783,3.0447,3.1063,3.1315,3.1315,3.1877,3.2054,3.1969,3.1339,3.0765,3.0307,2.9691,2.9146,2.8714,2.859,2.8039,2.7415,2.7574,2.7541,2.7561,2.756,2.7857,2.8025,2.7717,2.7409,2.7102,2.6794,2.6486,2.6242,2.5897,2.5655,2.538,2.5169,2.451,2.3738,2.2468,0.0,0.0,0.0,0.0,0.0,0.0,2.052,2.0359,1.9542,1.9626,0.0,0.0,0.0,0.0,0.0,0.0,0.0,2.1438,2.1993,0.0,2.3454,2.4226,2.4902,2.5446,2.7008,2.7622,2.7648,2.822,2.8294,2.7739,2.8294,2.8474,2.8474,2.9002,2.9002,2.8474,2.792,2.7727,2.7558,2.7208,2.7027,2.7027,2.6056,2.6653,2.7268,2.7324,2.7954,2.8511,2.838,2.8732,2.9304,2.9409,3.0474,3.1416,3.1319,3.1479,3.1578,0.0,3.1578,3.1578,0.0,3.1189,3.0727,3.0727,3.0223,3.0071,3.0325,2.9599,2.891,2.8117,0.0,0.0,0.0,2.5242,2.606,2.7264,2.7783,2.8889,3.0073,3.0482,3.0966,3.1787,3.1814,3.1854,3.1877,3.1877,3.1782,3.1382,3.0835,3.0482,3.0268,3.0069,2.983,2.9759,2.9842,2.8987,2.8194,2.82,2.8025,2.7877,2.8372,2.8199,2.8025,2.8046,2.8047,2.789,2.7577,2.7244,2.6996,2.6488,2.627,2.5935,2.5213,2.4891,2.4466,2.3333,2.2976,0.0,0.0,0.0,0.0,0.0,2.0657,2.0523,1.9973,2.004,0.0,0.0,0.0,0.0,0.0,0.0,0.0,0.0,2.2596,0.0,2.4295,2.4401,2.4806,2.5711,2.676,2.7296,2.7658,2.7845,2.792,2.7739,2.792,2.8101,2.8474,2.8281,2.8281,2.8474,2.7571,2.7377,2.7558,2.7208,2.7027,2.7027,2.7785,2.8372,2.8978,2.9111,2.9583,2.9886,2.9839,3.0301,3.0655,3.0763,3.1833,3.2619,3.2619,3.2641,0.0,3.2419,3.2405,3.2361,3.2246,3.1868,3.1578,3.1578,3.1094,3.0938,3.0994,3.036,0.0,2.9066,2.8086,2.7326,2.665,2.685,2.7636,2.8877,2.9137,2.9941,3.1227,3.1239,3.1758,3.2295,3.2412,3.2412,3.2232,3.2232,3.1987,3.1613,3.1181,3.0681,3.0494,3.0418,3.0346,3.0303,3.0432,2.9864,2.9131,2.9023,2.8818,2.8655,2.8876,2.8833,2.8819,2.8547,2.8588,2.8501,2.8043,2.7784,2.7364,2.6954,2.6676,2.6281,2.5549,2.5227,2.4818,2.3956,2.3507,2.3148,2.282,0.0,0.0,0.0,0.0,0.0,0.0,2.0334,2.0398,0.0,0.0,0.0,0.0,0.0,0.0,2.2601,2.3279,0.0,2.4876,2.4608,2.4975,2.5832,2.6733,2.7318,2.7739,2.7739,2.7558,2.7377,2.7558,2.7739,2.7933,2.792,2.8101,2.8113,2.7571,2.7377,2.7739,2.7377,2.7208,2.7208,2.9495,2.9803,3.0282,0.0,3.0727,0.0,3.1343,3.1651,3.1959,3.2253,3.2845,3.3042,3.3042,3.3422,3.3671,3.3349,0.0,0.0,0.0,3.2807,3.2793,3.2778,3.2456,3.2134,3.1812,3.1183,3.052,2.9707,2.8783,2.8503,2.9003,2.8531,2.9177,3.0437,2.9941,3.041,3.1856,3.1656,3.1975,3.2339,3.2646,3.2778,3.2778,3.2778,3.2763,3.2661,3.2046,3.1483,3.1195,3.0898,3.0527,3.0375,3.0665,3.0499,3.0231,2.9952,2.9818,2.9756,2.9457,2.9661,2.9734,2.909,2.89,2.8812,2.8505,2.7978,2.7525,2.7481,2.6998,2.6457,2.6091,2.5535,2.5008,2.4228,2.3912,2.349,2.322,0.0,0.0,0.0,0.0,0.0,0.0,2.0575,2.0743,0.0,0.0,0.0,0.0,0.0,2.2512,2.3451,2.3982,2.4514,2.4913,2.4972,2.5349,2.5892,2.6741,2.7479,2.7739,2.7739,2.7377,2.7027,2.7377,2.7377,2.7027,2.7933,2.8113,2.7739,2.7739,2.7727,2.7739,2.7752,2.7764,2.7764,0.0,0.0,3.1293,3.124,3.1727,3.2039,3.2169,3.2295,3.2519,3.2589,3.3171,3.3687,3.3687,3.4088,3.4344,3.4022,3.3758,3.348,3.3158,3.3129,3.3027,3.2778,3.2456,3.2134,3.1812,3.1402,3.0753,2.9707,2.9222,2.9108,2.9526,2.9692,3.0202,3.111,3.1509,3.1844,3.2193,3.2339,3.2661,3.2661,3.2734,3.2778,3.2778,3.2778,3.2617,3.2383,3.2222,3.2002,3.1568,3.1329,3.1198,3.0985,3.0905,3.0651,3.0636,3.0642,3.0325,3.0145,3.0069,3.0173,3.0086,2.9427,2.9076,2.8812,2.8505,2.8315,2.8066,2.7583,2.7349,2.6998,2.6164,2.5886,2.552,2.4567,2.4232,2.3881,2.3505,2.3032,0.0,0.0,2.1796,2.1645,2.0895,2.1376,2.1617,0.0,0.0,0.0,0.0,2.3443,2.3862,2.3756,2.4894,2.5282,2.5198,2.5576,2.6056,2.6447,2.6568,2.6953,2.7208,2.7208,2.7027,2.7027,2.7208,2.7027,2.7027,2.7208,2.7571,2.7739,2.7739,2.792,2.8319,2.8534,2.861,2.8635,3.151,3.1973,3.229,3.2427,3.2808,3.3038,3.3157,3.3357,3.3515,3.3658,3.4017,3.4305,3.4305,3.4508,3.4636,3.4461,3.4139,3.3817,3.348,3.3319,3.3173,3.2997,3.2676,3.2354,3.2032,3.1841,3.1335,3.0687,3.0504,3.0504,3.0687,3.086,3.1277,3.1768,3.212,3.2368,3.2515,3.269,3.2778,3.2778,3.2778,3.2778,3.2778,3.2778,3.2661,3.2485,3.2339,3.2163,3.1973,3.1637,3.1534,3.1476,3.1154,3.1051,3.1022,3.0861,3.0665,3.0426,3.0437,3.0349,3.0232,2.972,2.9354,2.9061,2.89,2.8651,2.8344,2.7993,2.7686,2.7276,2.6588,2.6222,2.5798,2.5125,2.4481,2.4027,2.3837,2.3135,0.0,2.2409,2.2341,2.2216,2.174,2.2065,2.2109,2.1951,2.2365,0.0,2.3447,2.4462,2.502,2.4853,2.57,2.6092,2.6004,2.6167,2.637,2.6641,2.6761,2.6894,2.7027,2.7027,2.7027,2.7027,2.7027,2.7027,2.7027,2.7027,2.7208,2.7739,2.7739,2.8176,2.8691,2.9013,2.9337,2.9466,3.2866,3.3129,3.3422,3.3744,3.3846,3.3978,3.4256,3.4329,3.4446,3.468,3.471,3.4695,3.4882,3.4882,3.4882,3.4882,3.4632,3.4338,3.3832,3.3539,3.3363,3.3319,3.3012,3.269,3.2368,3.2266,3.2076,3.1798,3.1798,3.1827,3.1871,3.1871,3.2046,3.2368,3.2412,3.2559,3.2778,3.2822,3.2822,3.2778,3.2778,3.2778,3.2778,3.2955,3.294,3.2911,3.2631,3.2528,3.2484,3.216,3.2043,3.1969,3.1432,3.1315,3.1242,3.092,3.0817,3.0759,3.0495,3.0393,3.029,3.0012,2.969,2.9442,2.9383,2.8959,2.8549,2.8461,2.8008,2.7495,2.7071,2.653,2.6032,2.5593,2.4803,2.4218,2.4159,0.0,2.2995,2.3164,2.3078,2.2921,2.2786,2.275,2.2753,2.2605,2.3077,2.3628,2.4289,2.517,2.5798,2.6146,2.6598,2.6812,2.691,2.6795,2.6653,2.6701,2.6918,2.7027,2.7027,2.7027,2.7027,2.7027,2.7027,2.7027,2.7027,2.7027,2.7377,2.7739,2.7739,2.8277,2.9077,2.9664,3.0044,3.0293,3.3568,3.3627,3.3758,3.408,3.4373,3.4578,3.4622,3.4841,3.4929,3.4739,3.471,3.4882,3.5241,3.5226,3.5413,3.5987,3.5942,3.5404,3.4168,3.4095,3.3949,3.3671,3.3349,3.3027,3.2705,3.2149,3.1856,3.1798,3.1798,3.1944,3.2207,3.2207,3.2383,3.2705,3.2968,3.2968,3.2793,3.3056,3.3012,3.2778,3.2778,3.2778,3.2763,3.3293,3.347,3.347,3.3762,3.3922,3.3876,3.3006,3.2728,3.2624,3.1675,3.1315,3.1242,3.092,3.0817,3.0817,3.0759,3.0554,3.0334,3.029,3.0027,2.972,2.9442,2.9295,2.9076,2.8549,2.8359,2.8022,2.7159,2.691,2.6559,2.5666,2.5183,2.4803,2.454,0.0,2.4174,2.4012,2.4324,2.4365,2.3777,2.4164,2.419,2.3695,2.435,2.4823,2.4917,2.5772,2.6507,2.7041,2.7428,2.7538,2.7508,2.7334,2.7096,2.6966,2.7015,2.7027,2.7027,2.7027,2.7027,2.7027,2.7377,2.7558,2.7558,2.7558,2.792,2.8294,2.8294,2.8821,2.9638,3.0254,3.0717,3.1009,3.4666,3.4711,3.4815,3.4773,3.4951,3.5054,3.471,3.4958,3.5294,3.535,3.5483,3.5777,3.633,3.6163,3.626,3.6448,3.628,3.5725,3.4833,3.467,3.4433,3.4108,3.3782,3.3442,3.3132,3.2646,3.2324,3.2324,3.2324,3.2398,3.2559,3.2719,3.288,3.3041,3.3723,3.3797,3.3649,3.3978,3.3873,3.3724,3.3545,3.347,3.3646,3.3822,3.3822,3.3822,3.4174,3.4174,3.4158,3.3816,3.3595,3.3475,3.2297,3.1904,3.1815,3.1298,3.0984,3.0817,3.0817,3.0715,3.0612,3.0612,3.0364,3.0086,2.9939,2.9632,2.9295,2.9003,2.8681,2.8242,2.7627,2.7217,2.6778,2.6149,2.5491,0.0,0.0,2.4788,2.4701,2.4766,2.507,2.525,2.5031,2.5342,2.5355,2.4946,2.5212,2.5664,2.5837,2.6397,2.6961,2.7709,2.8008,2.8168,2.8204,2.8144,2.7988,2.7752,2.7571,2.7377,2.7377,2.7208,2.7208,2.7377,2.7558,2.792,2.8113,2.7739,2.8101,2.8474,2.8474,2.9002,2.9638,3.0491,3.0982,3.1276,3.573,3.5776,3.5868,3.5554,3.5735,3.5607,3.5099,3.5409,3.5821,3.6125,3.6336,3.6677,3.7264,3.7019,3.6834,3.6945,3.6699,3.6359,3.5786,3.5559,3.5089,3.4576,3.4172,3.3799,3.3485,3.3117,3.2778,3.2778,3.3028,3.3058,3.3073,3.3561,3.3709,3.3723,3.4426,3.4668,3.4518,3.4696,3.4708,3.454,3.428,3.4174,3.4174,3.4349,3.4349,3.4349,3.4525,3.4525,3.4525,3.4349,3.4174,3.4052,3.2692,3.2483,3.2349,3.1676,3.1316,3.0984,3.0817,3.0817,3.0817,3.0817,3.0642,3.0437,3.0364,2.991,2.9471,2.9398,2.893,2.8447,2.8125,2.7656,2.7174,2.6691,0.0,0.0,0.0,2.5344,2.5315,2.5813,2.6003,2.6154,2.6358,2.6402,2.6385,2.6256,2.6101,2.6391,2.6867,2.6907,2.7428,2.8323,2.8512,2.8706,2.8752,2.8693,2.8655,2.8474,2.8101,2.792,2.792,2.7571,2.7571,2.792,2.792,2.8281,2.8655,2.8281,2.8281,2.8655,2.8655,2.9002,2.9638,3.0425,3.0915,3.1263,3.6127,3.6127,3.6143,3.6158,3.6692,3.6906,3.6265,3.6723,3.7028,3.6723,3.6692,3.6896,3.7272,3.7445,3.7492,3.7549,3.7687,3.7301,3.6915,3.6699,3.6175,3.4935,3.4292,3.3799,3.3485,3.3117,3.2778,3.2778,3.3606,3.3933,3.3948,3.4608,3.512,3.5135,3.5471,3.5288,3.4738,3.5028,3.4784,3.4204,3.4189,3.4174,3.4174,3.47,3.4875,3.4875,3.5399,3.5573,3.5399,3.4525,3.4174,3.3876,3.2348,3.2141,3.2349,3.1676,3.1482,3.1316,3.0984,3.0817,3.0817,3.0817,3.0803,3.0715,3.0422,3.0086,2.9749,2.9442,2.9105,2.8769,2.8461,2.8359,2.8022,2.71,0.0,0.0,2.6061,2.6457,2.6822,2.6881,2.7408,2.7638,2.7381,2.7546,2.7676,2.7227,2.7367,2.7499,2.7798,2.7633,2.8043,2.8951,2.9285,2.9092,2.8752,2.9039,2.9015,2.8474,2.8474,2.8474,2.8474,2.8474,2.8474,2.8474,2.8822,2.9182,2.9182,2.9182,2.9182,2.9182,2.9182,2.9351,2.9612,3.0199,3.0742,3.1223,3.7147,3.7445,3.7601,3.6808,3.693,3.7084,3.6249,3.657,3.7019,3.7069,3.7238,3.7567,3.8119,3.7946,3.796,3.8004,3.7798,3.7486,3.6915,3.7285,3.6775,3.5516,3.5227,3.4922,3.4636,3.3888,3.371,3.3903,3.4008,3.4083,3.4292,3.5137,3.5471,3.5471,3.5974,3.6064,3.5816,3.5716,3.5613,3.5363,3.5144,3.505,3.505,3.5225,3.5399,3.5399,3.5573,3.5399,3.505,3.47,3.4525,3.4097,3.3278,3.2991,3.2859,3.2191,3.2009,3.1828,3.1316,3.0984,3.0817,3.0817,3.0984,3.1286,3.1167,3.1048,3.0896,3.023,2.9903,2.936,2.8534,2.8432,2.8256,2.7686,0.0,2.7276,2.7217,2.7261,2.7364,2.7569,2.7803,2.7885,2.8075,2.8264,2.8356,2.8218,2.8199,2.8242,2.8181,2.8345,2.8684,2.9032,2.9499,2.9575,2.9383,2.9488,2.9554,2.9375,2.9015,2.9002,2.9002,2.8655,2.8655,2.9002,2.9182,2.9362,2.9554,2.9362,2.9002,2.8835,2.9002,2.9067,2.9015,3.0106,3.0501,3.0715,3.7893,3.8306,3.8324,3.7553,3.7554,3.7617,3.6808,3.7025,3.7241,3.7617,3.7836,3.8166,3.8529,3.8338,3.8163,3.8052,3.7814,3.7486,3.71,3.7486,3.7144,3.625,3.6074,3.5707,3.5362,3.4666,3.4307,3.4638,3.4592,3.4833,3.5167,3.5853,3.6374,3.6374,3.6448,3.6521,3.638,3.6284,3.6145,3.5923,3.5796,3.5685,3.5573,3.5573,3.5573,3.5573,3.5573,3.5225,3.4875,3.4875,3.4447,3.3945,3.3609,3.3444,3.3229,3.2674,3.2582,3.2478,3.1858,3.1331,3.0984,3.0817,3.115,3.1482,3.1482,3.1571,3.1579,3.0907,3.043,2.9867,2.8836,2.8578,2.8476,2.8154,2.792,2.7817,2.7934,2.7847,2.7891,2.8212,2.8344,2.8534,2.8856,2.9076,2.9166,2.918,2.891,2.8565,2.8465,2.8829,2.9085,2.9179,2.9659,2.9913,2.9913,2.9913,2.9913,2.9913,2.9554,2.9362,2.9362,2.9015,2.9195,2.9362,2.9362,2.9554,2.9913,2.9554,2.9182,2.8835,2.9195,2.9195,2.8861,2.9779,3.0274,3.0394,3.8195,3.8465,3.8592,3.8259,3.8481,3.8465,3.7782,3.7973,3.8195,3.8195,3.8195,3.8195,3.8195,3.8195,3.8052,3.7702,3.7671,3.7671,3.7671,3.7671,3.7512,3.7146,3.6255,3.5887,3.5887,3.5203,3.4845,3.5166,3.5707,3.6059,3.6401,3.7312,3.7671,3.7655,3.7289,3.6924,3.659,3.659,3.6193,3.5605,3.5955,3.5891,3.5573,3.5573,3.5573,3.5573,3.5573,3.5225,3.4875,3.4875,3.4293,3.3594,3.3258,3.3276,3.3271,3.3423,3.34,3.3104,3.2432,3.1828,3.1316,3.0984,3.115,3.1482,3.1482,3.1571,3.1579,3.1243,3.0574,2.9927,2.9598,2.9212,2.8798,2.8505,2.8447,2.833,2.8008,2.8242,2.8564,2.8856,2.9178,2.95,2.9837,2.9866,2.9998,3.032,2.9514,2.8966,2.8577,2.8885,2.9179,2.9472,2.9766,2.9913,2.9913,2.9913,2.9913,2.9913,2.9913,2.9913,2.9913,2.9913,2.9913,2.9913,2.9913,2.9913,2.9913,2.9913,2.9554,2.9182,2.9734,2.9554,2.9182,2.9734,3.01,3.0354,3.8243,3.8878,3.926,3.8656,3.8831,3.891,3.8449,3.8274,3.8195,3.8195,3.7988,3.783,3.783,3.783,3.7782,3.7687,3.7671,3.7671,3.7671,3.7671,3.7623,3.7512,3.7217,3.6987,3.6604,3.6095,3.6079,3.642,3.6355,3.6417,3.676,3.7423,3.7528,3.7274,3.6924,3.6574,3.6241,3.5987,3.5764,3.5589,3.5701,3.5669,3.5573,3.5573,3.5573,3.5573,3.5573,3.5225,3.4875,3.4875,3.4447,3.3914,3.3677,3.3782,3.3771,3.3587,3.3227,3.2794,3.237,3.2174,3.1828,3.1482,3.1662,3.1994,3.2324,3.2741,3.2733,3.2065,3.1749,3.1258,3.0445,3.0067,2.9863,2.9456,2.9442,2.9398,2.931,2.9369,2.9471,2.9559,2.9661,2.9764,2.9851,3.0071,3.0083,2.9857,2.9774,2.9592,2.9603,2.9768,2.9907,3.0002,2.9945,2.9913,2.9913,2.9913,2.9913,2.9913,2.9913,2.9913,2.9913,2.9913,2.9913,2.9913,2.9913,2.9913,2.9913,2.9913,2.9554,2.9182,2.9734,2.9554,2.9182,2.9734,2.9967,3.0047,3.864,3.9228,3.9577,3.9005,3.9085,3.9101,3.8751,3.8529,3.8402,3.8402,3.81,3.7877,3.7877,3.775,3.7671,3.7671,3.7671,3.7671,3.7671,3.7671,3.7671,3.7671,3.7671,3.7486,3.7285,3.6939,3.6939,3.7285,3.6939,3.6939,3.7285,3.7486,3.748,3.7115,3.6749,3.6416,3.6098,3.5875,3.5701,3.5589,3.5732,3.5701,3.5573,3.5573,3.5573,3.5573,3.5573,3.5225,3.4875,3.505,3.4862,3.4188,3.397,3.4008,3.3937,3.3587,3.3518,3.3359,3.257,3.2631,3.2723,3.2221,3.2464,3.2674,3.2685,3.3258,3.3556,3.2739,3.2467,3.2034,3.1213,3.0846,3.0686,3.0188,3.0188,3.0027,2.9866,2.9866,2.991,3.0042,3.0056,3.01,3.0232,3.0539,3.0622,3.0251,3.0439,3.0367,3.0135,3.0148,3.0233,3.0001,2.9998,2.9913,2.9913,2.9913,2.9913,2.9913,2.9913,2.9913,2.9913,2.9913,2.9913,2.9913,2.9913,2.9913,2.9913,2.9913,2.9734,2.9541,2.9734,2.9734,2.9541,2.9734,2.9913,2.9913,3.942,3.9707,3.9851,3.9323,3.926,3.9164,3.8831,3.8767,3.8735,3.8735,3.8449,3.8227,3.8211,3.7909,3.7702,3.7671,3.7671,3.7671,3.7671,3.7671,3.7671,3.7671,3.7671,3.7671,3.7671,3.7337,3.7337,3.7671,3.7337,3.7337,3.7671,3.7639,3.7432,3.7067,3.6717,3.6368,3.6066,3.6066,3.5875,3.5605,3.5923,3.5859,3.5573,3.5573,3.5573,3.5573,3.5573,3.5399,3.505,3.5399,3.5129,3.4493,3.4207,3.408,3.3985,3.3667,3.4016,3.4261,3.3106,3.326,3.3831,3.3321,3.3276,3.3302,3.2943,3.3431,3.3778,3.3143,3.2676,3.2258,3.1947,3.1564,3.1258,3.0615,3.0615,3.0438,3.0115,3.0115,3.0218,3.0513,3.0393,3.051,3.0803,3.1124,3.1277,3.1095,3.1138,3.0935,3.034,3.0381,3.0165,3.0079,2.9913,2.9913,2.9913,2.9913,2.9913,2.9913,2.9913,2.9913,2.9913,2.9913,2.9913,2.9913,2.9913,2.9913,2.9913,2.9913,2.9913,2.9913,2.9913,2.9913,2.9913,2.9913,2.9913,2.9913,4.0569,4.0672,4.0901,4.0223,4.0207,3.9997,3.9546,3.9291,3.9101,3.9101,3.8799,3.8481,3.8227,3.8131,3.8159,3.8256,3.8224,3.8224,3.8224,3.7855,3.7671,3.7671,3.7671,3.7671,3.7671,3.7591,3.7591,3.7671,3.7591,3.7591,3.7671,3.7385,3.7051,3.6702,3.6368,3.6018,3.5701,3.5701,3.5653,3.5589,3.5669,3.5653,3.5573,3.5573,3.5573,3.5573,3.5573,3.5573,3.5399,3.5573,3.5287,3.4906,3.4827,3.462,3.4382,3.4302,3.4382,3.4324,3.3738,3.3954,3.434,3.3831,3.3954,3.4134,3.3802,3.3746,3.3556,3.3397,3.3365,3.3186,3.2616,3.2437,3.2273,3.1437,3.1617,3.1617,3.1272,3.1108,3.1137,3.1197,3.0881,3.0744,3.0817,3.1124,3.1446,3.1597,3.1859,3.2033,3.1932,3.1282,3.1081,3.0959,3.0272,2.9913,2.9913,2.9913,2.9913,2.9913,2.9913,2.9913,2.9913,2.9913,2.9913,2.9913,2.9913,2.9913,2.9913,2.9913,2.9913,2.9913,2.9913,2.9913,2.9913,2.9913,2.9913,2.9913,4.1024,4.1172,4.1111,4.0917,4.0707,4.0513,4.0141,3.9787,3.9482,3.9482,3.9164,3.8878,3.8703,3.8402,3.8254,3.844,3.8224,3.8224,3.8759,3.804,3.7855,3.804,3.7855,3.7671,3.7671,3.7671,3.7671,3.7671,3.7671,3.7671,3.7655,3.7305,3.694,3.659,3.6257,3.5907,3.5573,3.5573,3.5573,3.5589,3.5764,3.5732,3.5589,3.5764,3.5716,3.5573,3.5573,3.5573,3.5573,3.5573,3.5335,3.5033,3.5033,3.4795,3.4509,3.4509,3.462,3.4593,3.4251,3.4548,3.4846,3.4502,3.4422,3.4414,3.4096,3.3873,3.3683,3.3524,3.3492,3.3476,3.3148,3.3148,3.2983,3.2159,3.2324,3.2324,3.1828,3.1828,3.1828,3.1482,3.145,3.1351,3.149,3.1681,3.1915,3.2237,3.2412,3.2515,3.2163,3.16,3.1137,3.0973,3.0272,2.9913,2.9913,2.9913,2.9913,2.9913,2.9913,2.9913,2.9913,2.9913,2.9913,2.9913,2.9913,2.9913,2.9913,2.9913,2.9913,2.9913,2.9913,2.9913,2.9913,2.9913,3.0007,3.0114,4.169,4.1514,4.1497,4.1497,4.1111,4.0707,4.0707,4.0141,3.9947,3.9947,3.9691,3.9452,3.934,3.8717,3.8546,3.8624,3.8224,3.8408,3.9125,3.8224,3.804,3.8224,3.7855,3.7671,3.7671,3.7671,3.7671,3.7671,3.7671,3.7671,3.7655,3.7305,3.6972,3.667,3.6336,3.6034,3.5748,3.5701,3.5701,3.578,3.6002,3.5923,3.5701,3.6002,3.5891,3.5573,3.5573,3.5573,3.5573,3.5573,3.5383,3.5129,3.5129,3.4922,3.4684,3.4684,3.489,3.4956,3.4611,3.5004,3.5573,3.505,3.469,3.4445,3.4239,3.4048,3.3842,3.354,3.3492,3.3492,3.3492,3.354,3.3391,3.2834,3.2881,3.2897,3.2355,3.2339,3.2174,3.1813,3.1948,3.2074,3.2222,3.228,3.2412,3.2749,3.2778,3.2586,3.2232,3.1685,3.1151,3.0794,3.0272,2.9913,2.9913,2.9913,2.9913,2.9913,2.9913,2.9913,2.9913,2.9913,2.9913,2.9913,2.9913,2.9913,2.9913,2.9913,2.9913,2.9913,2.9913,2.9913,2.9927,2.9967,3.0154,3.0327,4.2669,4.2669,4.2477,4.2076,4.1883,4.169,4.1304,4.0724,4.0319,4.0319,4.0271,4.0013,3.9401,3.9451,3.9757,3.9707,3.969,3.9508,3.9125,3.8591,3.8224,3.7855,3.7671,3.7671,3.7671,3.7671,3.7671,3.7671,3.7671,3.7671,3.7655,3.7305,3.7099,3.7035,3.6686,3.6511,3.6447,3.6161,3.6209,3.6431,3.6209,3.6082,3.6034,3.6082,3.5891,3.5573,3.5573,3.5573,3.5573,3.5573,3.5542,3.551,3.551,3.5478,3.543,3.543,3.5462,3.551,3.551,3.5542,3.5573,3.5573,3.5033,3.4573,3.4827,3.4207,3.354,3.3492,3.3492,3.3492,3.3492,3.373,3.3676,3.2866,3.3415,3.351,3.2866,3.2654,3.2654,3.2654,3.2282,3.2074,3.2222,3.228,3.2412,3.2749,3.2778,3.2763,3.2778,3.2232,3.1685,3.1151,3.0794,3.0258,2.9913,2.9913,2.9913,2.9913,2.9913,2.9913,2.9913,2.9913,2.9913,2.9913,2.9913,2.9913,2.9913,2.9913,2.9913,2.9913,2.9913,2.9913,2.994,3.0207,3.0327,3.0394,4.2861,4.2861,4.2669,4.2477,4.2268,4.2076,4.169,4.1304,4.0917,4.0917,4.0917,4.0705,4.0181,3.9868,3.9741,3.9889,3.9325,3.9325,3.9856,3.8775,3.8224,3.8391,3.804,3.7671,3.7671,3.7671,3.7671,3.7671,3.7671,3.7671,3.7655,3.7305,3.7131,3.7115,3.6749,3.6786,3.6965,3.6626,3.6642,3.6965,3.6833,3.6559,3.64,3.6606,3.6463,3.613,3.5939,3.5748,3.5573,3.5573,3.5573,3.5573,3.5573,3.5573,3.5573,3.5573,3.5573,3.5573,3.5573,3.5573,3.5573,3.5573,3.5192,3.4843,3.5002,3.4525,3.4048,3.4048,3.4048,3.4048,3.4048,3.4175,3.4239,3.3746,3.3865,3.3953,3.3463,3.3274,3.3124,3.2998,3.2504,3.2205,3.2515,3.2559,3.2617,3.2763,3.2778,3.2778,3.2778,3.2232,3.1877,3.1685,3.0973,3.0437,3.0272,3.0093,2.9913,2.9913,2.9913,2.9913,2.9913,2.9913,2.9913,2.9913,2.9913,2.9913,2.9913,2.9913,2.9913,2.9913,2.9913,3.002,3.0181,3.0314,3.0568,3.0835]}]]